[[{"header":{"parameterUnit":"m.s-1","parameterCategory":1,"la1":30.6,"la2":29.2853,"lo1":-89.7004,"lo2":-87.6739,"dy":0.0162,"dx":0.0183,"nx":112,"ny":82,"refTime":"2024-09-22T06:00:00:Z","depth":0,"parameterNumber":2,"parameterNumberName":"U-component_of_WINDS"},"data":[0.0,0.0,0.0,0.0,0.0,0.0,0.0,0.0,0.0,0.0,0.0,0.0,0.0,0.0,0.0,0.0,0.0,0.0,0.0,0.0,0.0,0.0,0.0,0.0,0.0,0.0,0.0,0.0,0.0,0.0,0.0,0.0,0.0,0.0,0.0,0.0,0.0,0.0,0.0,0.0,0.0,0.0,0.0,0.0,0.0,0.0,0.0,0.0,0.0,0.0,0.0,0.0,0.0,0.0,0.0,0.0,0.0,0.0,0.0,0.0,0.0,0.0,0.0,0.0,0.0,0.0,0.0,0.0,0.0,0.0,0.0,0.0,0.0,0.0,0.0,0.0,0.0,0.0,0.0,0.0,0.0,0.0,0.0,0.0,0.0,0.0,0.0,0.0,0.0,0.0,5.4374,5.9313,6.4398,6.7666,6.8067,6.7917,6.4858,5.7929,0.0,0.0,0.0,0.0,0.0,0.0,0.0,0.0,0.0,0.0,0.0,0.0,0.0,0.0,0.0,0.0,0.0,0.0,0.0,0.0,0.0,0.0,0.0,0.0,0.0,0.0,0.0,0.0,0.0,0.0,0.0,0.0,0.0,0.0,0.0,0.0,0.0,0.0,0.0,0.0,0.0,0.0,0.0,0.0,0.0,0.0,0.0,0.0,0.0,0.0,0.0,0.0,0.0,0.0,0.0,0.0,0.0,0.0,0.0,0.0,0.0,0.0,0.0,0.0,0.0,0.0,0.0,0.0,0.0,0.0,0.0,0.0,0.0,0.0,0.0,0.0,0.0,0.0,0.0,0.0,0.0,0.0,0.0,0.0,0.0,0.0,0.0,0.0,0.0,0.0,0.0,0.0,0.0,0.0,0.0,0.0,0.0,0.0,0.0,0.0,0.0,0.0,0.0,0.0,5.6225,6.5022,6.7393,6.8219,6.8065,6.7388,6.4253,5.79,0.0,0.0,0.0,0.0,0.0,0.0,0.0,0.0,0.0,0.0,0.0,0.0,0.0,0.0,0.0,0.0,0.0,0.0,0.0,0.0,0.0,0.0,0.0,0.0,0.0,0.0,0.0,0.0,0.0,0.0,0.0,0.0,0.0,0.0,0.0,0.0,0.0,0.0,0.0,0.0,0.0,0.0,0.0,0.0,0.0,0.0,0.0,0.0,0.0,0.0,0.0,0.0,0.0,0.0,0.0,0.0,0.0,0.0,0.0,0.0,0.0,0.0,0.0,0.0,0.0,0.0,0.0,0.0,0.0,0.0,0.0,0.0,0.0,0.0,0.0,0.0,0.0,0.0,0.0,0.0,0.0,0.0,0.0,0.0,0.0,0.0,0.0,0.0,0.0,0.0,0.0,0.0,0.0,0.0,0.0,0.0,0.0,0.0,0.0,0.0,0.0,0.0,0.0,5.5498,6.0285,6.7011,6.8703,6.9247,6.8951,6.8177,6.4848,5.8362,5.3054,0.0,0.0,0.0,0.0,0.0,0.0,0.0,0.0,0.0,0.0,0.0,0.0,0.0,0.0,0.0,0.0,0.0,0.0,0.0,0.0,0.0,0.0,0.0,0.0,0.0,0.0,0.0,0.0,0.0,0.0,0.0,0.0,0.0,0.0,0.0,0.0,0.0,0.0,0.0,0.0,0.0,0.0,0.0,0.0,0.0,0.0,0.0,0.0,0.0,0.0,0.0,0.0,0.0,0.0,0.0,0.0,0.0,0.0,0.0,0.0,0.0,0.0,0.0,0.0,0.0,0.0,0.0,0.0,0.0,0.0,0.0,0.0,0.0,0.0,0.0,0.0,0.0,0.0,0.0,0.0,0.0,0.0,0.0,0.0,0.0,0.0,0.0,0.0,0.0,0.0,0.0,0.0,0.0,0.0,0.0,0.0,0.0,0.0,0.0,0.0,0.0,0.0,6.1117,6.4084,6.799,6.9322,6.978,6.9421,6.7859,6.4205,5.7819,5.1433,0.0,0.0,0.0,0.0,0.0,0.0,0.0,0.0,0.0,0.0,0.0,0.0,0.0,0.0,0.0,0.0,0.0,0.0,0.0,0.0,0.0,0.0,0.0,0.0,0.0,0.0,0.0,0.0,0.0,0.0,0.0,0.0,0.0,0.0,0.0,0.0,0.0,0.0,0.0,0.0,0.0,0.0,0.0,0.0,0.0,0.0,0.0,0.0,0.0,0.0,0.0,0.0,0.0,0.0,0.0,0.0,0.0,0.0,0.0,0.0,0.0,0.0,0.0,0.0,0.0,0.0,0.0,0.0,0.0,0.0,0.0,0.0,0.0,0.0,0.0,0.0,0.0,0.0,0.0,0.0,0.0,0.0,0.0,0.0,0.0,0.0,0.0,0.0,0.0,0.0,0.0,0.0,0.0,0.0,0.0,0.0,0.0,0.0,0.0,0.0,0.0,0.0,6.1634,6.6112,6.8926,6.9315,6.9093,6.8537,6.482,6.0319,5.5088,4.7702,0.0,0.0,0.0,0.0,0.0,0.0,0.0,0.0,0.0,0.0,0.0,0.0,0.0,0.0,0.0,0.0,0.0,0.0,0.0,0.0,0.0,0.0,0.0,0.0,0.0,0.0,0.0,0.0,0.0,0.0,0.0,0.0,0.0,0.0,0.0,0.0,0.0,0.0,0.0,0.0,0.0,0.0,0.0,0.0,0.0,0.0,0.0,0.0,0.0,0.0,0.0,0.0,0.0,0.0,0.0,0.0,0.0,0.0,0.0,0.0,0.0,0.0,0.0,0.0,0.0,0.0,0.0,0.0,0.0,0.0,0.0,0.0,0.0,0.0,0.0,0.0,0.0,0.0,0.0,0.0,0.0,0.0,0.0,0.0,0.0,0.0,0.0,0.0,0.0,0.0,0.0,0.0,0.0,0.0,0.0,0.0,0.0,0.0,0.0,0.0,0.0,0.0,6.1185,6.5248,6.8884,6.9588,6.9447,6.846,6.6436,6.2127,5.4934,0.0,0.0,0.0,0.0,0.0,0.0,0.0,0.0,0.0,0.0,0.0,0.0,0.0,0.0,0.0,0.0,0.0,0.0,0.0,0.0,0.0,0.0,0.0,0.0,0.0,0.0,0.0,0.0,0.0,0.0,0.0,0.0,0.0,0.0,0.0,0.0,0.0,0.0,0.0,0.0,0.0,0.0,0.0,0.0,0.0,0.0,0.0,0.0,0.0,0.0,0.0,0.0,0.0,0.0,0.0,0.0,0.0,0.0,0.0,0.0,0.0,0.0,0.0,0.0,0.0,0.0,0.0,0.0,0.0,0.0,0.0,0.0,0.0,0.0,0.0,0.0,0.0,0.0,0.0,0.0,0.0,0.0,0.0,0.0,0.0,0.0,0.0,0.0,0.0,0.0,0.0,0.0,0.0,0.0,0.0,0.0,0.0,0.0,0.0,0.0,0.0,0.0,5.6988,6.1296,6.5073,6.8672,6.9355,6.9201,6.8254,6.6096,6.1659,5.4164,0.0,0.0,0.0,0.0,0.0,0.0,0.0,0.0,0.0,0.0,0.0,0.0,0.0,0.0,0.0,0.0,0.0,0.0,0.0,0.0,0.0,0.0,0.0,0.0,0.0,0.0,0.0,0.0,0.0,0.0,0.0,0.0,0.0,0.0,0.0,0.0,0.0,0.0,0.0,0.0,0.0,0.0,0.0,0.0,0.0,0.0,0.0,0.0,0.0,0.0,0.0,0.0,0.0,0.0,0.0,0.0,0.0,0.0,0.0,0.0,0.0,0.0,0.0,0.0,0.0,0.0,0.0,0.0,0.0,0.0,0.0,0.0,0.0,0.0,0.0,0.0,0.0,0.0,0.0,0.0,0.0,0.0,0.0,0.0,0.0,0.0,0.0,0.0,0.0,0.0,0.0,0.0,0.0,0.0,0.0,0.0,0.0,0.0,0.0,0.0,0.0,0.0,5.717,6.2255,6.614,6.8267,6.8511,6.8253,6.7631,6.2978,5.7718,0.0,0.0,0.0,0.0,0.0,0.0,0.0,0.0,0.0,0.0,0.0,0.0,0.0,0.0,0.0,0.0,0.0,0.0,0.0,0.0,0.0,0.0,0.0,0.0,0.0,0.0,0.0,0.0,0.0,0.0,0.0,0.0,0.0,0.0,0.0,0.0,0.0,0.0,0.0,0.0,0.0,0.0,0.0,0.0,0.0,0.0,0.0,0.0,0.0,0.0,0.0,0.0,0.0,0.0,0.0,0.0,0.0,0.0,0.0,0.0,0.0,0.0,0.0,0.0,0.0,0.0,0.0,0.0,0.0,0.0,0.0,0.0,0.0,0.0,0.0,0.0,0.0,0.0,0.0,0.0,0.0,0.0,0.0,0.0,0.0,0.0,0.0,0.0,0.0,0.0,0.0,0.0,0.0,0.0,0.0,0.0,0.0,0.0,0.0,0.0,0.0,0.0,0.0,5.7985,6.2615,6.6118,6.823,6.884,6.8512,6.7165,6.5276,6.075,5.278,0.0,0.0,0.0,0.0,0.0,0.0,0.0,0.0,0.0,0.0,0.0,0.0,0.0,0.0,0.0,0.0,0.0,0.0,0.0,0.0,0.0,0.0,0.0,0.0,0.0,0.0,0.0,0.0,0.0,0.0,0.0,0.0,0.0,0.0,0.0,0.0,0.0,0.0,0.0,0.0,0.0,0.0,0.0,0.0,0.0,0.0,0.0,0.0,0.0,0.0,0.0,0.0,0.0,0.0,0.0,0.0,0.0,0.0,0.0,0.0,0.0,0.0,0.0,0.0,0.0,0.0,0.0,0.0,0.0,0.0,0.0,0.0,0.0,0.0,0.0,0.0,0.0,0.0,0.0,0.0,0.0,0.0,0.0,0.0,0.0,0.0,0.0,0.0,0.0,0.0,0.0,0.0,0.0,0.0,0.0,0.0,0.0,0.0,0.0,0.0,0.0,0.0,5.8341,6.2761,6.6118,6.8267,6.8795,6.847,6.7239,6.6459,6.2372,5.3809,0.0,0.0,0.0,0.0,0.0,0.0,0.0,0.0,0.0,0.0,0.0,0.0,0.0,0.0,0.0,0.0,0.0,0.0,0.0,0.0,0.0,0.0,0.0,0.0,0.0,0.0,0.0,0.0,0.0,0.0,0.0,0.0,0.0,0.0,0.0,0.0,0.0,0.0,0.0,0.0,0.0,0.0,0.0,0.0,0.0,0.0,0.0,0.0,0.0,0.0,0.0,0.0,0.0,0.0,0.0,0.0,0.0,0.0,0.0,0.0,0.0,0.0,0.0,0.0,0.0,0.0,0.0,0.0,0.0,0.0,0.0,0.0,0.0,0.0,0.0,0.0,0.0,0.0,0.0,0.0,0.0,0.0,0.0,0.0,0.0,0.0,0.0,0.0,0.0,0.0,0.0,0.0,0.0,0.0,0.0,0.0,0.0,0.0,0.0,0.0,0.0,0.0,5.8336,6.2818,6.6161,6.8219,6.8464,6.8247,6.7572,6.6721,6.2955,5.524,0.0,0.0,0.0,0.0,0.0,0.0,0.0,0.0,0.0,0.0,0.0,0.0,0.0,0.0,0.0,0.0,0.0,0.0,0.0,0.0,0.0,0.0,0.0,0.0,0.0,0.0,0.0,0.0,0.0,0.0,0.0,0.0,0.0,0.0,0.0,0.0,0.0,0.0,0.0,0.0,0.0,0.0,0.0,0.0,0.0,0.0,0.0,0.0,0.0,0.0,0.0,0.0,0.0,0.0,0.0,0.0,0.0,0.0,0.0,0.0,5.2658,4.8865,0.0,0.0,0.0,0.0,0.0,0.0,0.0,0.0,0.0,0.0,0.0,0.0,0.0,0.0,0.0,0.0,0.0,0.0,0.0,0.0,0.0,0.0,0.0,0.0,0.0,0.0,0.0,0.0,0.0,0.0,0.0,0.0,0.0,0.0,0.0,0.0,0.0,0.0,0.0,0.0,5.8531,6.3304,6.6639,6.7752,6.8259,6.8007,6.6839,6.612,6.3163,5.708,5.2504,0.0,0.0,0.0,0.0,0.0,0.0,0.0,0.0,0.0,0.0,0.0,0.0,0.0,0.0,0.0,0.0,0.0,0.0,0.0,0.0,0.0,0.0,0.0,0.0,0.0,0.0,0.0,0.0,0.0,0.0,0.0,0.0,0.0,0.0,0.0,0.0,0.0,0.0,0.0,0.0,0.0,0.0,0.0,0.0,0.0,0.0,0.0,0.0,0.0,0.0,0.0,0.0,0.0,0.0,0.0,0.0,0.0,0.0,0.0,6.0725,5.7033,0.0,0.0,0.0,0.0,0.0,0.0,0.0,0.0,0.0,0.0,0.0,0.0,0.0,0.0,0.0,0.0,0.0,0.0,0.0,0.0,0.0,0.0,0.0,0.0,0.0,0.0,0.0,0.0,0.0,0.0,0.0,0.0,0.0,0.0,0.0,0.0,0.0,0.0,0.0,0.0,5.9138,6.369,6.6916,6.7961,6.8309,6.8176,6.7272,6.6612,6.4254,5.9736,5.5763,0.0,0.0,0.0,0.0,0.0,0.0,0.0,0.0,0.0,0.0,0.0,0.0,0.0,0.0,0.0,0.0,0.0,0.0,0.0,0.0,0.0,0.0,0.0,0.0,0.0,0.0,0.0,0.0,0.0,0.0,0.0,0.0,0.0,0.0,0.0,0.0,0.0,0.0,0.0,0.0,0.0,0.0,0.0,0.0,0.0,0.0,0.0,0.0,0.0,0.0,0.0,0.0,0.0,6.9314,7.0716,7.2071,7.211,7.3284,7.4957,6.9289,6.683,6.6354,6.1296,0.0,0.0,0.0,0.0,0.0,0.0,0.0,0.0,0.0,0.0,0.0,0.0,0.0,0.0,0.0,0.0,0.0,0.0,0.0,0.0,0.0,0.0,5.9317,6.1787,6.3693,6.2784,5.466,0.0,0.0,0.0,0.0,0.0,0.0,0.0,0.0,0.0,0.0,0.0,6.0121,6.422,6.712,6.8218,6.837,6.826,6.8002,6.7217,6.5523,6.2591,5.9403,5.5957,0.0,0.0,0.0,0.0,0.0,0.0,0.0,0.0,0.0,0.0,0.0,0.0,0.0,0.0,0.0,0.0,0.0,0.0,0.0,0.0,0.0,0.0,0.0,0.0,0.0,0.0,0.0,0.0,0.0,0.0,0.0,0.0,4.9511,5.3044,0.0,0.0,0.0,0.0,0.0,0.0,0.0,0.0,0.0,0.0,0.0,0.0,0.0,6.705,6.8575,7.3418,7.5434,7.4765,7.9275,8.1157,8.0663,8.1426,8.1958,8.2227,8.1305,0.0,6.9123,6.7679,0.0,0.0,0.0,0.0,0.0,0.0,0.0,0.0,0.0,0.0,0.0,0.0,0.0,0.0,0.0,0.0,0.0,0.0,0.0,0.0,0.0,0.0,6.8345,6.8503,6.8925,6.8876,6.7345,6.0378,5.3445,5.0089,4.7141,4.4405,0.0,0.0,0.0,0.0,0.0,0.0,6.1478,6.5257,6.7614,6.776,6.7831,6.7773,6.7731,6.6994,6.6036,6.488,6.2376,6.0093,5.8133,5.3834,0.0,0.0,0.0,0.0,0.0,0.0,0.0,0.0,0.0,0.0,0.0,0.0,0.0,0.0,0.0,0.0,0.0,0.0,0.0,0.0,0.0,0.0,0.0,0.0,0.0,0.0,0.0,0.0,0.0,4.9618,5.4416,5.5559,5.5603,5.4285,0.0,0.0,0.0,0.0,0.0,0.0,0.0,0.0,0.0,6.9201,7.2178,7.4497,7.6191,7.9319,8.0959,8.1036,8.3259,8.4637,8.5176,8.506,8.5253,8.5709,8.5214,8.215,7.7253,7.3534,6.94,6.5141,0.0,0.0,0.0,0.0,6.3474,6.3936,6.7537,6.7351,6.5341,6.4293,0.0,0.0,0.0,0.0,0.0,0.0,0.0,6.2159,6.446,6.8141,7.1459,7.2289,7.2965,7.3044,7.1842,6.7456,6.248,5.8052,5.5659,5.2644,4.7205,4.7747,0.0,0.0,0.0,6.0655,6.3268,6.6389,6.8181,6.7724,6.7687,6.7687,6.7687,6.6953,6.6366,6.5999,6.453,6.3172,6.1998,5.8584,5.5214,0.0,0.0,0.0,0.0,0.0,0.0,0.0,0.0,0.0,0.0,0.0,0.0,0.0,0.0,0.0,0.0,0.0,0.0,0.0,0.0,0.0,0.0,0.0,0.0,0.0,0.0,0.0,0.0,5.5006,5.8526,5.8259,6.0102,5.9385,0.0,0.0,0.0,0.0,0.0,0.0,6.7673,7.0999,7.3991,7.6485,7.9287,8.1508,8.3034,8.4258,8.5214,8.5863,8.5863,8.6517,8.7704,8.7055,8.7017,8.7358,8.6709,8.5599,8.3835,7.8531,7.4976,7.2558,6.9629,6.8487,6.8756,7.0848,7.136,7.1573,7.5562,7.5456,7.3274,7.1799,6.8702,6.4834,6.0808,0.0,0.0,0.0,0.0,6.6588,6.9575,7.1804,7.3614,7.5089,7.5814,7.5707,7.3995,7.2549,7.0005,6.4812,6.3002,6.0257,5.3726,5.395,0.0,5.4787,5.9346,6.3518,6.5478,6.778,6.8987,6.8348,6.8145,6.8035,6.7981,6.7283,6.6806,6.6806,6.6256,6.5558,6.4751,6.2548,5.9905,5.6895,0.0,0.0,0.0,0.0,0.0,0.0,0.0,0.0,0.0,0.0,0.0,0.0,0.0,0.0,0.0,0.0,0.0,0.0,0.0,0.0,0.0,0.0,0.0,0.0,0.0,0.0,0.0,0.0,0.0,6.3154,6.6114,0.0,0.0,0.0,0.0,6.5666,6.8859,7.2227,7.5485,7.8852,8.1848,8.4258,8.6055,8.7396,8.8315,8.8392,8.8469,8.8507,8.8507,8.8546,8.8623,8.8598,8.8137,8.7396,8.7358,8.6819,8.5709,8.2227,7.9736,7.7954,7.6202,7.548,7.5595,7.6548,7.7385,7.8146,7.9223,7.8492,7.727,7.8729,7.5841,7.1552,7.0448,6.9036,0.0,0.0,7.1026,7.338,7.5139,7.5899,7.6408,7.7253,7.704,7.6399,7.5592,7.4676,7.2694,6.8285,6.6195,6.4359,6.1972,0.0,6.1122,6.2593,6.3768,6.5478,6.8304,6.9486,7.0035,6.9963,6.9301,6.886,6.8825,6.8091,6.7614,6.7614,6.7577,6.721,6.6402,6.4787,6.2732,6.0199,5.462,0.0,0.0,0.0,0.0,0.0,0.0,0.0,0.0,0.0,0.0,0.0,0.0,0.0,0.0,0.0,0.0,0.0,0.0,0.0,0.0,0.0,0.0,0.0,0.0,0.0,0.0,0.0,0.0,6.9289,7.1841,0.0,6.8064,6.9459,7.1429,7.337,7.6087,7.9083,8.2375,8.4253,8.5906,8.7295,8.7944,8.8406,8.8675,8.8675,8.8675,8.8675,8.8675,8.8979,8.944,8.8371,8.8025,8.8175,8.7055,8.6401,8.6017,8.483,8.3643,8.249,8.1343,8.092,8.0959,8.1228,8.1535,8.1837,8.2144,8.1497,8.0344,7.9292,7.737,7.534,7.4465,7.4158,7.4166,7.4482,7.5626,7.6878,7.7455,7.81,7.8523,7.8231,7.8438,7.8379,7.7192,7.6307,7.5255,7.3351,7.0369,6.7266,6.4694,6.4839,6.514,6.4684,6.661,6.8491,6.9551,7.0401,7.0641,7.0161,6.9831,6.9467,6.897,6.864,6.7998,6.699,6.6916,6.6549,6.5778,6.4677,6.3172,6.119,5.818,5.3482,0.0,0.0,0.0,0.0,0.0,0.0,0.0,0.0,0.0,0.0,0.0,0.0,0.0,0.0,0.0,0.0,0.0,0.0,0.0,0.0,0.0,0.0,0.0,0.0,0.0,6.7433,7.1941,7.2916,7.6398,7.7317,7.3752,7.5856,7.83,8.0261,8.2155,8.434,8.6829,8.7786,8.8517,8.9102,8.9371,8.9524,8.9524,8.9524,8.9524,8.9524,8.9524,8.9829,9.029,8.9178,8.8833,8.9056,8.7897,8.7242,8.6973,8.6632,8.6209,8.567,8.4791,8.4412,8.4412,8.4412,8.4412,8.4374,8.4143,8.3456,8.2419,8.0414,7.9223,7.8461,7.7923,7.8115,7.8577,7.8577,7.8992,7.9377,7.9377,7.9831,8.0023,7.9223,7.9309,7.9215,7.7789,7.7005,7.628,7.5674,7.3156,7.0302,6.8138,6.8401,6.8532,6.747,6.9153,7.0616,7.0893,7.139,7.15,7.0967,7.0433,6.9848,6.9376,6.8549,6.7647,6.6602,6.5962,6.5448,6.4934,6.3576,6.2328,6.1227,5.8841,5.506,4.9921,0.0,0.0,0.0,0.0,0.0,0.0,0.0,0.0,0.0,0.0,0.0,0.0,0.0,0.0,0.0,0.0,0.0,0.0,0.0,0.0,0.0,0.0,0.0,6.5295,7.0979,7.4849,7.4183,7.9824,8.2155,7.807,8.2117,8.533,8.617,8.6987,8.7875,8.8756,8.9486,8.9944,8.9944,9.0787,9.121,9.121,9.121,9.121,9.121,9.121,9.121,9.121,9.1171,9.0706,8.9888,8.985,8.9426,8.8623,8.7781,8.7435,8.7319,8.644,8.6094,8.6094,8.6094,8.6094,8.5978,8.5214,8.4374,8.349,8.2631,8.1855,8.117,8.1131,8.1131,8.1131,8.1093,8.1093,8.1093,8.1093,8.1093,8.0939,8.0254,7.9677,7.8846,7.7445,7.6645,7.5932,7.5174,7.4345,7.3529,7.2679,7.1924,7.139,7.1354,7.1354,0.0,7.2422,7.2496,7.2496,7.2496,7.1076,7.012,7.0083,6.7927,6.6492,6.6418,6.4949,6.4053,6.4053,6.1741,6.0493,6.0529,5.6602,5.4179,5.3408,0.0,0.0,0.0,0.0,0.0,0.0,0.0,0.0,0.0,0.0,0.0,0.0,0.0,0.0,0.0,0.0,0.0,0.0,0.0,0.0,0.0,6.8333,7.2861,7.2255,7.6824,8.0888,8.2496,8.5406,8.6863,8.5651,8.6838,8.7987,8.879,8.9063,8.9563,9.0444,9.0713,9.0864,9.0864,9.1095,9.121,9.121,9.121,9.121,9.121,9.121,9.121,9.1171,9.0521,9.0098,8.9863,8.9252,8.8906,8.8675,8.8444,8.7979,8.7319,8.644,8.6094,8.6094,8.6094,8.6094,8.6055,8.5863,8.5214,8.4484,8.4273,8.358,8.281,8.2163,8.197,8.1855,8.1246,8.1093,8.1093,8.1093,8.1093,8.0939,8.0254,7.9984,7.9619,7.8791,7.8102,7.7608,7.7389,7.6326,7.4969,7.3582,7.3178,7.2847,7.2218,7.2144,7.2218,7.2459,7.2496,7.2496,7.2496,7.1574,7.0731,7.0147,6.8402,6.6623,6.4867,6.3745,6.3149,6.3149,6.2487,6.2438,6.3062,5.9648,5.7776,0.0,0.0,0.0,0.0,0.0,0.0,0.0,0.0,0.0,0.0,0.0,0.0,0.0,0.0,0.0,0.0,0.0,0.0,0.0,0.0,0.0,0.0,7.4781,7.9051,8.001,8.2611,8.5137,8.6983,8.8363,8.921,8.9178,8.9524,9.0098,9.0941,9.1018,9.1364,9.2207,9.2245,9.2245,9.2245,9.1937,9.171,9.171,9.1364,9.121,9.121,9.121,9.121,9.1171,9.0675,9.0444,9.0406,8.9944,8.9752,8.9752,8.9332,8.8906,8.8325,0.0,0.0,0.0,0.0,8.6094,8.6094,8.6094,8.556,8.4907,8.4895,8.4318,8.3516,8.3016,8.2855,8.2771,8.2278,8.1893,8.1593,8.1593,8.1131,8.0561,8.0177,7.9705,7.9256,7.8914,7.8345,7.788,7.788,7.7169,0.0,7.4918,7.4448,7.3955,7.3104,7.2994,7.2884,7.2532,7.2496,7.2496,7.2496,7.1757,7.1101,7.0659,6.884,0.0,0.0,0.0,6.3064,6.2328,6.2631,0.0,0.0,0.0,0.0,0.0,6.4016,0.0,0.0,6.097,6.119,0.0,0.0,0.0,0.0,0.0,0.0,0.0,0.0,0.0,0.0,0.0,0.0,0.0,0.0,0.0,0.0,8.035,8.411,8.726,8.7829,8.8171,8.8756,8.9524,9.0098,9.0175,9.0902,9.1672,9.2553,9.263,9.2938,9.3631,9.3705,0.0,0.0,0.0,9.263,9.263,9.1748,9.1364,9.1364,9.1248,9.121,9.121,9.121,9.121,9.121,9.121,9.121,9.1133,9.0367,8.9983,8.9752,8.8017,8.6935,8.6247,8.6132,8.6094,8.6094,8.6094,0.0,0.0,8.506,8.4489,8.3874,8.3797,8.3747,8.3734,8.3618,8.3048,8.2432,8.2355,8.1362,8.0338,8.0217,7.9263,7.8419,7.8382,7.7806,7.7304,7.7304,7.7304,7.7059,7.6374,7.5565,7.4727,7.397,7.3823,7.3566,7.2884,7.2679,7.2642,7.2642,7.1851,0.0,7.1286,6.9154,6.7794,6.7714,6.5669,6.3886,6.2493,6.3268,6.4453,6.5946,6.688,6.8715,7.1578,7.3193,7.4074,7.4074,6.6769,6.6035,0.0,0.0,0.0,0.0,0.0,0.0,0.0,0.0,0.0,0.0,0.0,0.0,0.0,0.0,0.0,8.0568,8.4801,8.7948,8.9217,9.0633,9.1018,8.9829,9.0406,9.121,9.1937,9.2168,9.2592,9.3435,9.348,9.3522,9.3713,9.3713,9.3713,9.3713,9.3522,9.3443,9.3474,9.2669,9.2245,9.2245,9.1518,0.0,9.121,9.121,9.121,9.121,9.121,9.121,9.121,9.1018,9.0521,8.9752,8.8017,8.7319,8.705,8.6363,8.6094,8.6094,8.6094,8.6017,8.5863,8.5863,8.5747,8.5483,8.4868,8.4637,0.0,8.383,8.3451,8.3215,8.2701,8.2317,8.1834,8.084,7.9882,7.9142,7.8639,7.7916,7.7304,7.7304,7.7304,7.7268,7.7059,7.6399,7.5568,7.4811,7.4684,7.4601,7.4454,7.3881,7.3492,7.3492,7.2144,7.1317,7.1264,6.9665,6.8384,6.7757,6.7279,6.7163,6.7455,6.8879,6.9795,7.0144,7.1558,7.2606,7.323,7.4845,7.6313,7.7598,7.5322,7.4515,0.0,0.0,0.0,0.0,0.0,0.0,0.0,0.0,0.0,0.0,0.0,6.995,7.3721,0.0,8.1266,8.5032,8.8064,9.0252,9.1095,9.2322,9.263,9.1364,9.1937,9.263,9.3054,9.3095,9.348,9.4287,9.4328,9.4521,9.4982,9.502,9.502,9.502,9.456,9.4366,9.4326,9.3097,9.271,9.3089,9.2245,9.2091,9.2438,9.2053,9.1825,9.1825,9.1402,9.121,9.121,9.121,9.0941,9.0406,8.9171,8.8132,8.7358,8.6935,8.6478,8.6094,8.6094,8.6094,8.6094,8.6094,8.6094,8.6017,8.5599,8.5483,8.5406,8.4983,8.4297,8.3682,8.333,8.2449,8.1482,8.0825,8.0194,7.9543,7.929,7.8529,7.7953,7.7953,7.7598,7.7304,7.7304,7.6986,7.6448,7.5592,7.5519,7.5382,7.4955,7.4529,7.4294,7.4286,7.3566,7.3104,7.3104,7.1998,7.0951,7.0146,7.011,7.0294,7.0696,7.1851,7.2871,7.3676,7.4904,7.5909,7.6729,7.7965,7.8993,7.98,7.9764,7.9323,0.0,0.0,0.0,0.0,0.0,0.0,0.0,6.5187,6.6955,7.1957,7.4751,7.7262,8.0568,8.3144,8.5681,8.8487,9.0329,9.171,9.2402,9.3207,9.3477,9.2787,9.3323,9.3746,9.3939,9.3943,9.4291,9.5174,9.5251,9.5558,9.6249,9.6288,9.6288,9.6288,9.5597,9.5251,9.5251,9.3753,9.3328,9.3936,9.313,9.3092,9.3669,9.3054,9.2746,9.2669,9.2014,9.1595,9.1441,9.1441,9.1364,9.1133,9.0406,8.9248,8.7897,8.7704,8.7089,8.6363,8.6363,8.6247,8.6094,8.6094,8.6094,8.6094,8.6094,8.6094,8.6094,8.6094,8.5253,8.4268,8.4022,8.2706,8.1285,8.1065,8.0487,8.0011,8.0037,7.9301,7.8614,7.8603,7.7916,7.7378,7.7524,7.7414,7.7059,7.6448,7.6338,7.6093,7.5446,7.5263,7.5104,7.5132,7.4985,7.4911,7.4911,7.4338,7.3634,7.3025,7.2988,7.3098,7.3413,7.4055,7.5165,7.6759,7.761,7.8699,8.003,8.0865,8.1232,8.1269,8.1893,8.1856,5.8867,6.0117,6.2226,6.6836,6.6289,6.7578,0.0,7.8548,7.7265,8.2227,8.4061,8.4868,8.5343,8.6915,8.8525,8.9598,9.121,9.2402,9.2523,9.3215,9.3676,9.3561,9.3637,9.3983,9.4789,9.4866,9.5212,9.6095,9.6172,9.6211,9.6288,9.6288,9.6288,9.6288,9.6211,9.6172,9.6172,9.5212,9.4749,9.4856,9.398,9.3599,9.3676,9.3599,9.3559,9.3551,9.3474,9.2977,9.2361,9.2361,9.1899,9.121,9.1095,9.0444,8.9521,8.882,8.8007,8.7242,8.7242,8.6748,8.6094,8.6094,8.6094,8.6094,8.6094,8.6094,8.6094,8.6094,8.5978,8.559,8.4442,8.3962,8.3492,8.2296,8.1461,8.0882,8.0846,7.9654,7.8592,7.8578,7.7916,7.7524,7.8345,7.7843,7.7304,7.7169,7.7133,7.7096,7.7023,7.6411,7.5947,7.5971,7.5324,7.4897,7.4897,7.4824,7.4751,7.4616,7.4616,7.5287,7.6717,7.6839,7.7708,7.9349,8.0194,8.0645,8.0901,8.1672,8.2076,8.2076,8.215,8.215,6.8906,6.9687,7.0195,7.4219,7.5469,7.7172,8.2715,8.2907,8.2894,8.6377,8.7752,8.8329,8.8333,8.9294,9.0252,9.0598,9.2091,9.3018,9.2563,9.3178,9.3522,9.3059,9.2559,9.2982,9.4828,9.502,9.5366,9.6249,9.6288,9.6288,9.6288,9.6288,9.6288,9.6288,9.6288,9.6288,9.6288,9.5443,9.5249,9.5747,9.4866,9.4751,9.5212,9.4712,9.4174,9.3672,9.3213,9.2828,9.2482,9.1941,9.1518,9.121,9.121,9.0979,9.0521,8.971,8.8863,8.806,8.7589,8.7166,8.6781,8.6247,8.6094,8.6094,8.6094,8.6094,8.6094,8.6094,8.5824,8.5389,8.4854,8.4181,8.3456,8.2913,8.2223,8.1681,8.1681,8.0846,8.0003,8.0014,7.929,7.8885,7.9216,7.8993,7.872,7.875,7.7916,7.7304,7.7304,7.6986,7.6803,7.6803,7.6484,7.6301,7.6301,7.6766,7.7023,7.7023,7.7488,7.8027,7.8713,7.8746,7.9306,8.0507,8.0837,8.1204,8.1709,8.2039,8.2186,8.2186,8.2186,8.2186,7.4453,7.5664,7.6406,7.9922,8.2628,8.4649,8.539,8.6184,8.7264,8.9025,8.9675,8.9906,8.9906,9.0213,9.0559,9.0825,9.2091,9.2787,9.2217,9.264,9.2713,9.1861,9.1014,9.1287,9.3403,9.402,9.4789,9.5865,9.5942,9.6057,9.6288,9.6288,9.6288,9.6288,9.6288,9.6288,9.6288,9.5674,9.5674,9.6288,9.5635,9.5674,9.6288,9.5635,9.502,9.4368,9.3791,9.3407,9.3136,9.2518,9.213,9.1864,9.1633,9.1556,9.1441,9.0559,8.9752,8.8948,8.8325,8.7781,8.7319,8.6632,8.6286,8.6094,8.6094,8.6094,8.6094,8.6094,8.5747,8.533,8.5137,8.4316,8.343,8.3245,8.2692,8.2186,8.2186,8.1571,8.0984,8.0982,8.0357,7.9853,8.0073,7.9957,7.9865,8.011,7.8883,7.7976,7.799,7.799,7.799,7.799,7.799,7.799,7.799,7.8566,7.8934,7.8919,7.9459,7.9889,8.0073,8.0177,8.0524,8.1285,8.1351,8.1607,8.2186,8.2186,8.2186,8.2186,8.2186,8.2186,7.2344,7.5,7.9023,8.3281,8.5966,8.7983,8.9636,9.0521,9.1056,9.1133,9.0444,8.9906,8.9906,8.9255,8.9025,8.9829,9.0675,9.129,9.1258,9.1254,9.0975,9.0081,8.9272,8.9085,8.9965,9.1559,9.3254,9.4943,9.5058,9.5405,9.6249,9.6288,9.6288,9.6288,9.6288,9.6288,9.6288,9.6288,9.6288,9.6288,9.6288,9.6288,9.6288,9.6288,9.6249,9.6211,9.6211,9.5709,9.4933,9.4895,9.4394,9.3551,9.2746,9.2476,9.2361,9.1479,9.0598,8.9867,8.9829,8.8748,8.7396,8.7358,8.6819,8.6094,8.6094,8.6094,8.6094,8.6094,8.6094,8.594,8.5253,8.4609,8.402,8.3335,8.2692,8.2186,8.2186,8.1571,8.0992,8.0992,8.0341,8.0019,8.0846,8.0341,8.0056,8.0846,8.0268,7.9746,7.9694,7.9719,7.9719,7.9719,7.9719,7.9719,7.9719,7.9719,7.9779,7.9763,7.98,8.0194,8.0919,8.0955,8.1387,8.215,8.215,8.2186,8.2186,8.2186,8.2186,8.2186,8.2186,8.2186,7.9258,8.1875,8.4202,8.8381,9.0256,9.1218,9.1602,9.1905,9.171,9.0559,8.9713,8.8756,8.7598,8.7632,8.794,8.8209,8.9902,9.121,9.1213,9.1668,9.1313,8.9349,8.9349,8.9195,8.8315,8.9787,9.1713,9.3977,9.4136,9.502,9.698,9.7133,9.7364,9.7941,9.7402,9.7133,9.7133,9.6557,9.6288,9.6288,9.6288,9.6288,9.6288,9.6288,9.6288,9.6288,9.5674,9.5288,9.4941,9.4403,9.3943,9.3636,9.2792,9.2482,9.2399,9.1518,9.1018,9.0675,9.0098,8.9521,8.8902,8.7781,8.7204,8.6858,8.6286,8.6094,8.6094,8.6094,8.6094,8.594,8.5253,8.4676,8.4022,8.3395,8.2692,8.2186,8.2186,8.2003,8.1791,8.1791,8.1571,8.1497,8.1717,8.1571,8.1497,8.1754,8.0634,7.9763,7.9783,7.981,7.981,7.981,7.981,7.981,7.981,8.025,8.058,8.0597,8.1102,8.1534,8.1754,8.1791,8.1929,8.2186,8.2186,8.2186,8.2186,8.2186,8.2186,8.2186,8.2186,8.2186,8.4062,8.6211,8.7654,9.2141,9.3213,9.3101,9.2947,9.2482,9.1364,8.9025,8.7414,8.5911,8.4176,8.3824,8.4395,8.6209,8.8098,8.9829,9.1056,9.1934,9.1775,8.9825,9.0047,8.9927,8.8859,8.9744,9.1168,9.3123,9.4095,9.5443,9.7402,9.7788,9.8211,9.875,9.7942,9.7519,9.7518,9.6673,9.6288,9.6288,9.6288,9.6288,9.6288,9.6288,9.6288,9.6288,9.5712,9.5443,9.5405,9.4866,9.4635,9.4521,9.3714,9.3213,9.2823,9.1976,9.1479,9.1095,9.0252,8.979,8.9329,8.7983,8.7363,8.7012,8.6363,8.617,8.6094,8.5824,8.5747,8.556,8.4945,8.4327,8.3747,8.3275,8.2692,8.2186,8.2186,8.2186,8.2186,8.2186,8.2186,8.2186,8.2186,8.2186,8.2186,8.2186,8.1285,8.0634,8.0634,8.0634,8.0634,8.0634,8.0634,8.0634,8.0634,8.1102,8.1461,8.1461,8.1929,8.2186,8.2186,8.2186,8.2186,8.2186,8.2186,8.2186,8.2186,8.2186,8.2186,8.2186,8.2186,8.2186,8.6562,8.8086,8.9567,9.4497,9.4712,9.3676,9.3599,9.2213,8.9983,8.6572,8.3807,8.1497,7.9677,7.8284,7.9015,8.3868,8.557,8.7456,9.079,9.2018,9.2326,9.1412,9.1437,9.1429,9.1325,9.1433,9.1848,9.2652,9.4898,9.6634,9.7595,9.8404,9.8904,9.8942,9.8096,9.7635,9.7633,9.6788,9.6326,9.6288,9.6288,9.6288,9.6288,9.6288,9.6288,9.6288,9.6288,9.6288,9.6288,9.6288,9.6288,9.6211,9.5251,9.4364,9.3551,9.263,9.1787,9.1018,9.0252,8.9566,8.8842,8.8038,8.7231,8.6572,8.6342,8.6257,8.6017,8.5253,8.5032,8.4925,8.4314,8.3703,8.3198,8.3162,8.2655,8.2186,8.2186,8.2186,8.2186,8.2186,8.2186,8.2186,8.2186,8.2186,8.2186,8.2186,8.2186,8.2186,8.2186,8.2186,8.2186,8.2186,8.2186,8.2186,8.2186,8.2186,8.2186,8.2186,8.2186,8.2186,8.2186,8.2186,8.2186,8.2186,8.2186,8.2186,8.2186,8.2186,8.2186,8.2186,8.2186,8.2186,9.0117,9.25,9.4063,9.5347,9.4712,9.3368,9.2098,8.9524,8.6419,8.3043,8.0362,7.7467,7.3819,7.6467,7.9582,8.0876,8.5493,8.9719,9.1833,9.3443,9.4059,9.3139,0.0,9.448,9.3176,9.4749,9.5745,9.5363,9.5326,9.652,9.9288,9.9673,10.0019,10.0596,9.9865,9.9442,9.9441,9.7941,9.6865,9.6288,9.6288,9.6288,9.6288,9.6288,9.6288,9.6288,9.6288,9.6288,9.6288,9.6288,9.6288,9.6095,9.406,9.3176,9.2715,9.0713,8.9829,8.9524,8.8871,8.9117,8.9533,8.8219,8.7227,8.6482,8.5827,8.5177,8.4714,8.4489,8.443,8.4273,8.3619,8.3325,8.3088,8.2582,8.2296,8.2186,8.2186,8.2186,8.2186,8.2186,8.2186,8.2186,8.2186,8.2186,8.2186,8.2186,8.2186,8.2186,8.2186,8.2186,8.2186,8.2186,8.2186,8.2186,8.2186,8.2186,8.2186,8.2186,8.2186,8.2186,8.2186,8.2186,8.2186,8.2186,8.2186,8.2186,8.2186,8.2186,8.2186,8.2186,8.2186,8.2186,9.3198,9.52,9.6172,9.5718,9.4362,9.2357,8.9151,8.6082,8.2401,7.7169,7.4665,7.2109,6.7826,7.158,7.5826,7.7291,8.3581,8.9261,9.2102,9.4598,9.5943,9.5406,9.6597,9.702,9.6021,9.725,9.8057,9.7943,9.752,9.8096,10.0019,10.0404,10.0788,10.1289,10.048,9.9711,9.8942,9.8018,9.7133,9.6288,9.6288,9.6288,9.6288,9.6288,9.6288,9.6288,9.6288,9.6288,9.6288,9.6288,9.6134,9.5674,9.4329,9.3387,9.2569,9.1206,9.0259,8.9528,8.8835,8.8912,8.9003,8.7835,8.7142,8.6628,8.5778,8.5148,8.4647,8.3956,8.3751,8.3631,8.2913,8.2766,8.2692,8.226,8.2186,8.2186,8.2186,8.2186,8.2186,8.2186,8.2186,8.2186,8.2186,8.2186,8.2186,8.2186,8.2186,8.2186,8.2186,8.2186,8.2186,8.2186,8.2186,8.2186,8.2186,8.2186,8.2186,8.2186,8.2186,8.2186,8.2186,8.2186,8.2333,8.2729,8.2729,8.2876,8.3235,8.3235,8.3088,8.2729,8.2729,8.2729,9.5679,9.6543,9.6539,9.5339,9.3431,9.0526,8.5526,8.1975,7.7703,7.0527,6.8135,6.6206,6.232,6.5923,7.0661,7.4165,8.0907,8.7343,9.1871,9.5175,9.7289,9.7635,9.8442,9.9019,9.9134,9.9134,9.9442,10.0211,10.0288,10.0288,10.0288,10.0904,10.1289,10.1289,10.0596,9.948,9.7865,9.7865,9.7441,9.6634,9.6634,9.6634,9.6634,9.6634,9.6634,9.6634,9.6634,9.6557,9.6442,9.6442,9.598,9.5175,9.4939,9.3978,9.2631,9.2446,9.1422,9.0103,8.9514,8.8819,8.8014,8.7215,8.6958,8.6664,8.5869,8.5456,8.5013,8.3631,8.3162,8.2913,8.2333,8.2186,8.2186,8.2186,8.2186,8.2186,8.2186,8.2186,8.2186,8.2186,8.2186,8.2186,8.2186,8.2186,8.2186,8.2186,8.226,8.2296,8.2186,8.2186,8.2186,8.2186,8.2186,8.2186,8.2186,8.2186,8.2186,8.2186,8.2186,8.2223,8.2333,8.2333,8.2729,8.3492,8.3566,8.3897,8.4588,8.4588,8.4257,8.3537,8.3566,8.3529,9.6753,9.6531,9.5486,9.3697,9.0774,8.714,8.2767,7.7048,7.1286,6.6466,6.3681,6.1456,5.9348,6.4243,6.9986,7.4034,7.9953,8.6022,9.1675,9.4176,9.6213,9.8327,9.9327,10.0096,10.0788,10.0904,10.0904,10.1096,10.1096,10.1096,10.1096,10.1212,10.1289,10.1289,10.1212,10.0596,9.9673,9.9634,9.921,9.8401,9.8401,9.8401,9.8401,9.8401,9.8401,9.8401,9.8401,9.7941,9.7287,9.7287,9.648,9.5099,9.3701,9.2627,9.1729,9.0447,8.9788,8.9531,8.9412,8.8856,8.8088,8.7252,8.6559,8.5976,8.5825,8.486,8.3742,8.3419,8.2876,8.2333,8.2223,8.2186,8.2186,8.2186,8.2186,8.2186,8.2186,8.2186,8.2186,8.2186,8.2186,8.2186,8.2186,8.2186,8.2186,8.2186,8.2766,8.2913,8.226,8.2186,8.2186,8.2186,8.2186,8.2186,8.2186,8.2186,8.2186,8.2186,8.2186,8.2508,8.3162,8.3198,8.3594,8.4396,8.4358,8.4479,8.4589,8.4589,8.4515,8.4405,8.4412,8.4396,9.6773,9.639,9.5091,9.313,8.9662,8.5036,7.8604,7.2868,6.7209,6.1224,5.9006,5.7615,5.5955,6.1166,6.659,6.9052,7.5168,8.1862,8.8286,9.1367,9.4443,9.8365,9.9904,10.0904,10.1289,10.1289,10.1289,10.1289,10.1289,10.1289,10.1289,10.1289,10.1289,10.1289,10.1289,10.0904,10.0096,10.0096,9.9635,9.8827,9.8827,9.8827,9.8827,9.8827,9.8827,9.8827,9.8827,9.8557,9.8173,9.8172,9.7019,9.5175,9.4409,9.3125,9.1657,9.096,9.0411,9.0044,9.0005,8.9491,8.8759,8.8349,8.7468,8.6375,8.594,8.5275,8.4535,8.4146,8.3778,8.3419,8.3419,8.3419,8.3419,8.3419,8.3419,8.3309,8.2876,8.2802,8.2692,8.226,8.2186,8.2296,8.2729,8.2802,8.2949,8.3382,8.3778,8.3897,8.3484,8.3434,8.3162,8.226,8.2186,8.2333,8.2766,8.2802,8.3014,8.3419,8.3419,8.3631,8.3999,8.3985,8.4358,8.5227,8.5207,8.5431,8.5866,8.5866,8.5614,8.5248,8.5233,8.5227,9.6372,9.5961,9.4631,9.271,8.8705,8.3156,7.5053,6.9475,6.4012,5.6896,5.5164,5.4587,5.3664,5.8127,6.2666,6.4782,7.0783,7.7669,8.4863,8.9094,9.3249,9.7942,10.0212,10.1289,10.1289,10.1289,10.1289,10.1289,10.1289,10.1289,10.1289,10.1289,10.1289,10.1289,10.1289,10.1019,10.0404,10.0404,10.0019,9.9326,9.9326,9.9326,9.9326,9.9326,9.9326,9.9326,9.9326,9.925,9.9057,9.8865,9.7519,9.5519,9.5219,9.3823,9.2024,9.184,9.1363,9.0887,9.0887,9.0337,8.9642,8.9635,8.8603,8.7142,8.6522,8.605,8.5646,8.5037,8.4772,8.4559,8.4559,8.4559,8.4559,8.4559,8.4559,8.4412,8.3794,8.3676,8.3419,8.2619,8.2619,8.2839,8.3309,8.35,8.3868,8.4485,8.4772,8.4786,8.4593,8.4756,8.4301,8.2854,8.27,8.2876,8.3345,8.3537,8.3904,8.4522,8.4559,8.4698,8.4845,8.4908,8.5248,8.6013,8.605,8.6375,8.6995,8.6995,8.6669,8.605,8.605,8.6123,9.563,9.5052,9.3746,9.1825,8.694,8.0823,7.3899,6.7244,6.105,5.5703,5.3356,5.2702,5.4126,5.6126,5.9627,6.5859,7.0052,7.5476,8.3862,8.9248,9.3672,9.7211,9.9788,10.1289,10.1289,10.1289,10.1289,10.1289,10.1289,10.1289,10.1289,10.1289,10.1289,10.1289,10.1289,10.1289,10.1212,10.1212,10.1096,10.1096,10.1096,10.1096,10.1096,10.1096,10.1096,10.1096,10.1096,10.0673,9.9942,9.9173,9.7865,9.6243,9.4894,9.3749,9.2904,9.2133,9.1767,9.1693,9.1693,9.1143,9.0484,9.0447,8.9417,8.8088,8.8051,8.6958,8.5793,8.5683,8.5138,8.4556,8.4556,8.4556,8.4556,8.4556,8.4556,8.4556,8.4483,8.4462,8.4285,8.3419,8.3889,8.4212,8.3492,8.4028,8.4483,8.4556,8.5243,8.5463,8.4703,8.5211,8.5353,8.4447,8.4382,8.4073,8.3456,8.4101,8.4483,8.4556,8.4556,8.4918,8.5646,8.5683,8.605,8.6885,8.6921,8.6958,8.6995,8.6995,8.6958,8.6921,8.6921,8.7252,9.3196,9.3518,9.2672,9.0864,8.5555,7.9169,7.286,6.5782,5.9242,5.4664,5.2741,5.2279,5.351,5.5088,5.778,6.2551,6.4897,6.8898,7.6899,8.1516,8.6478,9.2941,9.6442,9.9096,10.1096,10.1289,10.1289,10.1289,10.1289,10.1289,10.1289,10.1289,10.1289,10.1289,10.1289,10.1289,10.1289,10.1289,10.1289,10.1289,10.1289,10.1289,10.1289,10.1289,10.1289,10.1289,10.1289,10.1096,10.0788,10.0019,9.8725,9.7155,9.6064,9.4632,9.3051,9.2757,9.228,9.1803,9.1803,9.162,9.129,9.129,9.052,8.9454,8.846,8.7431,8.6522,8.6522,8.6302,8.6013,8.6013,8.6013,8.6013,8.6013,8.6013,8.5903,8.5431,8.5348,8.5086,8.4321,8.4345,8.4625,8.4829,8.5097,8.5467,8.5976,8.6339,8.6412,8.6086,8.6339,8.6159,8.5394,8.486,8.4661,8.4829,8.5133,8.5504,8.6013,8.6013,8.6159,8.6522,8.6522,8.6669,8.6995,8.7504,8.7504,8.6995,8.7504,8.7725,8.7725,8.7725,8.8162,9.0378,9.1518,9.1325,8.9594,8.4247,7.7861,7.1898,6.482,5.8357,5.4395,5.2702,5.2241,5.3395,5.4549,5.6549,6.0204,6.1935,6.5513,7.3168,7.7553,8.2708,8.994,9.3595,9.6749,9.9865,10.0904,10.1289,10.1289,10.1289,10.1289,10.1289,10.1289,10.1289,10.1289,10.1289,10.1289,10.1289,10.1289,10.1289,10.1289,10.1289,10.1289,10.1289,10.1289,10.1289,10.1289,10.1289,10.1289,10.1212,10.0211,9.919,9.8014,9.6759,9.5254,9.375,9.3309,9.2867,9.2464,9.195,9.195,9.217,9.1877,9.1253,9.0374,8.9234,8.8202,8.7288,8.7068,8.6995,8.6995,8.6995,8.6995,8.6995,8.6995,8.6995,8.6885,8.6302,8.6123,8.5903,8.5138,8.5159,8.5404,8.572,8.5976,8.6375,8.6921,8.6995,8.6995,8.6995,8.6995,8.6742,8.6265,8.5631,8.5478,8.5756,8.6013,8.6412,8.6958,8.6995,8.6995,8.6995,8.6995,8.7105,8.7325,8.7872,8.8056,8.7732,8.8276,8.8529,8.8529,8.857,8.9011,8.7329,8.8979,8.9517,8.7825,8.2939,7.6976,7.1052,6.4436,5.855,5.5164,5.3126,5.2433,5.4164,5.4511,5.5895,6.0089,6.2935,6.7244,7.4899,8.0362,8.5132,8.9402,9.2172,9.4711,9.7288,9.9827,10.1289,10.1289,10.1289,10.1289,10.1289,10.1289,10.1289,10.1289,10.1289,10.1289,10.1289,10.1289,10.1289,10.1289,10.1289,10.1289,10.1289,10.1289,10.1289,10.1289,10.1289,10.1289,10.1212,9.9673,9.9,9.8753,9.6465,9.5468,9.5248,9.3676,9.3602,9.408,9.239,9.2354,9.2941,9.2133,9.1253,9.0594,9.0557,8.9454,8.8051,8.7215,8.6995,8.6995,8.6995,8.6995,8.6995,8.6995,8.6995,8.6995,8.6995,8.6995,8.6705,8.594,8.6449,8.6705,8.594,8.6449,8.6995,8.6995,8.6995,8.6995,8.6995,8.6995,8.6995,8.6995,8.6995,8.6632,8.5866,8.6522,8.6995,8.6995,8.6995,8.6995,8.6995,8.6995,8.7325,8.8198,8.8198,8.861,8.935,8.9378,8.9403,8.9403,8.942,8.9825,7.8604,7.9987,8.0217,7.7888,7.502,7.1459,6.6584,6.2463,5.8726,5.5203,5.4049,5.3857,5.4395,5.4934,5.728,6.332,6.4974,6.7936,7.5014,8.04,8.4939,8.8632,9.4903,9.9211,10.0019,10.0789,10.1289,10.1289,10.1289,10.1289,10.1289,10.1289,10.1289,10.1289,10.1289,10.1289,10.1289,10.1289,10.1289,10.1289,10.1289,10.1289,10.1289,10.1289,10.1289,10.1289,10.1289,10.1289,10.1212,10.0211,9.9493,9.8864,9.757,9.6465,9.5431,9.4921,9.4554,9.4261,9.3709,9.3307,9.3051,9.2794,9.2133,9.129,9.074,8.9491,8.8051,8.7215,8.6995,8.6995,8.6995,8.6995,8.6995,8.6995,8.6995,8.6995,8.6995,8.6995,8.6958,8.6669,8.6848,8.6958,8.6632,8.6848,8.6995,8.6995,8.6995,8.6995,8.6995,8.6995,8.6995,8.6995,8.6995,8.6921,8.6632,8.6885,8.6995,8.6995,8.7541,8.7798,8.7798,8.8345,8.8782,8.9003,8.9598,8.9678,8.9386,8.997,9.0225,9.0225,9.0777,9.118,7.1659,7.3712,7.4098,7.2157,7.014,6.7679,6.3931,6.0596,5.7588,5.5011,5.4241,5.4126,5.4434,5.5164,5.7511,6.3051,6.4512,6.7398,7.4514,7.99,8.4978,8.9979,9.6095,9.9865,9.9865,10.0712,10.1289,10.1289,10.1289,10.1289,10.1289,10.1289,10.1289,10.1289,10.1289,10.1289,10.1289,10.1289,10.1289,10.1289,10.1289,10.1289,10.1289,10.1289,10.1289,10.1289,10.1289,10.1289,0.0,10.048,9.9733,9.8932,9.8133,9.7016,9.5948,9.5578,9.5395,9.5138,9.4549,9.4149,9.3933,9.3309,9.2501,9.1657,9.0813,8.9454,8.8125,8.7615,8.7468,8.7362,8.7068,8.7215,8.7362,8.7068,8.6995,8.6995,8.6995,8.6995,8.6995,8.6995,8.6995,8.6995,8.6995,8.6995,8.6995,8.6995,8.6995,8.6995,8.6995,8.6995,8.7105,8.7468,8.7468,8.7578,8.7872,8.7325,8.6995,8.6995,8.7762,8.8202,8.8209,8.894,8.9525,8.9889,9.0336,9.0521,9.0337,9.0777,9.107,9.107,9.1583,9.1803,0.0,6.917,7.0114,6.9166,6.7285,6.4924,6.2267,5.8703,0.0,5.4626,5.3818,5.3626,5.4741,5.5472,5.7126,6.0973,6.2935,6.6551,7.4091,7.9746,8.5863,9.3364,9.6326,9.7788,9.7788,9.9904,10.1289,10.1289,10.1289,10.1289,10.1289,10.1289,10.1289,10.1289,10.1289,10.1289,10.1289,10.1289,10.1289,10.1289,10.1289,10.1289,10.1289,10.1289,10.1289,10.1289,10.1289,10.1289,10.1212,10.0596,9.9801,9.8966,9.8197,9.7429,9.6612,9.5875,9.6058,9.6502,9.4878,9.4805,9.5178,9.3529,9.2464,9.1657,9.0958,8.9598,8.8382,8.8309,8.8309,8.8056,8.7288,8.7651,8.8051,8.7178,8.6995,8.6995,8.6995,8.6995,8.6995,8.6995,8.6995,8.6995,8.6995,8.7068,8.7105,8.7105,8.7105,8.7105,8.7142,8.7105,8.7362,8.8198,8.8309,8.8603,8.9334,8.8019,8.7178,8.7178,8.7909,8.839,8.8399,8.9167,8.9935,9.0667,9.0667,9.107,9.1803,9.1803,9.1803,9.1803,9.184,9.184,5.6836,0.0,5.9699,5.8176,5.8332,5.8309,0.0,5.5907,5.563,5.3857,5.3857,5.5241,5.8704,5.8434,6.0281,6.8244,6.986,7.2322,7.8707,8.617,9.3133,9.8827,10.0019,10.0404,10.0404,10.0904,10.1289,10.1289,10.1289,10.1289,10.1289,10.1289,10.1289,10.1289,10.1289,10.1289,10.1289,10.1289,10.1289,10.1289,10.1289,10.1289,10.1289,10.1289,10.1289,10.1289,10.1289,10.1289,10.1289,10.1096,10.0183,9.8949,9.8778,9.7881,9.6685,9.6502,9.6575,9.6575,9.5584,9.496,9.4336,9.2611,9.195,9.1767,9.1583,9.0849,8.9896,8.9307,8.9087,8.894,8.8173,8.8059,8.8051,8.7178,8.6995,8.6995,8.6995,8.6995,8.6995,8.6995,8.6995,8.6995,8.6995,8.7541,8.7909,8.7909,8.7909,8.8162,8.8782,8.8309,8.8235,8.9003,8.9124,8.9238,8.9385,8.9047,8.8856,8.8856,8.9588,9.007,9.0008,9.0777,9.129,9.1546,9.1546,9.162,9.1803,9.1803,9.1803,9.1803,9.2464,9.2427,5.2695,5.5508,5.8125,5.7187,5.7656,5.8042,5.6823,5.5428,5.4187,5.3356,5.3895,5.5434,5.8473,5.9896,6.2781,6.9398,7.2091,7.6245,8.4555,9.1018,9.648,10.0789,10.1289,10.1289,10.1289,10.1289,10.1289,10.1289,10.1289,10.1289,10.1289,10.1289,10.1289,10.1289,10.1289,10.1289,10.1289,10.1289,10.1289,10.1289,10.1289,10.1289,10.1289,10.1289,10.1289,10.1289,10.1289,10.1289,10.1289,10.1289,10.0375,9.9007,9.8998,9.8054,9.6649,9.6282,9.6135,9.6025,9.5217,9.441,9.3602,9.2684,9.2134,9.1803,9.1803,9.1546,9.096,9.0188,8.9968,8.9784,8.8979,8.872,8.8529,8.7725,8.7252,8.6995,8.6995,8.6995,8.6995,8.6995,8.6995,8.7105,8.7504,8.7872,8.8313,8.8649,8.8723,8.8904,8.9297,8.9003,8.9044,8.9856,8.997,9.0081,9.0484,9.0482,9.022,8.9417,9.0184,9.059,9.0594,9.1327,9.1803,9.1803,9.1803,9.1803,9.1803,9.2207,9.239,9.2427,9.3235,9.3382,5.2226,5.6669,6.087,5.9725,5.9922,6.0229,5.956,5.6063,5.3051,5.3664,5.4472,5.5857,5.8434,6.1858,6.5628,6.9667,7.3899,8.0246,9.0517,9.4595,9.7673,10.0904,10.1289,10.1289,10.1289,10.1289,10.1289,10.1289,10.1289,10.1289,10.1289,10.1289,10.1289,10.1289,10.1289,10.1289,10.1289,10.1289,10.1289,10.1289,10.1289,10.1289,10.1289,10.1289,10.1289,10.1289,10.1289,10.1289,10.1289,10.1289,10.0375,9.8987,9.898,9.7961,9.6428,9.5731,9.5401,9.5217,9.441,9.3565,9.2905,9.2905,9.2391,9.1803,9.1803,9.1803,9.1657,9.0996,9.0776,9.0555,8.9786,8.9598,8.9371,8.8456,8.7725,8.7178,8.7031,8.6995,8.6995,8.6995,8.7105,8.7399,8.8125,8.8419,8.8793,8.9495,8.9532,8.9641,8.9776,8.9665,8.9889,9.0703,9.074,9.107,9.173,9.1803,9.1217,8.9862,9.0411,9.074,9.074,9.14,9.1803,9.1803,9.1803,9.1803,9.1803,9.2647,9.3125,9.3125,9.4007,9.4448,5.5898,6.0644,6.302,5.6567,5.7695,5.9759,5.7323,5.6178,5.5763,5.6319,5.7126,5.9781,6.6513,6.8282,7.1014,7.8015,8.2708,8.7825,9.4557,9.6557,9.8327,10.1019,10.1289,10.1289,10.1289,10.1289,10.1289,10.1289,10.1289,10.1289,10.1289,10.1289,10.1289,10.1289,10.1289,10.1289,10.1289,10.1289,10.1289,10.1289,10.1289,10.1289,10.1289,10.1289,10.1289,10.1289,10.1289,10.1289,10.1289,10.1289,10.0375,9.9007,9.9024,9.7657,9.5694,9.5547,9.507,9.4373,9.3565,9.2721,9.1987,9.1987,9.1913,9.1803,9.1803,9.1803,9.1767,9.1657,9.162,9.1436,9.0667,9.0447,9.0043,8.8539,8.8099,8.7806,8.7178,8.6995,8.6995,8.6995,8.7549,8.8062,8.8166,8.9307,9.0227,9.0411,9.0447,9.0631,9.1326,9.0849,9.0703,9.1546,9.162,9.1693,9.1803,9.1803,9.1693,9.14,9.1583,9.162,9.162,9.173,9.1803,9.1803,9.1803,9.1803,9.1803,9.2647,9.3125,9.3155,9.4625,9.4955,5.4414,5.9157,6.2586,5.9457,6.2899,6.6585,6.4713,6.2882,6.1733,6.2358,6.3166,6.5243,7.0167,7.2899,7.6976,8.4632,8.9017,9.2787,9.6442,9.8096,9.9481,10.1096,10.1289,10.1289,10.1289,10.1289,10.1289,10.1289,10.1289,10.1289,10.1289,10.1289,10.1289,10.1289,10.1289,10.1289,10.1289,10.1289,10.1289,10.1289,10.1289,10.1289,10.1289,10.1289,10.1289,10.1289,10.1289,10.1289,10.1289,10.1289,10.0069,9.8328,9.8328,9.6938,9.4813,9.4373,9.3675,9.2905,9.2537,9.2134,9.1803,9.1803,9.1803,9.1803,9.1803,9.1803,9.1803,9.1803,9.1803,9.173,9.1327,9.0923,9.041,8.964,8.8867,8.8096,8.7762,8.7655,8.7622,8.7659,8.8248,8.9016,8.9454,9.0115,9.0776,9.118,9.1253,9.1363,9.1767,9.151,9.1363,9.1767,9.1803,9.1803,9.1803,9.1803,9.1803,9.1803,9.1803,9.1803,9.1803,9.1803,9.1803,9.1803,9.1803,9.1987,9.2501,9.3309,9.397,9.4399,9.5578,9.5948,5.3711,5.7998,6.2298,6.3855,6.7909,7.1591,7.1763,6.9306,6.7483,6.914,6.986,7.1014,7.3783,7.8054,8.3362,9.0017,9.3787,9.648,9.8134,9.9519,10.0596,10.1212,10.1289,10.1289,10.1289,10.1289,10.1289,10.1289,10.1289,10.1289,10.1289,10.1289,10.1289,10.1289,10.1289,10.1289,10.1289,10.1289,10.1289,10.1289,10.1289,10.1289,10.1289,10.1289,10.1289,10.1289,10.1289,10.1289,10.1327,10.0901,9.9593,9.7762,9.74,9.5921,9.3932,9.3088,9.2354,9.1803,9.1803,9.1803,9.1803,9.1803,9.1803,9.1803,9.1803,9.1803,9.1803,9.1803,9.1803,9.1803,9.1803,9.1326,9.0849,9.0629,8.9528,8.8463,8.846,8.8169,8.8026,8.8429,8.8979,8.964,9.0482,9.0774,9.1105,9.1693,9.1803,9.1803,9.1803,9.1803,9.1803,9.1803,9.1803,9.1803,9.1803,9.1803,9.1803,9.1803,9.1803,9.1803,9.1803,9.1803,9.1803,9.1803,9.1803,9.217,9.2831,9.3823,9.4668,9.5248,9.6205,9.6685,5.7383,6.0623,6.3592,6.7718,6.8493,6.9169,7.2698,7.1507,7.093,7.563,7.5976,7.6476,7.9823,8.517,9.0287,9.4018,9.6826,9.9096,10.0789,10.1096,10.1212,10.1289,10.1289,10.1289,10.1289,10.1289,10.1289,10.1289,10.1289,10.1289,10.1289,10.1289,10.1289,10.1289,10.1289,10.1289,10.1289,10.1289,10.1289,10.1289,10.1289,10.1289,10.1289,10.1289,10.1289,10.1289,10.1289,10.1289,10.1211,9.9747,9.8668,9.7629,9.6194,9.4605,9.3088,9.2207,9.184,9.1803,9.1803,9.1803,9.1803,9.1803,9.1803,9.1803,9.1803,9.1803,9.1803,9.1803,9.1803,9.1803,9.1803,9.1767,9.1546,9.0776,8.9968,8.9344,8.9307,8.8169,8.7545,8.9047,8.9378,8.9669,9.0467,9.1176,9.173,9.1767,9.1803,9.1803,9.1803,9.1803,9.1803,9.1803,9.1803,9.1803,9.1803,9.1803,9.1803,9.1803,9.1803,9.1803,9.1803,9.1803,9.1803,9.1803,9.1803,9.184,9.1877,9.3526,9.4366,9.4399,9.5985,9.6685,5.4453,5.9231,6.4039,6.6244,6.9556,0.0,0.0,7.777,7.9544,8.2869,8.3747,8.4286,8.5593,8.8517,9.1633,9.4518,9.7134,9.9404,10.1096,10.1289,10.1289,10.1289,10.1289,10.1289,10.1289,10.1289,10.1289,10.1289,10.1289,10.1289,10.1289,10.1289,10.1289,10.1289,10.1289,10.1289,10.1289,10.1289,10.1289,10.1289,10.1289,10.1289,10.1289,10.1289,10.1289,10.1289,10.1289,10.1289,10.1211,9.9625,9.8238,9.68,9.4206,9.2826,9.2244,9.1913,9.1803,9.1803,9.1803,9.1803,9.1803,9.1803,9.1803,9.1803,9.1803,9.1803,9.1803,9.1803,9.1803,9.1803,9.1803,9.1803,9.173,9.1436,9.0739,9.0152,9.0115,8.9674,8.9451,8.9996,9.0551,9.0994,9.1287,9.1582,9.1803,9.1803,9.1803,9.1803,9.1803,9.1803,9.1803,9.1803,9.1803,9.1803,9.1803,9.1803,9.1803,9.1803,9.1803,9.1803,9.1803,9.1803,9.1803,9.1803,9.2354,9.2574,9.2574,9.4264,9.5072,9.5025,9.6168,9.6685,5.4402,5.9374,6.4778,6.6763,0.0,0.0,7.99,8.2375,8.4878,8.8632,8.944,8.9479,8.9479,9.0633,9.2441,9.498,9.7557,9.9712,10.1096,10.1289,10.1289,10.1289,10.1289,10.1289,10.1289,10.1289,10.1289,10.1289,10.1289,10.1289,10.1289,10.1289,10.1289,10.1289,10.1289,10.1289,10.1289,10.1289,10.1289,10.1289,10.1289,10.1289,10.1289,10.1289,10.1289,10.1289,10.1289,10.1212,10.0827,9.8983,9.6966,9.4859,9.2635,9.1803,9.1803,9.1803,9.1803,9.1803,9.1803,9.1803,9.1803,9.1803,9.1803,9.1803,9.1803,9.1803,9.1803,9.1803,9.1803,9.1803,9.1803,9.1803,9.1803,9.1803,9.1179,9.0665,9.0886,9.0555,9.0407,9.0843,9.1213,9.1473,9.1767,9.1803,9.1803,9.1803,9.1803,9.1803,9.1803,9.1803,9.1803,9.1803,9.1803,9.1803,9.1803,9.1803,9.1803,9.1803,9.1803,9.1803,9.1803,9.1803,9.1913,9.2243,9.2831,9.3199,9.3455,9.4853,9.5479,9.5505,9.6315,9.6685,5.8644,6.1906,6.6034,7.0324,0.0,7.7116,8.3638,8.4379,8.5593,9.2326,9.2402,9.1248,9.1248,9.1941,9.3364,9.5903,9.8442,10.0404,10.1212,10.1289,10.1289,10.1289,10.1289,10.1289,10.1289,10.1289,10.1289,10.1289,10.1289,10.1289,10.1289,10.1289,10.1289,10.1289,10.1289,10.1289,10.1289,10.1289,10.1289,10.1289,10.1289,10.1289,10.1289,10.1289,10.1289,10.1289,10.1289,10.0789,9.9903,9.7541,9.4685,9.1803,9.1803,9.1803,9.1803,9.1803,9.1803,9.1803,9.1803,9.1803,9.1803,9.1803,9.1803,9.1803,9.1803,9.1803,9.1803,9.1803,9.1803,9.1803,9.1803,9.1803,9.1803,9.1803,9.1179,9.0849,9.162,9.0555,8.9895,9.1473,9.1178,9.0847,9.1657,9.1803,9.1803,9.1803,9.1803,9.1803,9.1803,9.1803,9.1803,9.1803,9.1803,9.1803,9.1803,9.1803,9.1803,9.1803,9.1803,9.1803,9.1803,9.1803,9.2243,9.3088,9.3125,9.3492,9.4289,9.5148,9.5515,9.5505,9.6315,9.6685,5.6818,6.1425,6.7398,7.0042,7.644,8.2931,8.6184,8.7609,8.9793,9.5249,9.5518,9.4595,9.398,9.4595,9.5441,9.6172,9.8442,10.0404,10.1212,10.1289,10.1289,10.1289,10.1289,10.1289,10.1289,10.1289,10.1289,10.1289,10.1289,10.1289,10.1289,10.1289,10.1289,10.1289,10.1289,10.1289,10.1289,10.1289,10.1289,10.1289,10.1289,10.1289,10.1289,10.1289,10.1289,10.1289,10.0712,10.0013,9.9075,9.6139,9.3657,9.1803,9.1803,9.1803,9.1803,9.1803,9.1803,9.1803,9.1803,9.1803,9.1803,9.1803,9.1803,9.1803,9.1803,9.1803,9.1803,9.1803,9.1803,9.1803,9.1803,9.1803,9.1803,9.1803,9.162,9.151,9.173,9.1436,9.1216,9.1693,9.1583,9.1473,9.1767,9.1803,9.1803,9.1803,9.1803,9.1803,9.1803,9.1803,9.1803,9.1803,9.1803,9.1803,9.1803,9.1803,9.1803,9.1803,9.1803,9.1803,9.1803,9.239,9.2867,9.3088,9.4189,9.4589,9.4289,9.5694,9.6025,9.5505,9.6315,9.6685,6.0968,6.5647,7.1275,7.5178,8.0591,8.5906,8.9755,9.1677,9.3445,9.6442,9.6634,9.6134,9.5595,9.6211,9.6903,9.725,9.9135,10.0712,10.1212,10.1289,10.1289,10.1289,10.1289,10.1289,10.1289,10.1289,10.1289,10.1289,10.1289,10.1289,10.1289,10.1289,10.1289,10.1289,10.1289,10.1096,10.0789,10.0789,10.0596,10.0289,10.0289,10.0519,10.0789,10.1212,10.1096,10.0789,9.9558,9.85,9.7389,9.5063,9.3202,9.1803,9.1803,9.1803,9.1803,9.1803,9.1803,9.1803,9.1803,9.1803,9.1803,9.1803,9.1803,9.1803,9.1803,9.1803,9.1803,9.1803,9.1803,9.1803,9.1803,9.1803,9.1803,9.1803,9.1803,9.1803,9.1803,9.1803,9.1803,9.1803,9.1803,9.1803,9.1803,9.1803,9.1803,9.1803,9.1803,9.1803,9.1803,9.1803,9.1803,9.1803,9.1803,9.1803,9.1803,9.1803,9.1803,9.1803,9.1803,9.1803,9.1803,9.2611,9.3419,9.408,9.5031,9.5431,9.5285,9.6205,9.6465,9.5985,9.6502,9.6685,6.8229,7.2016,7.6254,8.3061,8.5247,8.7363,9.3672,9.5711,9.6326,9.6403,9.648,9.6519,9.6442,9.7134,9.798,9.8673,10.0212,10.1289,10.1289,10.1212,10.1212,10.1289,10.1212,10.1212,10.1212,10.1212,10.1212,10.1212,10.1212,10.1212,10.1212,10.1212,10.1212,10.1096,10.1096,10.0712,9.9981,9.9981,9.9558,9.8788,9.8788,9.9211,9.9981,10.0712,10.0596,9.975,9.8135,9.6554,9.5121,9.4349,9.314,9.1803,9.1803,9.1803,9.1803,9.1803,9.1803,9.1803,9.1803,9.1803,9.1803,9.1803,9.1803,9.1803,9.1803,9.1803,9.1803,9.1803,9.1803,9.1803,9.1803,9.1803,9.1803,9.1803,9.1803,9.1803,9.1803,9.1803,9.1803,9.1803,9.1803,9.1803,9.1803,9.1803,9.1803,9.1803,9.1803,9.1803,9.1803,9.1803,9.1803,9.1803,9.1803,9.1803,9.1803,9.1803,9.1803,9.1803,9.1803,9.184,9.1913,9.2758,9.3859,9.5358,9.5505,9.5985,9.6685,9.6685,9.6685,9.6685,9.6685,9.6685,6.5803,7.0018,7.5518,8.2347,8.7948,9.2556,9.5365,9.6172,9.648,9.7096,9.7788,9.8057,9.7365,9.8481,9.9365,9.8865,10.0212,10.1289,10.1289,10.0789,10.0596,10.1212,10.0712,10.0404,10.0404,10.0404,10.0404,10.0404,10.0404,10.0404,10.0404,10.0404,9.9981,9.9365,9.9327,9.925,9.9058,9.9058,9.8981,9.8788,9.8788,9.8904,9.9096,9.925,9.8865,9.7981,9.704,9.5752,9.4273,9.3545,9.2699,9.1803,9.1803,9.1803,9.1803,9.1803,9.1803,9.1803,9.1803,9.1803,9.1803,9.1803,9.1803,9.1803,9.1803,9.1803,9.1803,9.1803,9.1803,9.1803,9.1803,9.1803,9.1803,9.1803,9.1803,9.1803,9.1803,9.1803,9.1803,9.1803,9.1803,9.1803,9.1803,9.1803,9.1803,9.1803,9.1803,9.1803,9.1803,9.1803,9.1803,9.1803,9.1803,9.1803,9.1803,9.1803,9.1803,9.1803,9.1803,9.2133,9.2831,9.3601,9.4183,9.4585,9.5838,9.6539,9.6685,9.6685,9.6685,9.6685,9.6685,9.6685,6.643,7.1444,7.7323,8.484,9.0252,9.4057,9.5365,9.5672,9.5903,9.6749,9.7596,9.7904,9.7096,9.8327,9.9173,9.8327,9.925,10.0096,10.0096,9.975,9.9635,10.0096,9.9712,9.9481,9.9481,9.9481,9.9481,9.9481,9.9481,9.9481,9.9481,9.9481,9.925,9.8788,9.8788,9.8596,9.8173,9.8173,9.798,9.7596,9.7596,9.7596,9.7634,9.798,9.7942,9.748,9.6708,9.5477,9.4102,9.3706,9.2858,9.1803,9.1803,9.1803,9.1803,9.1803,9.1803,9.1803,9.1803,9.1803,9.1803,9.1803,9.1803,9.1803,9.1803,9.1803,9.1803,9.1803,9.1803,9.1803,9.1803,9.1803,9.1803,9.1803,9.1803,9.1803,9.1803,9.1803,9.1803,9.1803,9.1803,9.1803,9.1803,9.1803,9.1803,9.1803,9.1803,9.1803,9.1803,9.1803,9.1803,9.1803,9.1803,9.1803,9.1803,9.1803,9.1803,9.1803,9.1803,9.1987,9.2464,9.3639,9.4481,9.4842,9.6095,9.6685,9.6685,9.6685,9.6685,9.6685,9.6685,9.6685,6.6381,7.2869,7.962,8.7675,9.1518,9.3518,9.4557,9.4788,9.498,9.5711,9.6634,9.7096,9.6442,9.7557,9.8327,9.7634,9.8211,9.8788,9.8788,9.8673,9.8634,9.8788,9.8673,9.8596,9.8596,9.8596,9.8596,9.8596,9.8596,9.8596,9.8596,9.8596,9.8519,9.8365,9.8365,9.8019,9.7288,9.7288,9.698,9.6288,9.6288,9.6288,9.6326,9.698,9.7288,9.725,9.6596,9.5451,9.4102,9.4102,9.3165,9.1803,9.1803,9.1803,9.1803,9.1803,9.1803,9.1803,9.1803,9.1803,9.1803,9.1803,9.1803,9.1803,9.1803,9.1803,9.1803,9.1803,9.1803,9.1803,9.1803,9.1803,9.1803,9.1803,9.1803,9.1803,9.1803,9.1803,9.1803,9.1803,9.1803,9.1803,9.1803,9.1803,9.1803,9.1803,9.1803,9.1803,9.1803,9.1803,9.1803,9.1803,9.1803,9.1803,9.1803,9.1803,9.1803,9.1803,9.1803,9.1803,9.1803,9.3455,9.4595,9.5285,9.6205,9.6685,9.6685,9.6685,9.6685,9.6685,9.6685,9.6685,6.0325,6.9774,8.0208,8.7137,9.021,9.1941,9.3518,9.3864,9.3903,9.4018,9.5326,9.6442,9.6326,9.7057,9.7634,9.7519,9.8211,9.8788,9.8788,9.8134,9.7942,9.8711,9.8134,9.7673,9.7673,9.7673,9.7673,9.7673,9.7673,9.7673,9.7673,9.7673,9.7365,9.6673,9.6634,9.6596,9.648,9.648,9.6403,9.6288,9.6288,9.6288,9.6288,9.6403,9.648,9.6442,9.6365,9.5451,9.4102,9.4102,9.3165,9.1803,9.1803,9.1803,9.1803,9.1803,9.1803,9.1803,9.1803,9.1803,9.1803,9.1803,9.1803,9.1803,9.1803,9.1803,9.1803,9.1803,9.1803,9.1803,9.1803,9.1803,9.1803,9.1803,9.1803,9.1803,9.1803,9.1803,9.1803,9.1803,9.1803,9.1803,9.1803,9.1803,9.1803,9.1803,9.1803,9.1803,9.1803,9.1803,9.1803,9.1803,9.1803,9.1803,9.1803,9.1803,9.1803,9.1803,9.1803,9.1803,9.1803,9.3455,9.4375,9.4476,9.5948,9.6685,9.6685,9.6685,9.6685,9.6685,9.6685,9.6685,6.2676,7.0311,7.7623,8.4753,8.7478,8.8902,9.1095,9.1941,9.2441,9.2941,9.398,9.4826,9.4826,9.5134,9.5365,9.5365,9.5672,9.6095,9.6596,9.5903,9.5672,9.6557,9.5903,9.5365,9.5365,9.5365,9.5365,9.5365,9.5365,9.5365,9.5365,9.5365,9.5211,9.4864,9.4826,9.4826,9.4826,9.4826,9.4826,9.4864,9.5326,9.5557,9.5595,9.6095,9.6288,9.6288,9.5788,9.4725,9.3347,9.2895,9.2081,9.1143,9.1143,9.14,9.1803,9.1803,9.1803,9.1803,9.1803,9.1803,9.1803,9.1803,9.1803,9.1803,9.1803,9.1803,9.1803,9.1803,9.1803,9.1803,9.1803,9.1803,9.1803,9.1803,9.1803,9.1803,9.1803,9.1803,9.1803,9.1803,9.1803,9.1803,9.1803,9.1803,9.1803,9.1803,9.1803,9.1803,9.1803,9.1803,9.1803,9.1803,9.1803,9.1803,9.1803,9.1803,9.1803,9.1803,9.1803,9.1803,9.1803,9.3418,9.4334,9.4289,9.5911,9.6685,9.6685,9.6685,9.6685,9.6685,9.6685,9.6685,6.2639,6.8162,7.263,8.0177,8.3478,8.5555,8.8325,8.9633,9.0479,9.1364,9.2018,9.2479,9.271,9.3249,9.371,9.371,9.371,9.3941,9.4557,9.4095,9.3941,9.4595,9.4095,9.371,9.371,9.371,9.371,9.371,9.371,9.371,9.371,9.371,9.371,9.371,9.371,9.371,9.371,9.371,9.371,9.371,9.4364,9.4788,9.5018,9.5672,9.5982,9.5982,9.5328,9.3912,9.2185,9.1784,9.1073,9.0298,9.0298,9.0665,9.1179,9.1179,9.1326,9.151,9.151,9.162,9.1803,9.1803,9.1657,9.151,9.151,9.1363,9.1179,9.1179,9.1326,9.151,9.151,9.1657,9.1803,9.1803,9.1803,9.1803,9.1803,9.1803,9.1803,9.1803,9.1803,9.1803,9.1803,9.1803,9.1803,9.1803,9.1803,9.1803,9.1803,9.1803,9.1803,9.1803,9.1803,9.1803,9.1803,9.1803,9.1803,9.1803,9.1803,9.1803,9.1803,9.3234,9.4073,9.4289,9.5691,9.6502,9.6685,9.6685,9.6685,9.6685,9.6685,9.6685,5.5038,5.9904,6.4813,7.239,7.7869,8.2247,8.5555,8.6978,8.7825,8.8709,8.894,8.9171,8.9979,9.2056,9.371,9.371,9.371,9.371,9.3749,9.371,9.371,9.3749,9.371,9.371,9.371,9.371,9.371,9.371,9.371,9.371,9.371,9.371,9.371,9.371,9.371,9.371,9.371,9.371,9.371,9.371,9.3749,9.421,9.498,9.5057,9.5135,9.5242,9.5099,9.3305,9.0676,9.1339,9.0737,8.9491,8.9491,8.9491,8.9528,8.9528,9.0005,9.0665,9.0665,9.1179,9.1803,9.1803,9.1289,9.0665,9.0665,9.0152,8.9528,8.9528,9.0078,9.0665,9.0665,9.1216,9.1803,9.1803,9.1803,9.1803,9.1803,9.1803,9.1803,9.1803,9.1803,9.1803,9.1803,9.1803,9.1803,9.1803,9.1803,9.1803,9.1803,9.1803,9.1803,9.1803,9.1803,9.1803,9.1803,9.1803,9.1803,9.1803,9.1803,9.1803,9.1803,9.2647,9.3529,9.4252,9.5105,9.5914,9.6685,9.6685,9.6685,9.6685,9.6685,9.6685,5.2578,5.648,6.0825,6.7162,7.215,7.6225,7.9015,8.2824,8.5901,8.6209,8.7555,8.8786,8.9094,9.0287,9.1441,9.2018,9.2095,9.2287,9.2864,9.2441,9.2287,9.2864,9.2441,9.2095,9.2095,9.2095,9.2095,9.2095,9.2095,9.2095,9.2095,9.2095,9.2095,9.2095,9.2095,9.2095,9.2095,9.2095,9.2095,9.2095,9.2672,9.3364,9.4172,9.4172,9.3946,9.3556,9.2928,9.186,9.0441,8.9638,8.905,8.8647,8.8647,8.8977,8.9417,8.9417,8.9601,8.9858,8.9858,9.0041,9.0335,9.0849,9.0482,8.9931,9.0445,9.0041,8.9417,8.9417,9.0005,9.0592,9.0592,9.1216,9.1803,9.1803,9.2529,9.3014,9.2018,9.1803,9.1803,9.1803,9.1803,9.1803,9.1803,9.1803,9.1803,9.1803,9.1803,9.1803,9.1803,9.1803,9.1803,9.1803,9.1803,9.1803,9.1803,9.1803,9.1803,9.1803,9.1803,9.1803,9.1803,9.2611,9.3492,9.4298,9.5107,9.5878,9.6685,9.6685,9.6685,9.6685,9.6685,9.6685,4.9687,5.3042,5.7278,6.3302,6.6858,7.0266,7.5284,7.9285,8.2324,8.3747,8.5824,8.7594,8.8171,8.8709,8.944,9.0594,9.0748,9.1056,9.1941,9.1556,9.1402,9.1979,9.1556,9.121,9.121,9.121,9.121,9.121,9.121,9.121,9.121,9.121,9.121,9.121,9.121,9.121,9.121,9.121,9.121,9.121,9.1787,9.2479,9.3287,9.3287,9.3255,9.3053,9.2176,9.1004,8.9597,8.8815,8.8238,8.7839,8.8096,8.8536,8.9014,8.9014,8.9344,8.9784,8.9491,8.9601,8.9895,9.0445,8.9895,8.916,8.9968,8.9454,8.861,8.861,8.9381,9.0225,9.0225,9.1174,9.2229,9.2229,9.2979,9.3488,9.2439,9.2159,9.2133,9.184,9.1803,9.1803,9.1803,9.1803,9.1803,9.1803,9.1803,9.1803,9.1803,9.1803,9.1803,9.1803,9.1803,9.1803,9.1803,9.1803,9.1803,9.1803,9.1803,9.1913,9.2243,9.2501,9.3309,9.4705,9.496,9.5621,9.6685,9.6685,9.6685,9.6685,9.6685,9.6685,0.0,0.0,0.0,6.0409,6.1989,6.4551,7.4514,7.6207,7.6899,8.117,8.3439,8.517,8.694,8.7286,8.7863,8.9517,8.9825,9.0171,9.1018,9.1133,9.1133,9.1133,9.1133,9.1133,9.1133,9.1133,9.1133,9.1171,9.1171,9.1171,9.121,9.121,9.121,9.121,9.121,9.121,9.121,9.121,9.121,9.121,9.121,9.1672,9.2479,9.2479,9.2987,9.3816,9.2983,9.0941,8.8242,8.9001,8.8424,8.7142,8.7949,8.8243,8.8243,8.8206,8.9197,9.0445,8.9638,8.9895,9.0555,9.0555,8.9491,8.8353,8.916,8.828,8.6995,8.7031,8.8206,8.9417,8.9491,9.1283,9.3051,9.3051,9.3054,9.3028,9.303,9.3024,9.2756,9.195,9.1767,9.1803,9.1767,9.1767,9.1803,9.1803,9.1803,9.1803,9.1803,9.1803,9.1803,9.1803,9.1803,9.1803,9.1803,9.1803,9.1803,9.1803,9.1803,9.2207,9.3051,9.2317,9.3015,9.5441,9.4741,9.5107,9.6722,9.6722,9.6685,9.6685,9.6685,9.6685,4.7539,0.0,0.0,0.0,0.0,0.0,6.3551,6.6628,7.0052,7.4938,7.7284,7.9554,8.3054,8.4747,8.594,8.6978,8.8209,8.9133,8.9363,8.9402,8.9402,8.9402,8.9402,8.9402,8.9402,8.9402,8.9633,9.021,9.0287,9.0517,9.1171,9.121,9.121,9.121,9.121,9.121,9.121,9.121,9.121,9.121,9.121,9.1672,9.2479,9.1864,9.2061,9.2834,9.1395,9.07,9.0472,9.0226,8.9919,8.9516,8.9219,8.9087,8.9014,8.8426,8.8867,8.9564,8.8169,8.8573,8.9638,8.905,8.8573,8.8243,8.8463,8.7802,8.7142,8.7692,8.861,8.9779,9.1535,9.331,9.4476,9.3935,9.4197,9.4314,9.3193,9.3031,9.2579,9.12,9.1363,9.162,9.1033,9.1363,9.1803,9.1803,9.1803,9.1803,9.1803,9.1803,9.1803,9.1803,9.1803,9.1803,9.1803,9.1803,9.1803,9.1803,9.1803,9.2207,9.3051,9.2866,9.3637,9.5479,9.5331,9.5917,9.746,9.6942,9.6685,9.6685,9.6685,9.6685,5.0235,0.0,5.422,5.4975,0.0,0.0,6.1243,6.3551,6.6244,7.136,7.4053,7.6438,7.9631,8.1323,8.2747,8.4286,8.567,8.7055,8.8479,8.8709,8.8709,8.8709,8.8709,8.8709,8.8709,8.8709,8.8902,8.9363,8.9402,8.9633,9.0133,9.0171,9.0325,9.0671,9.0671,9.0825,9.121,9.121,9.121,9.121,9.121,9.1479,9.1941,9.1441,9.1672,9.2479,9.1529,9.1561,9.2324,9.1348,9.0819,9.0429,9.0062,8.9931,8.9858,8.9381,8.9711,9.0225,8.894,8.9124,8.9821,8.9344,8.8757,8.828,8.861,8.7912,8.7178,8.7986,8.9256,9.0772,9.2524,9.4102,9.5096,9.463,9.4884,9.4967,9.4111,9.3706,9.29,9.095,9.0959,9.1105,9.0703,9.0997,9.1363,9.1767,9.1803,9.1803,9.1803,9.1803,9.1803,9.1803,9.1803,9.1803,9.1803,9.1803,9.1803,9.1803,9.1803,9.2354,9.3565,9.3267,9.4109,9.6436,9.6104,9.6768,9.8327,9.7248,9.6685,9.6685,9.6685,9.6685,5.4241,0.0,0.0,6.0012,5.8097,0.0,6.3128,6.3589,6.4051,6.859,7.1321,7.3514,7.563,7.6899,7.84,8.0669,8.2247,8.4401,8.7902,8.8402,8.8402,8.8402,8.8402,8.8402,8.8402,8.8402,8.844,8.8556,8.8632,8.8709,8.8709,8.8709,8.9017,8.9748,8.9863,9.0287,9.1056,9.1171,9.121,9.121,9.121,9.121,9.121,9.121,9.1633,9.2364,9.2364,9.2826,9.3445,9.2157,9.1263,9.0825,9.0647,9.0737,9.0845,9.0629,9.1106,9.1657,9.0776,9.0592,9.0702,9.0519,8.9491,8.8463,8.9191,8.8276,8.7178,8.8198,9.0193,9.2292,9.3077,9.4265,9.5318,9.5189,9.512,9.5066,9.5096,9.4397,9.3176,9.1122,9.0831,9.0983,9.0849,9.0923,9.1217,9.1913,9.2024,9.2024,9.2024,9.195,9.1913,9.1913,9.184,9.1803,9.1803,9.1803,9.1803,9.1803,9.1803,9.2537,9.4227,9.3672,9.4768,9.7757,9.7248,9.7694,9.9008,9.752,9.6803,9.6805,9.6725,9.6685,6.0448,6.0994,6.1618,5.8673,6.0272,0.0,5.6742,5.755,5.955,6.055,6.1166,6.2858,6.7321,7.0475,7.2552,7.3053,7.7284,8.1977,8.6055,8.6594,8.6594,8.6594,8.6594,8.6594,8.6594,8.6594,8.6901,8.7594,8.8286,8.8709,8.8709,8.8709,8.8748,8.894,8.9556,8.9979,9.0171,9.0864,9.121,9.121,9.121,9.121,9.121,9.121,9.1287,9.1441,9.1441,9.1941,9.2674,9.1768,9.2129,9.3062,9.1334,9.1417,9.2365,9.1097,9.1106,9.1583,9.0152,9.0482,9.1363,9.0078,8.9454,8.9191,8.9303,8.8199,8.7426,8.9516,9.2185,9.454,9.473,9.5407,9.5941,9.5363,9.4662,9.4177,9.4288,9.3124,9.1915,9.1451,9.2484,9.3144,9.2451,9.2973,9.3492,9.3639,9.3639,9.3639,9.3639,9.3125,9.2794,9.2794,9.2207,9.1803,9.1803,9.1803,9.1803,9.1803,9.1803,9.2501,9.4153,9.4703,9.5838,9.7644,9.8914,9.9319,9.8998,9.804,9.7573,9.7604,9.7023,9.6685,6.3684,6.3762,6.4488,6.2617,6.2743,0.0,0.0,5.8588,5.9011,6.1589,6.0396,6.0319,6.5013,6.6936,6.8167,6.9436,7.3591,7.74,7.9515,8.2708,8.4863,8.4863,8.4863,8.5016,8.5478,8.5517,8.5863,8.6709,8.7171,8.7401,8.7401,8.7401,8.7594,8.8017,8.8863,8.9479,8.9902,9.0748,9.121,9.121,9.121,9.121,9.121,9.121,9.121,9.121,9.121,9.1441,9.179,9.1055,9.1739,9.3047,9.1582,9.1796,9.2795,9.1995,9.2242,9.2838,9.2019,9.2279,9.2764,9.1534,9.0826,9.0404,8.9964,8.9563,8.957,9.0676,9.3047,9.5189,9.5189,9.5741,9.6213,9.5862,9.5099,9.448,9.4518,9.3522,9.2601,9.2636,9.3327,9.3539,9.2398,9.2555,9.3142,9.3989,9.4102,9.3989,9.3594,9.3217,9.287,9.246,9.2024,9.1803,9.1803,9.2207,9.239,9.239,9.2757,9.3492,9.4742,9.5495,9.6913,9.8932,10.0122,10.0596,10.0096,9.8974,9.8196,9.7793,9.7027,9.6685,6.7014,6.6956,6.8064,6.7128,6.582,6.4474,0.0,0.0,0.0,6.3281,6.1166,5.9896,6.3512,6.3589,6.382,6.5859,6.9513,7.1822,7.1168,7.6746,8.1093,8.1593,8.2093,8.2785,8.3824,8.3478,8.3862,8.5517,8.4863,8.4824,8.5824,8.6017,8.644,8.7132,8.7979,8.8825,8.9671,9.0517,9.1018,9.121,9.121,9.121,9.121,9.121,9.121,9.121,9.121,9.121,9.1136,9.0566,9.1067,9.2179,9.1556,9.2005,9.298,9.2819,9.3385,9.4102,9.4102,9.4102,9.3989,9.331,9.2625,9.1808,9.0684,9.1255,9.2254,9.2101,9.3688,9.5407,9.5407,9.5862,9.6212,9.5906,9.529,9.4711,9.456,9.383,9.329,9.3438,9.3358,9.3015,9.2369,9.2255,9.2755,9.4291,9.4521,9.4252,9.3522,9.3325,9.291,9.2126,9.1987,9.1987,9.1987,9.2794,9.3192,9.3248,9.376,9.4458,9.5231,9.6353,9.7943,10.0096,10.0904,10.1289,10.1289,9.9904,9.8807,9.804,9.7137,9.6685,7.3575,7.435,7.4572,6.7744,7.0244,7.1514,6.0396,0.0,6.1627,5.7665,0.0,5.6511,5.778,0.0,0.0,5.8242,6.3051,6.5705,6.2666,6.7475,7.2129,7.4399,7.663,7.8631,8.0246,7.8361,7.89,8.3516,8.04,8.0285,8.4786,8.5709,8.617,8.6247,8.7094,8.794,8.8825,8.9633,9.0441,9.121,9.121,9.121,9.121,9.121,9.121,9.121,9.121,9.121,9.121,9.11,9.1213,9.1295,9.0684,9.1824,9.3707,9.3033,9.3385,9.4102,9.4102,9.4102,9.4064,9.3989,9.3808,9.3203,9.1066,9.2345,9.4483,9.3829,9.4853,9.6174,9.6174,9.6251,9.5944,9.4534,9.4019,9.3677,9.3005,9.2141,9.171,9.2482,9.2018,9.2168,9.4244,9.4595,9.4943,9.5942,9.6057,9.5751,9.5058,9.4386,9.3698,9.2904,9.2867,9.2867,9.2867,9.3565,9.401,9.3965,9.4053,9.4439,9.5167,9.7325,9.9019,10.0096,10.0904,10.1289,10.1289,10.048,9.967,9.8834,9.7375,9.6685,7.3157,7.4024,7.4716,6.9975,7.0591,7.0552,6.3705,6.1627,6.105,6.0896,0.0,0.0,0.0,0.0,0.0,0.0,5.9511,6.0473,5.755,6.0589,6.4743,6.9244,7.1168,7.336,7.6553,7.5438,7.6245,8.0323,7.8092,7.8554,8.317,8.467,8.5632,8.6094,8.694,8.7594,8.794,8.9248,9.0094,9.0441,9.0979,9.121,9.121,9.121,9.121,9.121,9.121,9.121,9.121,9.121,9.121,9.1175,9.0908,9.1747,9.3138,9.3272,9.3873,9.4675,9.5172,9.5363,9.521,9.4179,9.351,9.2791,9.1323,9.2103,9.3482,9.314,9.3908,9.4788,9.4788,9.4788,9.4635,9.3946,9.3371,9.2907,9.2642,9.1834,9.1325,9.1672,9.1441,9.1672,9.3281,9.3941,9.4521,9.5405,9.598,9.5903,9.4712,9.4629,9.4301,9.3125,9.3418,9.3634,9.3623,9.431,9.4734,9.4715,9.5135,9.5712,9.648,9.798,9.9211,10.0096,10.0904,10.1289,10.1289,10.0596,10.0019,9.9671,9.8535,9.7794,7.4101,7.4793,7.5438,7.1245,7.0129,6.9052,6.5359,6.282,6.1743,6.3551,6.1704,0.0,0.0,0.0,5.7819,5.7088,0.0,5.7165,5.3933,5.5665,5.9011,6.3782,6.632,6.8936,7.1975,7.0706,7.1552,7.6092,7.4014,7.5091,8.0939,8.2901,8.4439,8.5747,8.6594,8.7171,8.7401,8.8594,8.944,8.9902,9.0556,9.0979,9.121,9.121,9.121,9.121,9.121,9.121,9.121,9.121,9.121,9.121,9.121,9.1595,9.2249,9.3056,9.3903,9.4749,9.5634,9.5942,9.5672,9.3941,9.3133,9.2672,9.1825,9.2133,9.2826,9.2826,9.3249,9.371,9.371,9.371,9.3633,9.3403,9.2903,9.2441,9.221,9.1633,9.121,9.121,9.121,9.1402,9.2053,9.2864,9.3751,9.4866,9.552,9.5558,9.4521,9.4875,9.473,9.3424,9.3961,9.4368,9.4408,9.5097,9.5481,9.5481,9.6019,9.6634,9.7479,9.8363,9.9211,10.0096,10.0904,10.1289,10.1289,10.0788,10.048,10.048,9.946,9.8702,7.9169,7.9554,7.89,7.0552,6.9667,6.9129,6.2474,6.3397,6.5013,6.2666,6.4628,6.6051,6.3705,6.1858,5.9858,5.7396,5.7742,0.0,0.0,5.301,5.528,5.7088,6.2435,6.6013,6.6167,6.2397,6.3051,7.0591,6.6513,6.809,7.8092,8.0285,8.2362,8.4863,8.5709,8.6555,8.7401,8.744,8.8286,8.9902,8.994,9.0402,9.121,9.121,9.121,9.121,9.121,9.121,9.121,9.121,9.121,9.121,9.121,9.121,9.1364,9.221,9.3056,9.3864,9.4749,9.5018,9.4749,9.3095,9.3056,9.3518,9.271,9.3018,9.3672,9.3672,9.3672,9.371,9.371,9.371,9.348,9.271,9.2518,9.2287,9.1441,9.121,9.121,9.121,9.121,9.121,9.1248,9.1941,9.3095,9.4751,9.502,9.5058,9.5135,9.5176,9.4932,9.4132,9.4715,9.5137,9.5174,9.5865,9.6249,9.6249,9.6288,9.6634,9.7479,9.8363,9.9211,10.0096,10.0904,10.1289,10.1289,10.1289,10.1289,10.1212,9.971,9.9017,8.0516,8.1439,8.1093,7.4284,7.2591,7.0975,6.4743,6.4666,6.5166,6.2627,6.4782,6.632,6.3782,6.1935,6.0165,5.8165,5.6703,5.4587,0.0,5.1895,5.301,5.3549,5.7896,6.0858,6.0858,5.9281,6.0453,6.5809,6.5188,6.7782,7.5135,7.9582,8.2554,8.3978,8.5363,8.6247,8.6555,8.7094,8.7671,8.8248,8.9363,9.0056,9.0364,9.0941,9.121,9.121,9.121,9.121,9.121,9.121,9.121,9.121,9.121,9.121,9.1325,9.2172,9.2672,9.3018,9.3826,9.4518,9.4711,9.3018,9.2672,9.2749,9.1902,9.1825,9.2056,9.2056,9.2056,9.2056,9.2056,9.2056,9.1979,9.171,9.1633,9.1556,9.1248,9.121,9.121,9.121,9.121,9.121,9.121,9.1441,9.221,9.39,9.4634,9.5058,9.5174,9.5598,9.5646,9.4907,9.5481,9.5942,9.5942,9.6172,9.6288,9.6288,9.6288,9.6403,9.6673,9.8057,9.8942,9.9211,10.0596,10.1289,10.1289,10.1289,10.1289,10.1289,10.0788,10.0288,8.2131,8.2785,8.2324,7.6976,7.5014,7.2899,6.7244,6.709,6.7398,6.4859,6.632,6.7782,6.7051,6.4051,6.1243,5.9858,5.6973,5.3933,0.0,5.1164,5.1471,5.1471,5.4703,5.7005,5.7119,5.5911,5.7248,6.2287,6.249,6.555,7.2681,7.7409,8.0911,8.3054,8.4809,8.5846,8.6094,8.6671,8.7094,8.7401,8.8479,8.9325,8.994,9.0479,9.0902,9.121,9.121,9.121,9.121,9.121,9.121,9.121,9.121,9.121,9.1287,9.1825,9.221,9.2518,9.2749,9.3364,9.3864,9.2479,9.2056,9.1941,9.1364,9.121,9.121,9.121,9.121,9.121,9.121,9.121,9.121,9.121,9.121,9.121,9.121,9.121,9.121,9.121,9.121,9.121,9.121,9.1441,9.2053,9.3127,9.398,9.4712,9.5097,9.5826,9.6134,9.5635,9.6019,9.6288,9.6288,9.6288,9.6288,9.6288,9.6288,9.6557,9.7171,9.825,9.9096,9.9711,10.0673,10.1289,10.1289,10.1289,10.1289,10.1289,10.1289,10.1019]},{"header":{"parameterUnit":"m.s-1","parameterCategory":1,"la1":30.6,"la2":29.2853,"lo1":-89.7004,"lo2":-87.6739,"dy":0.0162,"dx":0.0183,"nx":112,"ny":82,"refTime":"2024-09-22T06:00:00:Z","depth":0,"parameterNumber":3,"parameterNumberName":"V-component_of_WINDS"},"data":[0.0,0.0,0.0,0.0,0.0,0.0,0.0,0.0,0.0,0.0,0.0,0.0,0.0,0.0,0.0,0.0,0.0,0.0,0.0,0.0,0.0,0.0,0.0,0.0,0.0,0.0,0.0,0.0,0.0,0.0,0.0,0.0,0.0,0.0,0.0,0.0,0.0,0.0,0.0,0.0,0.0,0.0,0.0,0.0,0.0,0.0,0.0,0.0,0.0,0.0,0.0,0.0,0.0,0.0,0.0,0.0,0.0,0.0,0.0,0.0,0.0,0.0,0.0,0.0,0.0,0.0,0.0,0.0,0.0,0.0,0.0,0.0,0.0,0.0,0.0,0.0,0.0,0.0,0.0,0.0,0.0,0.0,0.0,0.0,0.0,0.0,0.0,0.0,0.0,0.0,2.0872,1.9702,2.0614,2.0365,1.8239,1.8198,1.6773,1.3374,0.0,0.0,0.0,0.0,0.0,0.0,0.0,0.0,0.0,0.0,0.0,0.0,0.0,0.0,0.0,0.0,0.0,0.0,0.0,0.0,0.0,0.0,0.0,0.0,0.0,0.0,0.0,0.0,0.0,0.0,0.0,0.0,0.0,0.0,0.0,0.0,0.0,0.0,0.0,0.0,0.0,0.0,0.0,0.0,0.0,0.0,0.0,0.0,0.0,0.0,0.0,0.0,0.0,0.0,0.0,0.0,0.0,0.0,0.0,0.0,0.0,0.0,0.0,0.0,0.0,0.0,0.0,0.0,0.0,0.0,0.0,0.0,0.0,0.0,0.0,0.0,0.0,0.0,0.0,0.0,0.0,0.0,0.0,0.0,0.0,0.0,0.0,0.0,0.0,0.0,0.0,0.0,0.0,0.0,0.0,0.0,0.0,0.0,0.0,0.0,0.0,0.0,0.0,0.0,2.2148,2.097,2.1249,2.0694,1.8397,1.8057,1.6617,1.35,0.0,0.0,0.0,0.0,0.0,0.0,0.0,0.0,0.0,0.0,0.0,0.0,0.0,0.0,0.0,0.0,0.0,0.0,0.0,0.0,0.0,0.0,0.0,0.0,0.0,0.0,0.0,0.0,0.0,0.0,0.0,0.0,0.0,0.0,0.0,0.0,0.0,0.0,0.0,0.0,0.0,0.0,0.0,0.0,0.0,0.0,0.0,0.0,0.0,0.0,0.0,0.0,0.0,0.0,0.0,0.0,0.0,0.0,0.0,0.0,0.0,0.0,0.0,0.0,0.0,0.0,0.0,0.0,0.0,0.0,0.0,0.0,0.0,0.0,0.0,0.0,0.0,0.0,0.0,0.0,0.0,0.0,0.0,0.0,0.0,0.0,0.0,0.0,0.0,0.0,0.0,0.0,0.0,0.0,0.0,0.0,0.0,0.0,0.0,0.0,0.0,0.0,0.0,2.1861,2.0611,1.9691,1.8731,1.7426,1.5286,1.4803,1.3932,1.1741,1.0794,0.0,0.0,0.0,0.0,0.0,0.0,0.0,0.0,0.0,0.0,0.0,0.0,0.0,0.0,0.0,0.0,0.0,0.0,0.0,0.0,0.0,0.0,0.0,0.0,0.0,0.0,0.0,0.0,0.0,0.0,0.0,0.0,0.0,0.0,0.0,0.0,0.0,0.0,0.0,0.0,0.0,0.0,0.0,0.0,0.0,0.0,0.0,0.0,0.0,0.0,0.0,0.0,0.0,0.0,0.0,0.0,0.0,0.0,0.0,0.0,0.0,0.0,0.0,0.0,0.0,0.0,0.0,0.0,0.0,0.0,0.0,0.0,0.0,0.0,0.0,0.0,0.0,0.0,0.0,0.0,0.0,0.0,0.0,0.0,0.0,0.0,0.0,0.0,0.0,0.0,0.0,0.0,0.0,0.0,0.0,0.0,0.0,0.0,0.0,0.0,0.0,0.0,2.1194,2.0052,1.8377,1.6963,1.5151,1.2553,1.1965,1.1321,1.0195,0.9069,0.0,0.0,0.0,0.0,0.0,0.0,0.0,0.0,0.0,0.0,0.0,0.0,0.0,0.0,0.0,0.0,0.0,0.0,0.0,0.0,0.0,0.0,0.0,0.0,0.0,0.0,0.0,0.0,0.0,0.0,0.0,0.0,0.0,0.0,0.0,0.0,0.0,0.0,0.0,0.0,0.0,0.0,0.0,0.0,0.0,0.0,0.0,0.0,0.0,0.0,0.0,0.0,0.0,0.0,0.0,0.0,0.0,0.0,0.0,0.0,0.0,0.0,0.0,0.0,0.0,0.0,0.0,0.0,0.0,0.0,0.0,0.0,0.0,0.0,0.0,0.0,0.0,0.0,0.0,0.0,0.0,0.0,0.0,0.0,0.0,0.0,0.0,0.0,0.0,0.0,0.0,0.0,0.0,0.0,0.0,0.0,0.0,0.0,0.0,0.0,0.0,0.0,2.1373,2.2764,1.8953,1.8411,1.6747,1.2393,1.143,1.0636,0.9713,0.8411,0.0,0.0,0.0,0.0,0.0,0.0,0.0,0.0,0.0,0.0,0.0,0.0,0.0,0.0,0.0,0.0,0.0,0.0,0.0,0.0,0.0,0.0,0.0,0.0,0.0,0.0,0.0,0.0,0.0,0.0,0.0,0.0,0.0,0.0,0.0,0.0,0.0,0.0,0.0,0.0,0.0,0.0,0.0,0.0,0.0,0.0,0.0,0.0,0.0,0.0,0.0,0.0,0.0,0.0,0.0,0.0,0.0,0.0,0.0,0.0,0.0,0.0,0.0,0.0,0.0,0.0,0.0,0.0,0.0,0.0,0.0,0.0,0.0,0.0,0.0,0.0,0.0,0.0,0.0,0.0,0.0,0.0,0.0,0.0,0.0,0.0,0.0,0.0,0.0,0.0,0.0,0.0,0.0,0.0,0.0,0.0,0.0,0.0,0.0,0.0,0.0,0.0,2.3181,2.3106,1.9103,1.7512,1.5396,1.238,1.1714,1.0955,0.9686,0.0,0.0,0.0,0.0,0.0,0.0,0.0,0.0,0.0,0.0,0.0,0.0,0.0,0.0,0.0,0.0,0.0,0.0,0.0,0.0,0.0,0.0,0.0,0.0,0.0,0.0,0.0,0.0,0.0,0.0,0.0,0.0,0.0,0.0,0.0,0.0,0.0,0.0,0.0,0.0,0.0,0.0,0.0,0.0,0.0,0.0,0.0,0.0,0.0,0.0,0.0,0.0,0.0,0.0,0.0,0.0,0.0,0.0,0.0,0.0,0.0,0.0,0.0,0.0,0.0,0.0,0.0,0.0,0.0,0.0,0.0,0.0,0.0,0.0,0.0,0.0,0.0,0.0,0.0,0.0,0.0,0.0,0.0,0.0,0.0,0.0,0.0,0.0,0.0,0.0,0.0,0.0,0.0,0.0,0.0,0.0,0.0,0.0,0.0,0.0,0.0,0.0,2.2448,2.43,2.3364,1.9854,1.826,1.6295,1.3267,1.2698,1.1567,0.9551,0.0,0.0,0.0,0.0,0.0,0.0,0.0,0.0,0.0,0.0,0.0,0.0,0.0,0.0,0.0,0.0,0.0,0.0,0.0,0.0,0.0,0.0,0.0,0.0,0.0,0.0,0.0,0.0,0.0,0.0,0.0,0.0,0.0,0.0,0.0,0.0,0.0,0.0,0.0,0.0,0.0,0.0,0.0,0.0,0.0,0.0,0.0,0.0,0.0,0.0,0.0,0.0,0.0,0.0,0.0,0.0,0.0,0.0,0.0,0.0,0.0,0.0,0.0,0.0,0.0,0.0,0.0,0.0,0.0,0.0,0.0,0.0,0.0,0.0,0.0,0.0,0.0,0.0,0.0,0.0,0.0,0.0,0.0,0.0,0.0,0.0,0.0,0.0,0.0,0.0,0.0,0.0,0.0,0.0,0.0,0.0,0.0,0.0,0.0,0.0,0.0,0.0,2.252,2.421,2.3747,2.1853,2.1601,1.9894,1.5458,1.425,1.2532,0.0,0.0,0.0,0.0,0.0,0.0,0.0,0.0,0.0,0.0,0.0,0.0,0.0,0.0,0.0,0.0,0.0,0.0,0.0,0.0,0.0,0.0,0.0,0.0,0.0,0.0,0.0,0.0,0.0,0.0,0.0,0.0,0.0,0.0,0.0,0.0,0.0,0.0,0.0,0.0,0.0,0.0,0.0,0.0,0.0,0.0,0.0,0.0,0.0,0.0,0.0,0.0,0.0,0.0,0.0,0.0,0.0,0.0,0.0,0.0,0.0,0.0,0.0,0.0,0.0,0.0,0.0,0.0,0.0,0.0,0.0,0.0,0.0,0.0,0.0,0.0,0.0,0.0,0.0,0.0,0.0,0.0,0.0,0.0,0.0,0.0,0.0,0.0,0.0,0.0,0.0,0.0,0.0,0.0,0.0,0.0,0.0,0.0,0.0,0.0,0.0,0.0,0.0,2.3427,2.4036,2.3576,2.1841,2.0391,1.8839,1.7214,1.4173,1.1946,1.1339,0.0,0.0,0.0,0.0,0.0,0.0,0.0,0.0,0.0,0.0,0.0,0.0,0.0,0.0,0.0,0.0,0.0,0.0,0.0,0.0,0.0,0.0,0.0,0.0,0.0,0.0,0.0,0.0,0.0,0.0,0.0,0.0,0.0,0.0,0.0,0.0,0.0,0.0,0.0,0.0,0.0,0.0,0.0,0.0,0.0,0.0,0.0,0.0,0.0,0.0,0.0,0.0,0.0,0.0,0.0,0.0,0.0,0.0,0.0,0.0,0.0,0.0,0.0,0.0,0.0,0.0,0.0,0.0,0.0,0.0,0.0,0.0,0.0,0.0,0.0,0.0,0.0,0.0,0.0,0.0,0.0,0.0,0.0,0.0,0.0,0.0,0.0,0.0,0.0,0.0,0.0,0.0,0.0,0.0,0.0,0.0,0.0,0.0,0.0,0.0,0.0,0.0,2.3276,2.4092,2.3576,2.1853,2.0542,1.8988,1.6921,1.443,1.2406,1.1192,0.0,0.0,0.0,0.0,0.0,0.0,0.0,0.0,0.0,0.0,0.0,0.0,0.0,0.0,0.0,0.0,0.0,0.0,0.0,0.0,0.0,0.0,0.0,0.0,0.0,0.0,0.0,0.0,0.0,0.0,0.0,0.0,0.0,0.0,0.0,0.0,0.0,0.0,0.0,0.0,0.0,0.0,0.0,0.0,0.0,0.0,0.0,0.0,0.0,0.0,0.0,0.0,0.0,0.0,0.0,0.0,0.0,0.0,0.0,0.0,0.0,0.0,0.0,0.0,0.0,0.0,0.0,0.0,0.0,0.0,0.0,0.0,0.0,0.0,0.0,0.0,0.0,0.0,0.0,0.0,0.0,0.0,0.0,0.0,0.0,0.0,0.0,0.0,0.0,0.0,0.0,0.0,0.0,0.0,0.0,0.0,0.0,0.0,0.0,0.0,0.0,0.0,2.2539,2.4271,2.3917,2.2001,2.1751,2.0054,1.6223,1.5404,1.3813,1.0612,0.0,0.0,0.0,0.0,0.0,0.0,0.0,0.0,0.0,0.0,0.0,0.0,0.0,0.0,0.0,0.0,0.0,0.0,0.0,0.0,0.0,0.0,0.0,0.0,0.0,0.0,0.0,0.0,0.0,0.0,0.0,0.0,0.0,0.0,0.0,0.0,0.0,0.0,0.0,0.0,0.0,0.0,0.0,0.0,0.0,0.0,0.0,0.0,0.0,0.0,0.0,0.0,0.0,0.0,0.0,0.0,0.0,0.0,0.0,0.0,0.976,0.9831,0.0,0.0,0.0,0.0,0.0,0.0,0.0,0.0,0.0,0.0,0.0,0.0,0.0,0.0,0.0,0.0,0.0,0.0,0.0,0.0,0.0,0.0,0.0,0.0,0.0,0.0,0.0,0.0,0.0,0.0,0.0,0.0,0.0,0.0,0.0,0.0,0.0,0.0,0.0,0.0,2.2468,2.3984,2.409,2.3992,2.2509,2.1769,2.2202,1.9116,1.7072,1.6908,1.4437,0.0,0.0,0.0,0.0,0.0,0.0,0.0,0.0,0.0,0.0,0.0,0.0,0.0,0.0,0.0,0.0,0.0,0.0,0.0,0.0,0.0,0.0,0.0,0.0,0.0,0.0,0.0,0.0,0.0,0.0,0.0,0.0,0.0,0.0,0.0,0.0,0.0,0.0,0.0,0.0,0.0,0.0,0.0,0.0,0.0,0.0,0.0,0.0,0.0,0.0,0.0,0.0,0.0,0.0,0.0,0.0,0.0,0.0,0.0,1.1666,1.1215,0.0,0.0,0.0,0.0,0.0,0.0,0.0,0.0,0.0,0.0,0.0,0.0,0.0,0.0,0.0,0.0,0.0,0.0,0.0,0.0,0.0,0.0,0.0,0.0,0.0,0.0,0.0,0.0,0.0,0.0,0.0,0.0,0.0,0.0,0.0,0.0,0.0,0.0,0.0,0.0,2.2849,2.4289,2.4356,2.4568,2.2856,2.1496,2.1372,1.9101,1.7819,1.7978,1.6122,0.0,0.0,0.0,0.0,0.0,0.0,0.0,0.0,0.0,0.0,0.0,0.0,0.0,0.0,0.0,0.0,0.0,0.0,0.0,0.0,0.0,0.0,0.0,0.0,0.0,0.0,0.0,0.0,0.0,0.0,0.0,0.0,0.0,0.0,0.0,0.0,0.0,0.0,0.0,0.0,0.0,0.0,0.0,0.0,0.0,0.0,0.0,0.0,0.0,0.0,0.0,0.0,0.0,1.3945,1.3906,1.4499,1.4507,1.4411,1.4401,1.2842,1.2386,1.2598,1.0257,0.0,0.0,0.0,0.0,0.0,0.0,0.0,0.0,0.0,0.0,0.0,0.0,0.0,0.0,0.0,0.0,0.0,0.0,0.0,0.0,0.0,0.0,1.1128,1.1731,1.1949,1.1495,0.9884,0.0,0.0,0.0,0.0,0.0,0.0,0.0,0.0,0.0,0.0,0.0,2.3229,2.4652,2.4596,2.4661,2.3042,2.1359,1.9499,1.9116,1.8789,1.8243,1.7455,1.6708,0.0,0.0,0.0,0.0,0.0,0.0,0.0,0.0,0.0,0.0,0.0,0.0,0.0,0.0,0.0,0.0,0.0,0.0,0.0,0.0,0.0,0.0,0.0,0.0,0.0,0.0,0.0,0.0,0.0,0.0,0.0,0.0,0.575,0.0579,0.0,0.0,0.0,0.0,0.0,0.0,0.0,0.0,0.0,0.0,0.0,0.0,0.0,1.1371,1.24,1.3276,1.3981,1.4364,1.4693,1.5042,1.5132,1.5091,1.5005,1.5054,1.4886,0.0,1.3906,1.2086,0.0,0.0,0.0,0.0,0.0,0.0,0.0,0.0,0.0,0.0,0.0,0.0,0.0,0.0,0.0,0.0,0.0,0.0,0.0,0.0,0.0,0.0,1.2359,1.3006,1.3086,1.2921,1.2178,1.119,1.0631,1.1564,0.9484,0.753,0.0,0.0,0.0,0.0,0.0,0.0,2.3292,2.4561,2.4609,2.4663,2.4354,2.4166,2.3819,2.3559,2.3222,2.2975,2.2089,2.128,2.0729,1.9063,0.0,0.0,0.0,0.0,0.0,0.0,0.0,0.0,0.0,0.0,0.0,0.0,0.0,0.0,0.0,0.0,0.0,0.0,0.0,0.0,0.0,0.0,0.0,0.0,0.0,0.0,0.0,0.0,0.0,0.9645,0.9473,0.6822,0.6458,0.4749,0.0,0.0,0.0,0.0,0.0,0.0,0.0,0.0,0.0,1.267,1.354,1.4312,1.481,1.488,1.4822,1.4836,1.5056,1.5114,1.521,1.519,1.5224,1.5113,1.5217,1.504,1.4667,1.3297,1.1769,1.0463,0.0,0.0,0.0,0.0,1.1192,1.2139,1.2213,1.2787,1.3294,1.2352,0.0,0.0,0.0,0.0,0.0,0.0,0.0,1.0541,1.1221,1.2168,1.4376,1.9539,1.7013,1.3373,1.2991,1.2655,1.3423,1.761,1.6751,1.5095,1.4207,1.0585,0.0,0.0,0.0,1.8979,2.397,2.4657,2.4648,2.4649,2.4636,2.4636,2.4636,2.4369,2.4155,2.4022,2.3487,2.2993,2.2565,2.1323,1.996,0.0,0.0,0.0,0.0,0.0,0.0,0.0,0.0,0.0,0.0,0.0,0.0,0.0,0.0,0.0,0.0,0.0,0.0,0.0,0.0,0.0,0.0,0.0,0.0,0.0,0.0,0.0,0.0,0.7731,0.9532,1.1853,1.0058,0.6373,0.0,0.0,0.0,0.0,0.0,0.0,0.3695,1.0136,1.4048,1.4521,1.5053,1.5291,1.5202,1.5236,1.5217,1.514,1.514,1.5255,1.5267,1.535,1.5343,1.5207,1.5289,1.5286,1.516,1.4201,1.322,1.2305,1.2277,1.223,1.2278,1.2333,1.2583,1.2943,1.3494,1.3645,1.3415,1.2337,1.2578,1.3043,1.2648,0.0,0.0,0.0,0.0,1.2191,1.2581,1.2984,1.5144,2.1709,1.8201,1.3349,1.338,1.509,1.7454,1.9815,2.1233,2.1635,2.0489,1.5215,0.0,1.2397,1.8712,2.3748,2.4971,2.4837,2.4599,2.4877,2.4634,2.4595,2.4743,2.4489,2.4315,2.4315,2.4115,2.3861,2.3567,2.2766,2.1804,2.0708,0.0,0.0,0.0,0.0,0.0,0.0,0.0,0.0,0.0,0.0,0.0,0.0,0.0,0.0,0.0,0.0,0.0,0.0,0.0,0.0,0.0,0.0,0.0,0.0,0.0,0.0,0.0,0.0,0.0,1.2276,0.5784,0.0,0.0,0.0,0.0,1.04,1.2142,1.3061,1.348,1.4614,1.517,1.5236,1.5174,1.5214,1.5175,1.5188,1.5202,1.5208,1.5208,1.5215,1.5228,1.5822,1.5739,1.5214,1.5207,1.5113,1.5113,1.5054,1.4778,1.4096,1.4123,1.416,1.4181,1.4187,1.4168,1.4131,1.4326,1.4194,1.4147,1.3528,1.3032,1.2617,1.258,1.2484,0.0,0.0,1.3324,1.3269,1.3418,1.3383,1.3645,1.4667,1.4105,1.3471,1.3329,1.9835,2.327,1.467,1.9138,2.4063,2.2863,0.0,1.825,2.1705,2.3525,2.4971,2.622,2.5291,2.4801,2.5464,2.4882,2.4723,2.505,2.4783,2.4609,2.4609,2.4596,2.4462,2.4168,2.3581,2.2832,2.1911,1.988,0.0,0.0,0.0,0.0,0.0,0.0,0.0,0.0,0.0,0.0,0.0,0.0,0.0,0.0,0.0,0.0,0.0,0.0,0.0,0.0,0.0,0.0,0.0,0.0,0.0,0.0,0.0,0.0,1.2842,0.9458,0.0,0.8508,0.8682,0.988,1.3102,1.4102,1.4657,1.4896,1.5046,1.5341,1.5786,1.5705,1.5787,1.5835,1.5835,1.5835,1.5835,1.5835,1.5689,1.5771,1.598,1.5918,1.5746,1.535,1.5235,1.5167,1.5149,1.5125,1.4917,1.4893,1.4815,1.4822,1.4871,1.4928,1.4798,1.4854,1.4921,1.471,1.416,1.3816,1.3624,1.3633,1.3577,1.3746,1.3973,1.4016,1.3902,1.4006,1.3947,1.4022,1.4323,1.865,2.2845,2.2865,2.4794,2.5363,2.2076,2.3716,2.5653,2.5158,2.3439,2.2589,2.3863,2.507,2.5949,2.635,2.5972,2.5886,2.6058,2.5935,2.5456,2.4763,2.4644,2.4581,2.4382,2.4356,2.4222,2.3941,2.3541,2.2993,2.2271,2.1176,1.9466,0.0,0.0,0.0,0.0,0.0,0.0,0.0,0.0,0.0,0.0,0.0,0.0,0.0,0.0,0.0,0.0,0.0,0.0,0.0,0.0,0.0,0.0,0.0,0.0,0.0,0.442,0.7244,1.3844,1.2785,1.2246,1.3836,1.4059,1.4159,1.4513,1.5227,1.5441,1.5506,1.5479,1.5608,1.6112,1.6161,1.6189,1.6189,1.6189,1.6189,1.6189,1.6189,1.6041,1.6124,1.6126,1.6064,1.5703,1.5301,1.5187,1.514,1.5276,1.5201,1.5106,1.5142,1.5264,1.5264,1.5264,1.5264,1.5257,1.5216,1.5279,1.509,1.4541,1.4326,1.4365,1.4266,1.4302,1.4386,1.4386,1.4284,1.4354,1.4354,1.4256,1.429,1.4326,1.904,2.3464,2.3597,2.281,2.3321,2.6427,2.6627,2.646,2.6326,2.5744,2.5283,2.5226,2.5855,2.6402,2.633,2.6337,2.6378,2.6357,2.6334,2.6115,2.5251,2.4781,2.4288,2.4077,2.4008,2.3821,2.3634,2.314,2.2686,2.2285,2.1416,2.004,1.817,0.0,0.0,0.0,0.0,0.0,0.0,0.0,0.0,0.0,0.0,0.0,0.0,0.0,0.0,0.0,0.0,0.0,0.0,0.0,0.0,0.0,0.0,0.0,1.166,1.3155,1.4549,1.5093,1.5155,1.5227,1.5175,1.5219,1.5238,1.5194,1.573,1.6088,1.605,1.6182,1.6062,1.6062,1.6008,1.6083,1.6083,1.6083,1.6083,1.6083,1.6083,1.6083,1.6083,1.6076,1.579,1.5244,1.5237,1.5165,1.5228,1.5281,1.5221,1.52,1.5242,1.5181,1.5181,1.5181,1.5181,1.516,1.5217,1.5257,1.5097,1.457,1.4249,1.4312,1.4306,1.4306,1.4306,1.4299,1.4299,1.4299,1.4299,1.4299,1.4272,1.4331,1.4228,1.4435,1.4703,1.4725,1.7356,2.6436,2.7243,2.64,2.6453,2.6356,2.6337,2.6324,2.6324,0.0,2.636,2.6386,2.6386,2.6386,2.6398,2.6391,2.6377,2.4891,2.4037,2.401,2.3479,2.3313,2.3313,2.2472,2.2017,2.2031,2.0601,1.972,1.9439,0.0,0.0,0.0,0.0,0.0,0.0,0.0,0.0,0.0,0.0,0.0,0.0,0.0,0.0,0.0,0.0,0.0,0.0,0.0,0.0,0.0,1.1282,1.3504,1.3555,1.4412,1.4992,1.5104,1.5252,1.5316,1.5874,1.5899,1.5911,1.5856,1.6105,1.6196,1.6151,1.6199,1.6022,1.6022,1.6062,1.6083,1.6083,1.6083,1.6083,1.6083,1.6083,1.6083,1.6076,1.6165,1.6089,1.5845,1.5938,1.5877,1.5835,1.5794,1.5513,1.52,1.5242,1.5181,1.5181,1.5181,1.5181,1.5174,1.514,1.5217,1.5087,1.4481,1.4362,1.4229,1.4303,1.4269,1.4249,1.4326,1.4299,1.4299,1.4299,1.4299,1.4272,1.4331,1.4283,1.6199,2.2966,2.4438,2.5216,2.7786,2.7969,2.7472,2.66,2.6454,2.6334,2.6464,2.6437,2.6464,2.6373,2.6386,2.6386,2.6386,2.6405,2.6094,2.5185,2.4727,2.4249,2.3931,2.3359,2.2828,2.2362,2.2589,2.2726,2.2953,2.171,2.1029,0.0,0.0,0.0,0.0,0.0,0.0,0.0,0.0,0.0,0.0,0.0,0.0,0.0,0.0,0.0,0.0,0.0,0.0,0.0,0.0,0.0,0.0,1.386,1.483,1.501,1.5125,1.5204,1.5533,1.5581,1.573,1.6126,1.6189,1.6089,1.6035,1.6049,1.611,1.6051,1.6058,1.6058,1.6058,1.6004,1.6171,1.6171,1.611,1.6083,1.6083,1.6083,1.6083,1.6076,1.6192,1.6151,1.6144,1.6062,1.6028,1.6028,1.6154,1.5877,1.5574,0.0,0.0,0.0,0.0,1.5181,1.5181,1.5181,1.5279,1.5162,1.4778,1.4678,1.4726,1.4638,1.4423,1.4223,1.4323,1.4256,1.4387,1.4387,1.4306,1.4386,1.4318,1.7306,2.1608,2.698,2.8129,2.8154,2.8154,2.8278,0.0,2.7268,2.673,2.637,2.6427,2.6387,2.6348,2.64,2.6386,2.6386,2.6386,2.6472,2.5879,2.4675,2.4547,0.0,0.0,0.0,2.2487,2.2686,2.3106,0.0,0.0,0.0,0.0,0.0,2.33,0.0,0.0,2.2191,2.2271,0.0,0.0,0.0,0.0,0.0,0.0,0.0,0.0,0.0,0.0,0.0,0.0,0.0,0.0,0.0,0.0,1.4892,1.5399,1.5976,1.5684,1.5547,1.605,1.6189,1.6089,1.6103,1.6029,1.6164,1.6112,1.6125,1.6179,1.6299,1.6101,0.0,0.0,0.0,1.6125,1.6125,1.6178,1.611,1.611,1.609,1.6083,1.6083,1.6083,1.6083,1.6083,1.6083,1.6083,1.6069,1.6138,1.6069,1.6028,1.552,1.5133,1.5208,1.5187,1.5181,1.5181,1.5181,0.0,0.0,1.519,1.5278,1.5167,1.5153,1.4767,1.4388,1.4368,1.4457,1.435,1.4336,1.4346,1.4527,1.5593,2.2168,2.8155,2.8142,2.8127,2.8136,2.8136,2.8136,2.8238,2.8176,2.7317,2.6646,2.6558,2.6505,2.6413,2.6348,2.6453,2.644,2.644,2.6329,0.0,2.4894,2.4829,2.4341,2.3151,2.2612,2.2623,2.3365,2.397,2.4258,2.4165,2.4342,2.501,2.6052,2.664,2.6961,2.6961,2.4302,2.4035,0.0,0.0,0.0,0.0,0.0,0.0,0.0,0.0,0.0,0.0,0.0,0.0,0.0,0.0,0.0,1.4569,1.5526,1.5904,1.6133,1.5981,1.6049,1.6041,1.6144,1.6083,1.6004,1.6045,1.6118,1.6055,1.6483,1.6912,1.6735,1.6735,1.6735,1.6735,1.6912,1.6687,1.6062,1.6132,1.6058,1.6058,1.6137,0.0,1.6083,1.6083,1.6083,1.6083,1.6083,1.6083,1.6083,1.6049,1.6165,1.6028,1.552,1.52,1.5154,1.5228,1.5181,1.5181,1.5181,1.5167,1.514,1.514,1.512,1.5265,1.5156,1.5114,0.0,1.497,1.509,1.486,1.4397,1.433,1.6278,2.3754,2.6922,2.822,2.8234,2.8167,2.8136,2.8136,2.8136,2.8123,2.8238,2.7996,2.7879,2.7785,2.6998,2.6418,2.6365,2.6344,2.6386,2.6386,2.6437,2.631,2.6114,2.6047,2.5568,2.4327,2.4156,2.3784,2.3062,2.49,2.5922,2.5878,2.6222,2.6426,2.6653,2.7241,2.7776,2.8243,2.7415,2.7121,0.0,0.0,0.0,0.0,0.0,0.0,0.0,0.0,0.0,0.0,0.0,0.6735,0.7099,0.0,1.4878,1.5568,1.5925,1.6117,1.6062,1.6071,1.6125,1.611,1.6004,1.6125,1.6199,1.6415,1.6483,1.6625,1.6845,1.7092,1.6962,1.6968,1.6968,1.6968,1.7099,1.6852,1.6632,1.6625,1.6347,1.5996,1.6058,1.6031,1.6091,1.6024,1.6191,1.6191,1.6117,1.6083,1.6083,1.6083,1.6035,1.6144,1.5723,1.554,1.5207,1.5133,1.5248,1.5181,1.5181,1.5181,1.5181,1.5181,1.5181,1.5167,1.5286,1.5265,1.5252,1.5176,1.5243,1.5132,1.4881,1.8467,2.3365,2.8028,2.899,2.8951,2.8273,2.8195,2.818,2.818,2.8243,2.8136,2.8136,2.8211,2.8203,2.8263,2.7673,2.7251,2.7281,2.731,2.7041,2.6488,2.6413,2.6427,2.6427,2.6383,2.6175,2.5531,2.5518,2.5238,2.4688,2.6329,2.7064,2.6452,2.7078,2.7629,2.8117,2.8377,2.8751,2.9045,2.9032,2.8871,0.0,0.0,0.0,0.0,0.0,0.0,0.0,0.7571,1.4537,1.4476,1.4023,1.3971,1.4569,1.5035,1.5494,1.6001,1.6131,1.6171,1.6293,1.6225,1.6272,1.6361,1.6245,1.6319,1.6353,1.6776,1.7051,1.6996,1.701,1.7065,1.6971,1.6978,1.6978,1.6978,1.7071,1.701,1.701,1.6953,1.6666,1.6141,1.6212,1.6205,1.6306,1.6199,1.6145,1.6132,1.6018,1.6151,1.6123,1.6123,1.611,1.6069,1.6144,1.5737,1.5301,1.5267,1.516,1.5228,1.5228,1.5208,1.5181,1.5181,1.5181,1.5181,1.5181,1.5181,1.5181,1.5181,1.5224,1.5618,1.7477,2.3911,2.9988,2.9907,2.9893,2.9716,2.8736,2.8472,2.8419,2.8221,2.8167,2.8163,2.8217,2.8177,2.8238,2.8203,2.8163,2.8261,2.8208,2.814,2.7894,2.679,2.6738,2.6712,2.6712,2.669,2.68,2.6759,2.6746,2.6786,2.672,2.7688,2.773,2.6993,2.7865,2.8644,2.9326,2.9432,2.9566,2.9579,2.9806,2.9793,0.0,0.0,0.0,0.0,0.0,0.0,0.0,0.7909,1.5019,1.5054,1.5011,1.5156,1.5817,1.5913,1.6008,1.6,1.6083,1.6293,1.6731,1.6856,1.6939,1.6918,1.6932,1.6995,1.6927,1.6941,1.7003,1.6944,1.6958,1.6965,1.6978,1.6978,1.6978,1.6978,1.6965,1.6958,1.6958,1.7003,1.6707,1.6086,1.6571,1.6925,1.6939,1.6925,1.6707,1.6075,1.6062,1.6185,1.6078,1.6078,1.5998,1.6083,1.6062,1.6151,1.5986,1.5462,1.5122,1.5187,1.5187,1.5296,1.5181,1.5181,1.5181,1.5181,1.5181,1.5181,1.5181,1.5181,1.516,1.7219,2.6018,2.9116,2.9977,2.9953,2.9851,2.9839,2.9825,2.9781,2.9385,2.8406,2.8167,2.8217,2.8129,2.814,2.8136,2.8278,2.8265,2.8251,2.8224,2.819,2.8207,2.8027,2.7975,2.8003,2.8003,2.7975,2.7948,2.8084,2.8084,2.7962,2.7923,2.8157,2.8283,2.8685,2.899,2.9352,2.9446,2.9726,2.9873,2.9873,2.99,2.99,0.0,0.0,0.0,0.0,0.0,0.1515,0.7418,1.2391,1.5738,1.5814,1.5671,1.5774,1.5973,1.6147,1.6117,1.6179,1.6031,1.6402,1.6947,1.7059,1.6912,1.6618,1.6529,1.6604,1.6934,1.6968,1.703,1.6971,1.6978,1.6978,1.6978,1.6978,1.6978,1.6978,1.6978,1.6978,1.6978,1.7044,1.6795,1.6668,1.6941,1.692,1.7003,1.6913,1.6817,1.6517,1.6646,1.6577,1.6515,1.6212,1.6137,1.6083,1.6083,1.6042,1.6165,1.5818,1.5669,1.5725,1.5247,1.5174,1.5107,1.5208,1.5181,1.5181,1.5181,1.5181,1.5181,1.5181,1.5133,1.6212,2.0372,2.5536,2.9964,2.9973,2.9927,2.9931,2.9931,2.9825,2.9515,2.8334,2.8273,2.8128,2.8247,2.8751,2.9041,2.8274,2.8167,2.8136,2.8136,2.8211,2.8144,2.8144,2.8217,2.8149,2.8149,2.813,2.8224,2.8224,2.8203,2.8207,2.8261,2.8856,2.9258,2.9501,2.9622,2.9757,2.974,2.986,2.9913,2.9913,2.9913,2.9913,0.0,0.0,0.0,0.0,0.2164,0.6291,1.3715,1.5779,1.6173,1.6098,1.6014,1.6055,1.6055,1.611,1.6172,1.6015,1.6031,1.6361,1.6883,1.6961,1.6556,1.5991,1.5844,1.6096,1.6469,1.679,1.6927,1.6904,1.6917,1.6937,1.6978,1.6978,1.6978,1.6978,1.6978,1.6978,1.6978,1.7085,1.7085,1.6978,1.7078,1.7085,1.6978,1.7078,1.6968,1.7064,1.696,1.6891,1.6632,1.6313,1.6038,1.6198,1.6157,1.6144,1.6123,1.6172,1.6028,1.6084,1.5574,1.5281,1.52,1.5276,1.5215,1.5181,1.5181,1.5181,1.5181,1.5181,1.512,1.5238,1.5204,2.0437,2.6506,2.9274,2.9893,2.9913,2.9913,2.9891,2.9676,2.8876,2.8653,2.867,2.8749,2.93,2.9662,2.8762,2.8711,2.8574,2.8193,2.8193,2.8193,2.8193,2.8193,2.8193,2.8193,2.8208,2.834,2.8724,2.8725,2.8683,2.8749,2.938,2.9907,2.9988,2.981,2.9904,2.9913,2.9913,2.9913,2.9913,2.9913,2.9913,0.0,0.0,0.0,0.0,0.7899,1.5712,1.6007,1.6165,1.6056,1.6069,1.6151,1.6055,1.6055,1.614,1.6098,1.6041,1.6192,1.6302,1.6914,1.6501,1.5837,1.5276,1.5139,1.5308,1.5257,1.635,1.7073,1.6955,1.6975,1.7037,1.6971,1.6978,1.6978,1.6978,1.6978,1.6978,1.6978,1.6978,1.6978,1.6978,1.6978,1.6978,1.6978,1.6978,1.6971,1.6965,1.6965,1.6661,1.6099,1.6093,1.6008,1.6075,1.6145,1.6098,1.6078,1.613,1.6179,1.6048,1.6041,1.5649,1.5214,1.5207,1.5113,1.5181,1.5181,1.5181,1.5181,1.5181,1.5181,1.5153,1.5224,1.5491,1.8051,2.7682,2.9893,2.9913,2.9913,2.9891,2.988,2.988,2.9839,2.9918,2.9825,2.9839,2.9932,2.9825,2.9811,2.942,2.8417,2.823,2.823,2.823,2.823,2.823,2.823,2.823,2.8644,2.9822,2.9836,2.9784,2.9853,2.9866,2.9824,2.99,2.99,2.9913,2.9913,2.9913,2.9913,2.9913,2.9913,2.9913,0.0,0.0,0.1654,0.8899,1.369,1.67,1.6771,1.6412,1.6171,1.6172,1.6021,1.605,1.5643,1.5452,1.5506,1.5554,1.5852,1.6083,1.6289,1.5957,1.5485,1.5152,1.5152,1.5126,1.5175,1.5832,1.6378,1.6359,1.681,1.6968,1.71,1.6909,1.6949,1.7049,1.6956,1.6909,1.6909,1.7026,1.6978,1.6978,1.6978,1.6978,1.6978,1.6978,1.6978,1.6978,1.7085,1.6802,1.6741,1.6646,1.6776,1.6721,1.6779,1.6515,1.6085,1.6137,1.6049,1.6192,1.6089,1.5986,1.5676,1.5281,1.518,1.512,1.5215,1.5181,1.5181,1.5181,1.5181,1.5153,1.5224,1.5121,1.7668,2.75,2.9893,2.9913,2.9913,2.9847,2.9972,2.9972,2.9891,2.9864,2.9945,2.9891,2.9864,2.9958,2.9947,2.9822,2.9433,2.9246,2.9246,2.9246,2.9246,2.9246,2.9246,2.9407,2.9528,2.9934,2.992,2.9878,2.9958,2.9972,2.982,2.9913,2.9913,2.9913,2.9913,2.9913,2.9913,2.9913,2.9913,2.9913,0.0,0.0,0.2678,1.377,1.6646,1.7045,1.7017,1.6515,1.611,1.6098,1.6004,1.5535,1.5032,1.478,1.4691,1.5201,1.5732,1.6041,1.6056,1.5797,1.5564,1.5839,1.5473,1.525,1.5468,1.5622,1.587,1.5792,1.6592,1.7044,1.6956,1.7243,1.7317,1.7412,1.727,1.7195,1.6976,1.7046,1.6978,1.6978,1.6978,1.6978,1.6978,1.6978,1.6978,1.6978,1.7092,1.7044,1.7037,1.6941,1.69,1.7092,1.6946,1.6646,1.6158,1.6011,1.613,1.6062,1.6117,1.6035,1.5952,1.5712,1.5404,1.5147,1.5228,1.5194,1.5181,1.5133,1.512,1.5279,1.5169,1.7732,2.2049,2.8471,2.9893,2.9913,2.9913,2.9913,2.9913,2.9913,2.9913,2.9913,2.9913,2.9913,2.9913,2.9913,2.9988,2.9947,2.9947,2.9947,2.9947,2.9947,2.9947,2.9947,2.9947,2.992,2.9851,2.9851,2.982,2.9913,2.9913,2.9913,2.9913,2.9913,2.9913,2.9913,2.9913,2.9913,2.9913,2.9913,2.9913,2.9913,0.0,0.0,0.2737,1.4123,1.6913,1.6939,1.6925,1.6467,1.6069,1.6045,1.5533,1.4921,1.4228,1.3804,1.3933,1.4977,1.5666,1.6209,1.6213,1.6225,1.6279,1.6942,1.5917,1.5505,1.6103,1.5711,1.537,1.5297,1.6306,1.7039,1.6989,1.7573,1.7885,1.7892,1.796,1.7655,1.6996,1.7066,1.6985,1.6978,1.6978,1.6978,1.6978,1.6978,1.6978,1.6978,1.6978,1.6978,1.6978,1.6978,1.6978,1.6965,1.701,1.6639,1.6075,1.6125,1.6185,1.6049,1.6117,1.6398,1.6867,1.6914,1.6561,1.6045,1.6003,1.5598,1.5167,1.5224,1.5568,1.5932,1.6008,2.282,2.9871,2.9858,2.988,2.9913,2.9913,2.9913,2.9913,2.9913,2.9913,2.9913,2.9913,2.9913,2.9913,2.9913,2.9913,2.9913,2.9913,2.9913,2.9913,2.9913,2.9913,2.9913,2.9913,2.9913,2.9913,2.9913,2.9913,2.9913,2.9913,2.9913,2.9913,2.9913,2.9913,2.9913,2.9913,2.9913,2.9913,2.9913,2.9913,2.9913,0.0,0.0,0.2669,1.425,1.6913,1.6884,1.6447,1.6189,1.6017,1.5579,1.417,1.279,1.1857,1.3311,1.475,1.4625,1.5652,1.6426,1.6813,1.6687,1.6797,1.7052,0.0,1.6659,1.6849,1.6707,1.6452,1.6601,1.6809,1.7236,1.7731,1.7799,1.7861,1.7964,1.7834,1.7534,1.7087,1.7049,1.708,1.6978,1.6978,1.6978,1.6978,1.6978,1.6978,1.6978,1.6978,1.6978,1.6978,1.6978,1.6978,1.6944,1.7009,1.6849,1.6766,1.6199,1.6041,1.6189,1.607,2.119,2.7801,2.7815,2.7712,2.7475,2.7473,2.183,1.5128,1.5278,2.0465,2.6167,2.6165,2.8082,2.9832,2.9853,2.9953,2.9913,2.9913,2.9913,2.9913,2.9913,2.9913,2.9913,2.9913,2.9913,2.9913,2.9913,2.9913,2.9913,2.9913,2.9913,2.9913,2.9913,2.9913,2.9913,2.9913,2.9913,2.9913,2.9913,2.9913,2.9913,2.9913,2.9913,2.9913,2.9913,2.9913,2.9913,2.9913,2.9913,2.9913,2.9913,2.9913,2.9913,0.6109,0.374,0.2728,1.3878,1.6426,1.587,1.4919,1.4792,1.4529,1.3607,1.2495,1.1421,1.0743,1.246,1.4225,1.4674,1.5679,1.6544,1.6862,1.7106,1.7133,1.7252,1.725,1.7326,1.7363,1.7367,1.729,1.749,1.7415,1.7518,1.7861,1.793,1.7998,1.786,1.7944,1.7806,1.7446,1.7063,1.6909,1.6978,1.6978,1.6978,1.6978,1.6978,1.6978,1.6978,1.6978,1.6978,1.6978,1.6978,1.6951,1.7085,1.7058,1.9637,2.351,2.3163,2.2923,2.2945,2.2974,2.6759,3.1736,3.1753,3.1717,3.153,3.1009,2.6643,2.1694,2.1713,2.5605,2.9821,2.9973,2.992,2.9893,2.994,2.9913,2.9913,2.9913,2.9913,2.9913,2.9913,2.9913,2.9913,2.9913,2.9913,2.9913,2.9913,2.9913,2.9913,2.9913,2.9913,2.9913,2.9913,2.9913,2.9913,2.9913,2.9913,2.9913,2.9913,2.9913,2.9913,2.9913,2.9913,2.9967,2.9907,2.9907,2.996,2.9884,2.9884,2.9832,2.9907,2.9907,2.9907,1.3873,0.9721,0.4426,1.4036,1.5845,1.4743,1.3355,1.28,1.2307,1.117,1.0792,1.0486,1.0289,1.1476,1.2937,1.4584,1.5727,1.6385,1.682,1.721,1.7374,1.7435,1.7801,1.7906,1.7926,1.7926,1.7982,1.7895,1.7909,1.7909,1.7909,1.7792,1.786,1.786,1.7964,1.7989,1.7918,1.7256,1.6962,1.7039,1.7039,1.7039,1.7039,1.7039,1.7039,1.7039,1.7039,1.7026,1.7005,1.7005,1.6924,1.721,1.8669,2.4304,3.1895,3.1832,3.1926,3.1907,3.1699,3.1671,3.16,3.1744,3.165,3.1543,3.0408,3.0052,2.9896,2.9821,2.9858,2.9973,2.9967,2.9913,2.9913,2.9913,2.9913,2.9913,2.9913,2.9913,2.9913,2.9913,2.9913,2.9913,2.9913,2.9913,2.9913,2.9913,2.994,2.9953,2.9913,2.9913,2.9913,2.9913,2.9913,2.9913,2.9913,2.9913,2.9913,2.9913,2.9913,2.9927,2.9967,2.9967,2.9907,2.9977,3.0003,3.0122,3.0162,3.0162,3.0044,3.0199,3.0003,2.999,1.3813,1.5289,1.3845,1.5679,1.5394,1.4387,1.3294,1.1687,1.0336,1.0082,0.9944,1.0009,1.0065,1.1328,1.2498,1.3387,1.4458,1.5362,1.6371,1.703,1.7398,1.7559,1.7738,1.7875,1.7998,1.7792,1.7792,1.7826,1.7826,1.7826,1.7826,1.7846,1.786,1.786,1.7846,1.7964,1.7799,1.7344,1.7047,1.6908,1.6908,1.6908,1.6908,1.6908,1.6908,1.6908,1.6908,1.7049,1.6936,1.6936,1.7012,1.784,2.709,3.1668,3.316,3.3143,3.3124,3.303,3.2102,3.1684,3.1627,3.1757,3.1719,3.1718,3.145,3.0677,2.986,2.995,2.996,2.9967,2.9927,2.9913,2.9913,2.9913,2.9913,2.9913,2.9913,2.9913,2.9913,2.9913,2.9913,2.9913,2.9913,2.9913,2.9913,2.9913,2.992,2.9973,2.994,2.9913,2.9913,2.9913,2.9913,2.9913,2.9913,2.9913,2.9913,2.9913,2.9913,2.9827,2.9858,2.9871,2.9808,2.9886,3.0912,3.1375,3.1416,3.1416,3.1389,3.1348,3.0307,2.9886,1.1882,1.4406,1.634,1.6212,1.5407,1.4421,1.333,1.1867,1.0645,0.9971,0.9742,0.9771,0.9741,1.0785,1.1742,1.2176,1.3254,1.4434,1.5567,1.6316,1.6865,1.7344,1.7841,1.7792,1.786,1.786,1.786,1.786,1.786,1.786,1.786,1.786,1.786,1.786,1.786,1.7792,1.7875,1.765,1.7568,1.7426,1.7426,1.7426,1.7426,1.7426,1.7426,1.7426,1.7426,1.7378,1.7532,1.709,1.7107,1.8069,2.9089,3.3435,3.336,3.3332,3.3354,3.3219,3.2759,3.2572,3.2525,3.1938,3.162,3.1652,3.1705,3.1248,3.0768,3.0005,2.9873,2.995,2.995,2.995,2.995,2.995,2.995,2.9911,2.996,2.9933,2.9893,2.994,2.9913,2.9953,2.9907,2.9933,2.9986,2.9937,2.9873,3.0122,3.0799,3.0368,2.9858,2.994,2.9913,2.9967,2.992,2.9933,2.9805,2.995,2.995,2.9821,2.9952,3.0568,3.0912,3.081,3.1434,3.1729,3.1678,3.1678,3.1797,3.1661,3.1022,3.081,1.162,1.3273,1.6473,1.6347,1.5442,1.4289,1.3234,1.225,1.1287,1.0032,0.9727,0.9625,0.9462,1.0249,1.105,1.1423,1.2481,1.3695,1.4964,1.571,1.6442,1.727,1.767,1.786,1.786,1.786,1.786,1.786,1.786,1.786,1.786,1.786,1.786,1.786,1.786,1.7812,1.793,1.793,1.7861,1.7961,1.7961,1.7961,1.7961,1.7961,1.7961,1.7961,1.7961,1.7947,1.7912,1.7433,1.7195,1.8351,2.9111,3.3455,3.3494,3.3427,3.3479,3.3305,3.3305,3.3327,3.3293,3.2403,3.1812,3.1717,3.1705,3.1745,3.1597,3.0531,3.0228,3.036,3.036,3.036,3.036,3.036,3.036,3.0307,3.0292,3.0043,2.995,2.9867,2.9867,2.9946,2.9911,3.0185,3.0318,3.0333,3.0228,3.065,3.1628,3.0849,3.0267,3.0361,3.01,2.996,2.9924,3.0199,3.0332,3.0346,3.036,3.0201,3.0254,3.1114,3.1661,3.1732,3.1745,3.1652,3.1664,3.1664,3.1759,3.1745,3.1745,3.1772,1.6432,1.6333,1.6319,1.6191,1.533,1.4251,1.303,1.1857,1.0765,0.9822,0.9408,0.9293,0.9544,0.9897,1.0514,1.1613,1.2352,1.3308,1.4787,1.5737,1.6517,1.7141,1.7595,1.786,1.786,1.786,1.786,1.786,1.786,1.786,1.786,1.786,1.786,1.786,1.786,1.786,1.7846,1.7846,1.7826,1.7826,1.7826,1.7826,1.7826,1.7826,1.7826,1.7826,1.7826,1.7978,1.7847,1.7933,1.7918,1.8926,2.9239,3.3429,3.3356,3.3306,3.34,3.3374,3.3374,3.3399,3.3381,3.3368,3.2545,3.1627,3.1614,3.165,3.1651,3.161,3.162,3.1614,3.1614,3.1614,3.1614,3.1614,3.1614,3.1614,3.1587,3.0742,2.9847,2.995,2.9913,2.9821,2.9977,3.0791,3.1587,3.1614,3.1448,3.1529,3.1669,3.1647,3.1488,3.1573,3.0504,2.9978,2.9964,3.0818,3.1587,3.1614,3.1614,3.1539,3.1597,3.161,3.1745,3.1623,3.1637,3.165,3.1664,3.1664,3.165,3.1637,3.1637,3.1757,1.5596,1.649,1.6341,1.6022,1.5086,1.396,1.2847,1.1599,1.0446,0.9639,0.93,0.9218,0.9435,0.9713,1.0188,1.1029,1.1443,1.2149,1.3559,1.4373,1.5248,1.6388,1.7005,1.7473,1.7826,1.786,1.786,1.786,1.786,1.786,1.786,1.786,1.786,1.786,1.786,1.786,1.786,1.786,1.786,1.786,1.786,1.786,1.786,1.786,1.786,1.786,1.786,1.7826,1.7998,1.7861,2.2113,2.8779,3.2843,3.3976,3.3409,3.3303,3.3359,3.3414,3.3414,3.3347,3.3453,3.3453,3.317,3.2559,3.1978,3.1606,3.1705,3.1705,3.1625,3.1732,3.1732,3.1732,3.1732,3.1732,3.1732,3.1691,3.1729,3.1275,3.0969,3.0899,3.0491,3.0175,3.0875,3.1394,3.1743,3.1718,3.1638,3.1665,3.1759,3.1638,3.1786,3.1715,3.0677,3.0188,3.0875,3.1407,3.1756,3.1732,3.1732,3.1786,3.1705,3.1705,3.1759,3.1664,3.1633,3.1633,3.1664,3.1633,3.1713,3.1713,3.1713,3.1653,1.4921,1.6137,1.6103,1.5798,1.4855,1.3729,1.2678,1.143,1.029,0.9591,0.9293,0.9211,0.9415,0.9618,0.9971,1.0616,1.0921,1.1552,1.2901,1.3675,1.4584,1.5859,1.6503,1.706,1.7609,1.7792,1.786,1.786,1.786,1.786,1.786,1.786,1.786,1.786,1.786,1.786,1.786,1.786,1.786,1.786,1.786,1.786,1.786,1.786,1.786,1.786,1.786,1.786,1.7846,1.7895,2.4731,3.5191,3.5217,3.467,3.3891,3.3501,3.3343,3.3426,3.3467,3.3467,3.332,3.344,3.3439,3.3341,3.2478,3.1885,3.177,3.169,3.1664,3.1664,3.1664,3.1664,3.1664,3.1664,3.1664,3.1623,3.1625,3.1772,3.1691,3.162,3.0996,3.0663,3.1624,3.1718,3.1652,3.1637,3.1664,3.1664,3.1664,3.1664,3.1786,3.1611,3.0956,3.069,3.1637,3.1732,3.1665,3.165,3.1664,3.1664,3.1664,3.1664,3.1704,3.1784,3.1766,3.1832,3.2149,3.1912,3.1785,3.1785,3.2018,3.2177,1.5595,1.5689,1.5784,1.5486,1.4624,1.3573,1.2528,1.1362,1.0324,0.9727,0.9367,0.9245,0.9551,0.9612,0.9856,1.0595,1.1097,1.1857,1.3207,1.417,1.5011,1.5764,1.6252,1.67,1.7154,1.7602,1.786,1.786,1.786,1.786,1.786,1.786,1.786,1.786,1.786,1.786,1.786,1.786,1.786,1.786,1.786,1.786,1.786,1.786,1.786,1.786,1.786,1.786,1.7846,1.7799,2.4684,3.5213,3.511,3.522,3.5139,3.3864,3.3376,3.3315,3.3399,3.3386,3.3369,3.3306,3.3439,3.3422,3.3408,3.2559,3.1614,3.1744,3.1664,3.1664,3.1664,3.1664,3.1664,3.1664,3.1664,3.1664,3.1664,3.1664,3.1773,3.1705,3.1679,3.1773,3.1705,3.1679,3.1664,3.1664,3.1664,3.1664,3.1664,3.1664,3.1664,3.1664,3.1664,3.1746,3.1678,3.1705,3.1664,3.1664,3.1664,3.1664,3.1664,3.1664,3.1784,3.1666,3.1666,3.2251,3.3406,3.231,3.1659,3.1659,3.2767,3.3361,1.333,1.5548,1.5593,1.5493,1.5093,1.4376,1.2641,1.1295,1.0223,0.9734,0.953,0.9496,0.9591,0.9686,1.01,1.1165,1.1457,1.1979,1.3227,1.4177,1.4977,1.5628,1.6734,1.7494,1.7636,1.7772,1.786,1.786,1.786,1.786,1.786,1.786,1.786,1.786,1.786,1.786,1.786,1.786,1.786,1.786,1.786,1.786,1.786,1.786,1.786,1.786,1.786,1.786,1.7846,1.7895,2.4806,3.5252,3.5272,3.511,3.5207,3.4783,3.4649,3.4541,3.4571,3.4192,3.3409,3.3316,3.3306,3.3453,3.3476,3.2572,3.1614,3.1744,3.1664,3.1664,3.1664,3.1664,3.1664,3.1664,3.1664,3.1664,3.1664,3.1664,3.165,3.1759,3.161,3.165,3.1746,3.161,3.1664,3.1664,3.1664,3.1664,3.1664,3.1664,3.1664,3.1664,3.1664,3.1637,3.1746,3.1623,3.1664,3.1664,3.1646,3.1739,3.1739,3.1719,3.1658,3.1736,3.239,3.3084,3.342,3.2969,3.2839,3.2839,3.3264,3.3412,0.769,1.1016,1.2566,1.2561,1.2525,1.2086,1.0842,1.0412,1.0154,0.97,0.9564,0.9544,0.9598,0.9727,1.0141,1.1118,1.1375,1.1884,1.3139,1.4089,1.4984,1.5866,1.6944,1.7609,1.7609,1.7758,1.786,1.786,1.786,1.786,1.786,1.786,1.786,1.786,1.786,1.786,1.786,1.786,1.786,1.786,1.786,1.786,1.786,1.786,1.786,1.786,1.786,1.786,0.0,1.7944,2.3484,3.2145,3.427,3.5311,3.516,3.5261,3.5193,3.5098,3.5115,3.4733,3.3957,3.3501,3.3439,3.336,3.3278,3.2559,3.164,3.1673,3.162,3.1797,3.169,3.1744,3.1797,3.169,3.1664,3.1664,3.1664,3.1664,3.1664,3.1664,3.1664,3.1664,3.1664,3.1664,3.1664,3.1664,3.1664,3.1664,3.1664,3.1664,3.1704,3.162,3.162,3.166,3.1766,3.1784,3.1664,3.1664,3.1726,3.1885,3.2324,3.2372,3.2363,3.2274,3.3103,3.3395,3.3327,3.3489,3.3372,3.3372,3.3334,3.3414,0.0,0.3474,0.706,0.7117,0.7072,0.711,0.7645,0.8904,0.0,0.9632,0.949,0.9456,0.9652,0.9781,1.0073,1.0751,1.1097,1.1735,1.3064,1.4061,1.514,1.6463,1.6985,1.7243,1.7243,1.7616,1.786,1.786,1.786,1.786,1.786,1.786,1.786,1.786,1.786,1.786,1.786,1.786,1.786,1.786,1.786,1.786,1.786,1.786,1.786,1.786,1.786,1.786,1.7846,1.7964,2.1213,2.6981,3.2381,3.4741,3.5164,3.5133,3.52,3.5124,3.5238,3.5211,3.4877,3.3811,3.3426,3.336,3.2881,3.239,3.1732,3.1706,3.1706,3.1832,3.177,3.1686,3.1614,3.173,3.1664,3.1664,3.1664,3.1664,3.1664,3.1664,3.1664,3.1664,3.1664,3.169,3.1704,3.1704,3.1704,3.1704,3.1717,3.1704,3.1797,3.1666,3.1706,3.1812,3.1854,3.1819,3.173,3.173,3.1779,3.2171,3.3271,3.3338,3.3402,3.3449,3.3449,3.3372,3.3414,3.3414,3.3414,3.3414,3.3427,3.3427,0.0,0.0,0.1824,0.1777,0.1782,0.2418,0.0,0.7484,0.9559,0.9496,0.9496,0.9741,1.0351,1.0304,1.0629,1.2033,1.2318,1.2752,1.3878,1.5194,1.6422,1.7426,1.7636,1.7704,1.7704,1.7792,1.786,1.786,1.786,1.786,1.786,1.786,1.786,1.786,1.786,1.786,1.786,1.786,1.786,1.786,1.786,1.786,1.786,1.786,1.786,1.786,1.786,1.786,1.786,1.7826,2.1295,2.6745,2.8091,3.1332,3.5191,3.5124,3.5151,3.5151,3.479,3.4563,3.4336,3.3708,3.3467,3.34,3.3334,3.3066,3.2942,3.2505,3.2425,3.2372,3.231,3.2051,3.1614,3.173,3.1664,3.1664,3.1664,3.1664,3.1664,3.1664,3.1664,3.1664,3.1664,3.1646,3.1779,3.1779,3.1779,3.1653,3.1658,3.1706,3.168,3.1736,3.2438,3.2922,3.2976,3.2191,3.1684,3.1684,3.1725,3.2117,3.3429,3.3489,3.3453,3.332,3.332,3.3347,3.3414,3.3414,3.3414,3.3414,3.3426,3.3413,0.0,0.0,0.0,0.0,0.0,0.076,0.3849,0.6928,0.9189,0.9408,0.9503,0.9774,1.031,1.0561,1.107,1.2237,1.2712,1.3444,1.4909,1.6049,1.7012,1.7772,1.786,1.786,1.786,1.786,1.786,1.786,1.786,1.786,1.786,1.786,1.786,1.786,1.786,1.786,1.786,1.786,1.786,1.786,1.786,1.786,1.786,1.786,1.786,1.786,1.786,1.786,1.786,1.786,2.1335,2.6529,2.7455,3.0916,3.5177,3.5044,3.499,3.495,3.4656,3.4362,3.4068,3.3734,3.3534,3.3414,3.3414,3.332,3.3332,3.2826,3.2746,3.2679,3.2606,3.2291,3.1785,3.1713,3.1757,3.1664,3.1664,3.1664,3.1664,3.1664,3.1664,3.1704,3.1633,3.1766,3.1925,3.2485,3.2512,3.2358,3.1841,3.1736,3.197,3.2483,3.2969,3.3456,3.3381,3.2933,3.2392,3.2545,3.2379,3.2749,3.3422,3.3466,3.3414,3.3414,3.3414,3.3414,3.3414,3.3333,3.3399,3.3413,3.3475,3.3758,0.0,0.1113,0.186,0.0391,0.0,0.0788,0.3904,0.6884,0.9116,0.9462,0.9605,0.9849,1.0304,1.0907,1.1572,1.2284,1.303,1.415,1.5961,1.668,1.7222,1.7792,1.786,1.786,1.786,1.786,1.786,1.786,1.786,1.786,1.786,1.786,1.786,1.786,1.786,1.786,1.786,1.786,1.786,1.786,1.786,1.786,1.786,1.786,1.786,1.786,1.786,1.786,1.786,1.786,2.1335,2.6755,2.8382,3.1593,3.5097,3.4843,3.4723,3.4656,3.4362,3.4055,3.3814,3.3814,3.3627,3.3414,3.3414,3.3414,3.336,3.312,3.304,3.2959,3.2902,3.239,3.1868,3.1759,3.1713,3.173,3.1677,3.1664,3.1664,3.1664,3.1704,3.181,3.164,3.1746,3.2318,3.3239,3.3475,3.307,3.2012,3.1972,3.2274,3.3238,3.3476,3.3372,3.3387,3.3414,3.3426,3.3375,3.3354,3.3476,3.3476,3.3493,3.3414,3.3414,3.3414,3.3414,3.3414,3.3492,3.3435,3.3665,3.3752,3.4143,0.0,0.5973,1.0122,0.1975,0.0,0.0913,0.4511,0.7521,0.9707,0.993,1.0073,1.0541,1.1728,1.204,1.2522,1.3756,1.4584,1.5486,1.6673,1.7026,1.7338,1.7812,1.786,1.786,1.786,1.786,1.786,1.786,1.786,1.786,1.786,1.786,1.786,1.786,1.786,1.786,1.786,1.786,1.786,1.786,1.786,1.786,1.786,1.786,1.786,1.786,1.786,1.786,1.786,1.786,2.1335,2.6529,2.6765,3.009,3.483,3.4776,3.4603,3.4349,3.4055,3.3748,3.348,3.348,3.3454,3.3414,3.3414,3.3414,3.34,3.336,3.3347,3.328,3.3224,3.3143,3.2996,3.2445,3.2283,3.2176,3.173,3.1664,3.1664,3.1664,3.2082,3.227,3.1872,3.2505,3.3287,3.3354,3.3368,3.3435,3.324,3.3066,3.3238,3.332,3.3347,3.3374,3.3414,3.3414,3.3374,3.3493,3.3334,3.3347,3.3347,3.3387,3.3414,3.3414,3.3414,3.3414,3.3414,3.3492,3.3895,3.4829,3.4909,3.5031,0.0,0.7002,1.3303,0.8886,0.578,0.4802,0.8232,1.0241,1.1163,1.0995,1.1138,1.1504,1.2372,1.2854,1.3573,1.4923,1.5696,1.6361,1.7005,1.7297,1.7541,1.7826,1.786,1.786,1.786,1.786,1.786,1.786,1.786,1.786,1.786,1.786,1.786,1.786,1.786,1.786,1.786,1.786,1.786,1.786,1.786,1.786,1.786,1.786,1.786,1.786,1.786,1.786,1.786,1.786,2.127,2.6347,2.6347,2.9637,3.4509,3.4349,3.4095,3.3814,3.3681,3.3534,3.3414,3.3414,3.3414,3.3414,3.3414,3.3414,3.3414,3.3414,3.3414,3.3387,3.3466,3.3318,3.313,3.2848,3.2345,3.2064,3.1726,3.1904,3.2109,3.2122,3.2557,3.2619,3.2559,3.2799,3.304,3.3412,3.3439,3.3479,3.34,3.3307,3.3479,3.34,3.3414,3.3414,3.3414,3.3414,3.3414,3.3414,3.3414,3.3414,3.3414,3.3414,3.3414,3.3414,3.3414,3.348,3.3439,3.3501,3.397,3.5294,3.5261,3.516,0.0,0.5329,1.1546,1.3719,1.1212,0.8949,1.1848,1.2532,1.2507,1.2347,1.2318,1.2522,1.301,1.3763,1.4699,1.5872,1.6537,1.7012,1.7304,1.7548,1.7738,1.7846,1.786,1.786,1.786,1.786,1.786,1.786,1.786,1.786,1.786,1.786,1.786,1.786,1.786,1.786,1.786,1.786,1.786,1.786,1.786,1.786,1.786,1.786,1.786,1.786,1.786,1.786,1.7867,1.8473,2.1624,2.6195,2.6783,3.0014,3.4189,3.3881,3.3614,3.3414,3.3414,3.3414,3.3414,3.3414,3.3414,3.3414,3.3414,3.3414,3.3414,3.3414,3.3414,3.3414,3.3414,3.324,3.3066,3.2986,3.2585,3.2198,3.1978,3.2091,3.2256,3.2404,3.2606,3.2848,3.2933,3.2815,3.2934,3.3374,3.3414,3.3414,3.3414,3.3414,3.3414,3.3414,3.3414,3.3414,3.3414,3.3414,3.3414,3.3414,3.3414,3.3414,3.3414,3.3414,3.3414,3.3414,3.3414,3.332,3.333,3.3686,3.4223,3.5139,3.5254,3.5191,0.0,0.0529,0.3194,1.2093,1.2849,1.173,1.331,1.3092,1.2986,1.3336,1.3397,1.3485,1.4075,1.5018,1.592,1.6578,1.7073,1.7473,1.7772,1.7826,1.7846,1.786,1.786,1.786,1.786,1.786,1.786,1.786,1.786,1.786,1.786,1.786,1.786,1.786,1.786,1.786,1.786,1.786,1.786,1.786,1.786,1.786,1.786,1.786,1.786,1.786,1.786,1.786,1.8074,2.052,2.3233,2.6388,2.8722,3.1425,3.3881,3.3561,3.3427,3.3414,3.3414,3.3414,3.3414,3.3414,3.3414,3.3414,3.3414,3.3414,3.3414,3.3414,3.3414,3.3414,3.3414,3.34,3.332,3.304,3.2746,3.2519,3.2505,3.2091,3.1864,3.2191,3.231,3.2194,3.1814,3.2736,3.3387,3.34,3.3414,3.3414,3.3414,3.3414,3.3414,3.3414,3.3414,3.3414,3.3414,3.3414,3.3414,3.3414,3.3414,3.3414,3.3414,3.3414,3.3414,3.3414,3.3414,3.3427,3.344,3.4503,3.5047,3.5294,3.5173,3.5191,0.0,0.4662,0.8858,0.6087,0.9157,0.0,0.0,1.4238,1.4743,1.4798,1.4767,1.4862,1.5092,1.5608,1.6157,1.6666,1.7127,1.7528,1.7826,1.786,1.786,1.786,1.786,1.786,1.786,1.786,1.786,1.786,1.786,1.786,1.786,1.786,1.786,1.786,1.786,1.786,1.786,1.786,1.786,1.786,1.786,1.786,1.786,1.786,1.786,1.786,1.786,1.786,1.8074,2.0722,2.3358,2.6164,3.0382,3.2644,3.3574,3.3454,3.3414,3.3414,3.3414,3.3414,3.3414,3.3414,3.3414,3.3414,3.3414,3.3414,3.3414,3.3414,3.3414,3.3414,3.3414,3.3414,3.3387,3.328,3.3026,3.2812,3.2799,3.2639,3.2337,3.2091,3.2511,3.2895,3.2775,3.3107,3.3414,3.3414,3.3414,3.3414,3.3414,3.3414,3.3414,3.3414,3.3414,3.3414,3.3414,3.3414,3.3414,3.3414,3.3414,3.3414,3.3414,3.3414,3.3414,3.3414,3.3386,3.3466,3.3466,3.3844,3.4369,3.5292,3.524,3.5191,0.4282,0.8081,1.0985,0.5988,0.0,0.0,1.4089,1.4896,1.554,1.5628,1.5771,1.5778,1.5778,1.5981,1.63,1.6748,1.7202,1.7582,1.7826,1.786,1.786,1.786,1.786,1.786,1.786,1.786,1.786,1.786,1.786,1.786,1.786,1.786,1.786,1.786,1.786,1.786,1.786,1.786,1.786,1.786,1.786,1.786,1.786,1.786,1.786,1.786,1.786,1.7846,1.8005,2.1491,2.5077,2.8549,3.2123,3.3414,3.3414,3.3414,3.3414,3.3414,3.3414,3.3414,3.3414,3.3414,3.3414,3.3414,3.3414,3.3414,3.3414,3.3414,3.3414,3.3414,3.3414,3.3414,3.3414,3.3414,3.3187,3.3,3.308,3.2959,3.2682,3.2392,3.2749,3.3293,3.34,3.3414,3.3414,3.3414,3.3414,3.3414,3.3414,3.3414,3.3414,3.3414,3.3414,3.3414,3.3414,3.3414,3.3414,3.3414,3.3414,3.3414,3.3414,3.3414,3.3454,3.3346,3.333,3.3691,3.4015,3.3589,3.4045,3.5234,3.5294,3.5191,1.3404,0.9667,0.7378,1.367,0.0,0.9469,1.4936,1.5448,1.5092,1.6279,1.6293,1.609,1.609,1.6212,1.6463,1.691,1.7358,1.7704,1.7846,1.786,1.786,1.786,1.786,1.786,1.786,1.786,1.786,1.786,1.786,1.786,1.786,1.786,1.786,1.786,1.786,1.786,1.786,1.786,1.786,1.786,1.786,1.786,1.786,1.786,1.786,1.786,1.786,1.7772,1.8065,2.3417,2.8722,3.3414,3.3414,3.3414,3.3414,3.3414,3.3414,3.3414,3.3414,3.3414,3.3414,3.3414,3.3414,3.3414,3.3414,3.3414,3.3414,3.3414,3.3414,3.3414,3.3414,3.3414,3.3414,3.3414,3.3187,3.3066,3.3347,3.2959,3.2719,3.3293,3.2961,3.2841,3.336,3.3414,3.3414,3.3414,3.3414,3.3414,3.3414,3.3414,3.3414,3.3414,3.3414,3.3414,3.3414,3.3414,3.3414,3.3414,3.3414,3.3414,3.3414,3.3414,3.3346,3.3422,3.3435,3.4028,3.5253,3.3927,3.4058,3.5234,3.5294,3.5191,1.1689,1.2358,1.1884,1.5048,1.434,1.3506,1.5779,1.6237,1.6237,1.6795,1.6842,1.668,1.6571,1.668,1.6829,1.6958,1.7358,1.7704,1.7846,1.786,1.786,1.786,1.786,1.786,1.786,1.786,1.786,1.786,1.786,1.786,1.786,1.786,1.786,1.786,1.786,1.786,1.786,1.786,1.786,1.786,1.786,1.786,1.786,1.786,1.786,1.786,1.7758,1.8762,2.1059,2.6211,3.0431,3.3414,3.3414,3.3414,3.3414,3.3414,3.3414,3.3414,3.3414,3.3414,3.3414,3.3414,3.3414,3.3414,3.3414,3.3414,3.3414,3.3414,3.3414,3.3414,3.3414,3.3414,3.3414,3.3414,3.3347,3.3307,3.3387,3.328,3.32,3.3374,3.3334,3.3293,3.34,3.3414,3.3414,3.3414,3.3414,3.3414,3.3414,3.3414,3.3414,3.3414,3.3414,3.3414,3.3414,3.3414,3.3414,3.3414,3.3414,3.3414,3.3414,3.3399,3.3343,3.3422,3.4282,3.4896,3.5253,3.483,3.495,3.5234,3.5294,3.5191,1.1437,1.3356,1.3693,1.5295,1.5301,1.5341,1.623,1.6578,1.6898,1.7005,1.7039,1.6951,1.6856,1.6965,1.7087,1.7148,1.748,1.7758,1.7846,1.786,1.786,1.786,1.786,1.786,1.786,1.786,1.786,1.786,1.786,1.786,1.786,1.786,1.786,1.786,1.786,1.7826,1.7772,1.7772,1.7738,1.7684,1.7684,1.7724,1.7772,1.7846,1.7826,1.7772,1.7555,1.9593,2.3381,2.6587,3.0059,3.3414,3.3414,3.3414,3.3414,3.3414,3.3414,3.3414,3.3414,3.3414,3.3414,3.3414,3.3414,3.3414,3.3414,3.3414,3.3414,3.3414,3.3414,3.3414,3.3414,3.3414,3.3414,3.3414,3.3414,3.3414,3.3414,3.3414,3.3414,3.3414,3.3414,3.3414,3.3414,3.3414,3.3414,3.3414,3.3414,3.3414,3.3414,3.3414,3.3414,3.3414,3.3414,3.3414,3.3414,3.3414,3.3414,3.3414,3.3414,3.3414,3.3414,3.3479,3.3541,3.401,3.4824,3.5207,3.5152,3.5254,3.511,3.5173,3.5124,3.5191,1.2338,1.3347,1.3617,1.4833,1.5031,1.5404,1.6517,1.6876,1.6985,1.6998,1.7012,1.7019,1.7005,1.7127,1.7277,1.7399,1.767,1.786,1.786,1.7846,1.7846,1.786,1.7846,1.7846,1.7846,1.7846,1.7846,1.7846,1.7846,1.7846,1.7846,1.7846,1.7846,1.7826,1.7826,1.7758,1.7629,1.7629,1.7555,1.7419,1.7419,1.7494,1.7629,1.7758,1.7738,1.7589,1.7525,2.0523,2.5488,2.5501,2.8698,3.3414,3.3414,3.3414,3.3414,3.3414,3.3414,3.3414,3.3414,3.3414,3.3414,3.3414,3.3414,3.3414,3.3414,3.3414,3.3414,3.3414,3.3414,3.3414,3.3414,3.3414,3.3414,3.3414,3.3414,3.3414,3.3414,3.3414,3.3414,3.3414,3.3414,3.3414,3.3414,3.3414,3.3414,3.3414,3.3414,3.3414,3.3414,3.3414,3.3414,3.3414,3.3414,3.3414,3.3414,3.3414,3.3414,3.3414,3.3414,3.3427,3.3454,3.3532,3.4162,3.5179,3.5234,3.5173,3.5191,3.5191,3.5191,3.5191,3.5191,3.5191,1.4137,1.4404,1.4167,1.5262,1.5904,1.632,1.6815,1.6958,1.7012,1.7121,1.7243,1.729,1.7168,1.7365,1.7521,1.7433,1.767,1.786,1.786,1.7772,1.7738,1.7846,1.7758,1.7704,1.7704,1.7704,1.7704,1.7704,1.7704,1.7704,1.7704,1.7704,1.7629,1.7521,1.7514,1.75,1.7467,1.7467,1.7453,1.7419,1.7419,1.7439,1.7473,1.75,1.7433,1.7497,1.9523,2.2326,2.5481,2.7487,3.0343,3.3414,3.3414,3.3414,3.3414,3.3414,3.3414,3.3414,3.3414,3.3414,3.3414,3.3414,3.3414,3.3414,3.3414,3.3414,3.3414,3.3414,3.3414,3.3414,3.3414,3.3414,3.3414,3.3414,3.3414,3.3414,3.3414,3.3414,3.3414,3.3414,3.3414,3.3414,3.3414,3.3414,3.3414,3.3414,3.3414,3.3414,3.3414,3.3414,3.3414,3.3414,3.3414,3.3414,3.3414,3.3414,3.3414,3.3414,3.3414,3.3306,3.333,3.4299,3.4979,3.5129,3.5119,3.5137,3.5191,3.5191,3.5191,3.5191,3.5191,3.5191,1.3817,1.4049,1.4506,1.5533,1.6117,1.6585,1.6815,1.687,1.691,1.706,1.7209,1.7263,1.7121,1.7338,1.7487,1.7338,1.75,1.765,1.765,1.7589,1.7568,1.765,1.7582,1.7541,1.7541,1.7541,1.7541,1.7541,1.7541,1.7541,1.7541,1.7541,1.75,1.7419,1.7419,1.7385,1.7311,1.7311,1.7277,1.7209,1.7209,1.7209,1.7216,1.7277,1.727,1.7188,1.8579,2.1604,2.5215,2.6649,2.9724,3.3414,3.3414,3.3414,3.3414,3.3414,3.3414,3.3414,3.3414,3.3414,3.3414,3.3414,3.3414,3.3414,3.3414,3.3414,3.3414,3.3414,3.3414,3.3414,3.3414,3.3414,3.3414,3.3414,3.3414,3.3414,3.3414,3.3414,3.3414,3.3414,3.3414,3.3414,3.3414,3.3414,3.3414,3.3414,3.3414,3.3414,3.3414,3.3414,3.3414,3.3414,3.3414,3.3414,3.3414,3.3414,3.3414,3.3414,3.3414,3.348,3.3426,3.4082,3.4622,3.5224,3.5213,3.5191,3.5191,3.5191,3.5191,3.5191,3.5191,3.5191,1.2453,1.367,1.4757,1.5657,1.6137,1.649,1.6673,1.6714,1.6748,1.6876,1.7039,1.7121,1.7005,1.7202,1.7338,1.7216,1.7317,1.7419,1.7419,1.7399,1.7392,1.7419,1.7399,1.7385,1.7385,1.7385,1.7385,1.7385,1.7385,1.7385,1.7385,1.7385,1.7372,1.7344,1.7344,1.7283,1.7154,1.7154,1.71,1.6978,1.6978,1.6978,1.6985,1.71,1.7154,1.7148,1.7032,2.0071,2.5215,2.5215,2.8483,3.3414,3.3414,3.3414,3.3414,3.3414,3.3414,3.3414,3.3414,3.3414,3.3414,3.3414,3.3414,3.3414,3.3414,3.3414,3.3414,3.3414,3.3414,3.3414,3.3414,3.3414,3.3414,3.3414,3.3414,3.3414,3.3414,3.3414,3.3414,3.3414,3.3414,3.3414,3.3414,3.3414,3.3414,3.3414,3.3414,3.3414,3.3414,3.3414,3.3414,3.3414,3.3414,3.3414,3.3414,3.3414,3.3414,3.3414,3.3414,3.3414,3.3414,3.3324,3.3963,3.5152,3.5254,3.5191,3.5191,3.5191,3.5191,3.5191,3.5191,3.5191,1.1045,1.4037,1.5228,1.5561,1.5906,1.6212,1.649,1.6551,1.6558,1.6578,1.6809,1.7005,1.6985,1.7114,1.7216,1.7195,1.7317,1.7419,1.7419,1.7304,1.727,1.7405,1.7304,1.7222,1.7222,1.7222,1.7222,1.7222,1.7222,1.7222,1.7222,1.7222,1.7168,1.7046,1.7039,1.7032,1.7012,1.7012,1.6998,1.6978,1.6978,1.6978,1.6978,1.6998,1.7012,1.7005,1.6992,2.0071,2.5215,2.5215,2.8483,3.3414,3.3414,3.3414,3.3414,3.3414,3.3414,3.3414,3.3414,3.3414,3.3414,3.3414,3.3414,3.3414,3.3414,3.3414,3.3414,3.3414,3.3414,3.3414,3.3414,3.3414,3.3414,3.3414,3.3414,3.3414,3.3414,3.3414,3.3414,3.3414,3.3414,3.3414,3.3414,3.3414,3.3414,3.3414,3.3414,3.3414,3.3414,3.3414,3.3414,3.3414,3.3414,3.3414,3.3414,3.3414,3.3414,3.3414,3.3414,3.3414,3.3414,3.3324,3.3884,3.5088,3.516,3.5191,3.5191,3.5191,3.5191,3.5191,3.5191,3.5191,0.7835,1.1766,1.4387,1.5135,1.5425,1.5676,1.6062,1.6212,1.63,1.6388,1.6571,1.672,1.672,1.6775,1.6815,1.6815,1.687,1.6944,1.7032,1.691,1.687,1.7026,1.691,1.6815,1.6815,1.6815,1.6815,1.6815,1.6815,1.6815,1.6815,1.6815,1.6788,1.6727,1.672,1.672,1.672,1.672,1.672,1.6727,1.6809,1.6849,1.6856,1.6944,1.6978,1.6978,1.689,1.9919,2.5012,2.4891,2.8152,3.3173,3.3173,3.3267,3.3414,3.3414,3.3414,3.3414,3.3414,3.3414,3.3414,3.3414,3.3414,3.3414,3.3414,3.3414,3.3414,3.3414,3.3414,3.3414,3.3414,3.3414,3.3414,3.3414,3.3414,3.3414,3.3414,3.3414,3.3414,3.3414,3.3414,3.3414,3.3414,3.3414,3.3414,3.3414,3.3414,3.3414,3.3414,3.3414,3.3414,3.3414,3.3414,3.3414,3.3414,3.3414,3.3414,3.3414,3.3414,3.3414,3.3414,3.4002,3.4568,3.5253,3.5146,3.5191,3.5191,3.5191,3.5191,3.5191,3.5191,3.5191,0.4106,0.8974,1.3461,1.4318,1.4719,1.5086,1.5574,1.5805,1.5954,1.611,1.6225,1.6307,1.6347,1.6442,1.6524,1.6524,1.6524,1.6564,1.6673,1.6592,1.6564,1.668,1.6592,1.6524,1.6524,1.6524,1.6524,1.6524,1.6524,1.6524,1.6524,1.6524,1.6524,1.6524,1.6524,1.6524,1.6524,1.6524,1.6524,1.6524,1.6639,1.6714,1.6754,1.687,1.7356,1.8006,1.7023,2.0176,2.5565,2.4808,2.7844,3.2866,3.2866,3.3,3.3187,3.3187,3.324,3.3307,3.3307,3.3347,3.3414,3.3414,3.336,3.3307,3.3307,3.3253,3.3187,3.3187,3.324,3.3307,3.3307,3.336,3.3414,3.3414,3.3414,3.3414,3.3414,3.3414,3.3414,3.3414,3.3414,3.3414,3.3414,3.3414,3.3414,3.3414,3.3414,3.3414,3.3414,3.3414,3.3414,3.3414,3.3414,3.3414,3.3414,3.3414,3.3414,3.3414,3.3414,3.3414,3.3414,3.4165,3.4939,3.5253,3.5065,3.5124,3.5191,3.5191,3.5191,3.5191,3.5191,3.5191,0.024,0.6296,1.2745,1.3253,1.3906,1.4502,1.5086,1.5337,1.5486,1.5642,1.5683,1.5723,1.5866,1.6232,1.6524,1.6524,1.6524,1.6524,1.653,1.6524,1.6524,1.653,1.6524,1.6524,1.6524,1.6524,1.6524,1.6524,1.6524,1.6524,1.6524,1.6524,1.6524,1.6524,1.6524,1.6524,1.6524,1.6524,1.6524,1.6524,1.653,1.6612,1.6748,1.6761,1.8277,2.0679,1.784,2.1113,2.7939,2.5545,2.7741,3.2572,3.2572,3.2572,3.2585,3.2585,3.2759,3.3,3.3,3.3187,3.3414,3.3414,3.3227,3.3,3.3,3.2812,3.2585,3.2585,3.2786,3.3,3.3,3.32,3.3414,3.3414,3.3414,3.3414,3.3414,3.3414,3.3414,3.3414,3.3414,3.3414,3.3414,3.3414,3.3414,3.3414,3.3414,3.3414,3.3414,3.3414,3.3414,3.3414,3.3414,3.3414,3.3414,3.3414,3.3414,3.3414,3.3414,3.3414,3.3414,3.3492,3.4042,3.524,3.485,3.491,3.5191,3.5191,3.5191,3.5191,3.5191,3.5191,0.0,0.2219,0.5723,1.0938,1.3047,1.3784,1.3933,1.4604,1.5147,1.5201,1.5438,1.5655,1.571,1.592,1.6123,1.6225,1.6239,1.6273,1.6374,1.63,1.6273,1.6374,1.63,1.6239,1.6239,1.6239,1.6239,1.6239,1.6239,1.6239,1.6239,1.6239,1.6239,1.6239,1.6239,1.6239,1.6239,1.6239,1.6239,1.6239,1.6341,1.6463,1.6605,1.6605,1.8049,2.0527,1.9541,2.2478,2.8299,2.7191,2.8934,3.2265,3.2265,3.2385,3.2545,3.2545,3.2612,3.2706,3.2706,3.2772,3.2879,3.3066,3.2933,3.2732,3.2919,3.2772,3.2545,3.2545,3.2759,3.2973,3.2973,3.32,3.3414,3.3414,3.0735,2.9104,3.2585,3.3414,3.3414,3.3414,3.3414,3.3414,3.3414,3.3414,3.3414,3.3414,3.3414,3.3414,3.3414,3.3414,3.3414,3.3414,3.3414,3.3414,3.3414,3.3414,3.3414,3.3414,3.3414,3.3414,3.3414,3.3479,3.3798,3.4555,3.4616,3.4897,3.5191,3.5191,3.5191,3.5191,3.5191,3.5191,0.0,0.0694,0.2751,0.8474,1.1338,1.2706,1.3275,1.398,1.4516,1.4767,1.5133,1.5445,1.5547,1.5642,1.5771,1.5974,1.6001,1.6056,1.6212,1.6144,1.6117,1.6218,1.6144,1.6083,1.6083,1.6083,1.6083,1.6083,1.6083,1.6083,1.6083,1.6083,1.6083,1.6083,1.6083,1.6083,1.6083,1.6083,1.6083,1.6083,1.6185,1.6307,1.6449,1.6449,1.7916,2.0629,2.0435,2.3323,2.825,2.8003,2.9524,3.1971,3.2064,3.2225,3.2398,3.2398,3.2519,3.2679,3.2572,3.2612,3.2719,3.2919,3.2719,3.2452,3.2746,3.2559,3.2251,3.2251,3.2532,3.2839,3.2839,3.251,3.1982,3.1982,2.9987,2.8359,3.0258,3.2183,3.3306,3.3427,3.3414,3.3414,3.3414,3.3414,3.3414,3.3414,3.3414,3.3414,3.3414,3.3414,3.3414,3.3414,3.3414,3.3414,3.3414,3.3414,3.3414,3.3414,3.3414,3.3454,3.3346,3.3439,3.3731,3.4236,3.4563,3.4803,3.5191,3.5191,3.5191,3.5191,3.5191,3.5191,0.0,0.0,0.0,0.6349,0.885,1.1382,1.3139,1.3437,1.3559,1.4312,1.4713,1.5018,1.533,1.5391,1.5493,1.5784,1.5839,1.59,1.6049,1.6069,1.6069,1.6069,1.6069,1.6069,1.6069,1.6069,1.6069,1.6076,1.6076,1.6076,1.6083,1.6083,1.6083,1.6083,1.6083,1.6083,1.6083,1.6083,1.6083,1.6083,1.6083,1.6164,1.6307,1.6307,1.7864,2.0798,2.0401,2.3096,2.7611,2.8062,2.9586,3.1717,3.2011,3.2118,3.2118,3.2104,3.2465,3.2919,3.2625,3.2719,3.2959,3.2959,3.2572,3.2158,3.2452,3.2131,3.1664,3.1677,3.2104,3.2545,3.2572,3.0765,2.9116,2.9116,3.1135,3.1579,2.6456,2.933,3.3075,3.324,3.34,3.3414,3.34,3.34,3.3414,3.3414,3.3414,3.3414,3.3414,3.3414,3.3414,3.3414,3.3414,3.3414,3.3414,3.3414,3.3414,3.3414,3.3414,3.3333,3.3409,3.3373,3.3625,3.4267,3.4249,3.4616,3.5204,3.5204,3.5191,3.5191,3.5191,3.5191,0.0,0.0,0.0,0.0,0.0,0.0,1.1206,1.1748,1.2352,1.3214,1.3627,1.4027,1.4645,1.4943,1.5153,1.5337,1.5554,1.5716,1.5757,1.5764,1.5764,1.5764,1.5764,1.5764,1.5764,1.5764,1.5805,1.5906,1.592,1.5961,1.6076,1.6083,1.6083,1.6083,1.6083,1.6083,1.6083,1.6083,1.6083,1.6083,1.6083,1.6164,1.6307,1.6198,1.6647,1.7625,1.9427,2.094,2.2557,2.6726,2.8783,2.9518,3.1594,3.2425,3.2398,3.2185,3.2345,3.2599,3.2091,3.2238,3.2625,3.2412,3.2238,3.2118,3.2198,3.1957,3.1717,3.1917,3.2251,3.2234,3.0627,2.6756,2.3775,2.583,2.3923,2.3297,2.9831,2.6019,2.3943,3.1849,3.3479,3.3347,3.3359,3.3479,3.3414,3.3414,3.3414,3.3414,3.3414,3.3414,3.3414,3.3414,3.3414,3.3414,3.3414,3.3414,3.3414,3.3414,3.3414,3.3333,3.3409,3.426,3.4313,3.3577,3.3993,3.4674,3.5232,3.5284,3.5191,3.5191,3.5191,3.5191,0.3954,0.0,0.7982,0.9447,0.0,0.0,1.0799,1.1206,1.1681,1.2583,1.3057,1.3478,1.4041,1.434,1.459,1.4862,1.5106,1.535,1.5601,1.5642,1.5642,1.5642,1.5642,1.5642,1.5642,1.5642,1.5676,1.5757,1.5764,1.5805,1.5893,1.59,1.5927,1.5988,1.5988,1.6015,1.6083,1.6083,1.6083,1.6083,1.6083,1.613,1.6212,1.6123,1.6164,1.6307,1.7791,1.8628,1.8993,2.4477,2.7334,2.8729,3.1672,3.2732,3.2706,3.2532,3.2652,3.2839,3.2372,3.2438,3.2692,3.2519,3.2305,3.2131,3.2251,3.1998,3.173,3.2024,3.1607,3.0813,2.9617,2.5215,2.1518,2.3156,2.1035,2.0836,2.8324,2.6649,2.5763,3.2207,3.3106,3.2934,3.3238,3.3345,3.3479,3.34,3.3414,3.3414,3.3414,3.3414,3.3414,3.3414,3.3414,3.3414,3.3414,3.3414,3.3414,3.3414,3.3414,3.3386,3.3363,3.4639,3.4952,3.415,3.4268,3.332,3.1475,3.3961,3.5191,3.5191,3.5191,3.5191,0.9564,0.0,0.0,1.0582,1.0637,0.0,1.1131,1.1212,1.1294,1.2094,1.2576,1.2963,1.3336,1.3559,1.3824,1.4224,1.4502,1.4882,1.5499,1.5588,1.5588,1.5588,1.5588,1.5588,1.5588,1.5588,1.5594,1.5615,1.5628,1.5642,1.5642,1.5642,1.5696,1.5825,1.5845,1.592,1.6056,1.6076,1.6083,1.6083,1.6083,1.6083,1.6083,1.6083,1.6157,1.6286,1.6286,1.6368,1.6898,2.1912,2.5524,2.7985,3.1655,3.2802,3.2617,3.2986,3.316,3.336,3.304,3.2973,3.3013,3.2946,3.2572,3.2198,3.2023,3.1912,3.173,3.1666,2.996,2.7997,2.8235,2.4598,2.0696,2.1103,2.087,2.1293,2.371,2.8186,3.1629,3.1598,3.172,3.1996,3.3066,3.3318,3.3426,3.3454,3.3494,3.3494,3.3494,3.3467,3.3454,3.3454,3.3427,3.3414,3.3414,3.3414,3.3414,3.3414,3.3414,3.3452,3.3368,3.4558,3.5197,3.5098,3.3485,3.0101,2.5605,3.1686,3.4518,3.428,3.4966,3.5191,1.0116,1.1718,1.1142,1.0742,1.0899,0.0,1.0005,1.0148,1.05,1.0677,1.0785,1.1084,1.187,1.2427,1.2793,1.2881,1.3627,1.4455,1.5174,1.5269,1.5269,1.5269,1.5269,1.5269,1.5269,1.5269,1.5323,1.5445,1.5567,1.5642,1.5642,1.5642,1.5649,1.5683,1.5791,1.5866,1.59,1.6022,1.6083,1.6083,1.6083,1.6083,1.6083,1.6083,1.6096,1.6123,1.6123,1.6212,1.655,1.9925,2.1693,2.2987,3.0117,3.1701,3.0234,3.2259,3.316,3.3334,3.2812,3.2933,3.3253,3.2786,3.2559,3.2023,2.9664,3.0369,3.1389,2.9518,2.5999,2.2697,2.2743,2.0279,1.8432,2.0488,1.9259,1.7667,1.8541,1.937,2.0167,2.0274,2.6519,3.1845,3.2059,3.2695,3.3337,3.3389,3.3389,3.3389,3.3389,3.3435,3.3316,3.3316,3.3333,3.3414,3.3414,3.3414,3.3414,3.3414,3.3414,3.3439,3.3341,3.4469,3.5119,3.5298,2.5811,2.0658,1.9692,2.6959,2.9831,2.8218,3.2935,3.5191,0.796,1.067,1.1952,1.1323,1.1063,0.0,0.0,1.0331,1.0405,1.086,1.0649,1.0636,1.1463,1.1803,1.202,1.2244,1.2976,1.3648,1.4021,1.4584,1.4964,1.4964,1.4964,1.4991,1.5072,1.5079,1.514,1.5289,1.5371,1.5411,1.5411,1.5411,1.5445,1.552,1.5669,1.5778,1.5852,1.6001,1.6083,1.6083,1.6083,1.6083,1.6083,1.6083,1.6083,1.6083,1.6083,1.6123,1.6392,1.9147,1.95,1.9354,2.6261,2.8284,2.7267,2.8565,2.9084,2.9272,2.9013,2.9096,2.9248,2.8861,2.8637,2.8288,2.6649,2.7169,2.7812,2.6859,2.3847,2.1103,2.1103,1.9044,1.7398,1.8634,1.784,1.6659,1.6666,1.6912,1.6954,1.6543,2.0477,2.3973,2.4326,2.48,2.5175,2.5184,2.5215,2.5184,2.5298,2.5196,2.7289,3.2742,3.3494,3.3414,3.3414,3.3333,3.3399,3.3399,3.3303,3.3337,3.3317,2.8741,2.6194,2.6509,2.0826,1.7964,1.7875,2.1715,2.6082,3.0834,3.3883,3.5191,0.7043,0.9708,1.2155,1.1837,1.1606,1.1369,0.0,0.0,0.0,1.1158,1.0785,1.0561,1.1199,1.1212,1.1253,1.1613,1.2257,1.2664,1.2549,1.3532,1.4299,1.4387,1.4475,1.4597,1.478,1.4719,1.4787,1.5079,1.4964,1.4957,1.5133,1.5167,1.5242,1.5364,1.5513,1.5662,1.5811,1.5961,1.6049,1.6083,1.6083,1.6083,1.6083,1.6083,1.6083,1.6083,1.6083,1.6083,1.6275,1.8426,1.8114,1.6876,2.2404,2.4438,2.4263,2.4871,2.5022,2.5215,2.5215,2.5215,2.5184,2.5002,2.4386,2.3957,2.4087,2.36,2.3001,2.3605,2.206,2.0279,2.0279,1.8634,1.7181,1.7559,1.7231,1.67,1.7099,1.6967,1.6659,1.6266,1.6042,1.6192,1.6703,1.689,1.6982,1.7051,1.7092,1.7044,1.6912,1.8775,2.3596,3.2397,3.348,3.348,3.348,3.3316,3.2544,3.0298,3.0238,3.0236,3.0255,2.1802,1.749,1.7875,1.7792,1.786,1.786,1.7841,2.2811,3.1855,3.416,3.5191,1.1653,1.2943,1.3485,1.1945,1.2386,1.261,1.0649,0.0,1.0867,1.0168,0.0,0.9964,1.0188,0.0,0.0,1.027,1.1118,1.1586,1.105,1.1898,1.2718,1.3119,1.3512,1.3865,1.415,1.3817,1.3912,1.4726,1.4177,1.4156,1.495,1.5113,1.5194,1.5208,1.5357,1.5506,1.5662,1.5805,1.5947,1.6083,1.6083,1.6083,1.6083,1.6083,1.6083,1.6083,1.6083,1.6083,1.6083,1.6474,1.6289,1.6715,2.219,2.3107,2.1634,2.406,2.5022,2.5215,2.5215,2.5215,2.5204,2.5184,2.3389,2.1732,2.3551,2.1107,1.8152,2.0372,1.9298,1.7391,1.7391,1.7188,1.7566,1.9878,1.8488,1.7151,1.9557,1.8119,1.6171,1.6515,1.6225,1.6045,1.6194,1.668,1.6955,1.6917,1.6937,1.7099,1.6975,2.5512,3.2034,3.3356,3.3343,3.3343,3.3343,3.3363,2.9191,1.9545,1.8922,1.8785,1.893,1.8258,1.7906,1.7875,1.7792,1.786,1.786,1.7944,1.8473,2.0108,3.0469,3.5191,1.2735,1.3219,1.3343,1.2338,1.2447,1.244,1.1233,1.0867,1.0765,1.0738,0.0,0.0,0.0,0.0,0.0,0.0,1.0493,1.0663,1.0148,1.0683,1.1416,1.221,1.2549,1.2935,1.3498,1.3302,1.3444,1.4163,1.377,1.3851,1.4665,1.493,1.5099,1.5181,1.533,1.5445,1.5506,1.5737,1.5886,1.5947,1.6042,1.6083,1.6083,1.6083,1.6083,1.6083,1.6083,1.6083,1.6083,1.6083,1.6083,1.6282,1.8702,1.9083,1.8315,1.9613,2.0168,2.034,2.0447,2.0488,2.0455,2.0233,1.9237,1.8457,1.9203,1.8112,1.6694,1.7894,1.7405,1.6714,1.6714,1.6714,1.69,1.8049,1.7305,1.68,1.7798,1.702,1.6103,1.6164,1.6123,1.6164,1.6029,1.6564,1.7092,1.7037,1.6924,1.691,1.6913,2.6688,3.3394,3.3435,3.3311,3.0876,2.443,2.3952,2.1871,1.7341,1.6989,1.7092,1.7012,1.7277,1.7494,1.7875,1.7792,1.786,1.786,1.7964,1.7861,1.8248,2.989,3.5112,1.3233,1.3356,1.3302,1.2562,1.2366,1.2176,1.1525,1.1077,1.0887,1.1206,1.088,0.0,0.0,0.0,1.0195,1.0066,0.0,1.008,0.951,0.9815,1.0405,1.1246,1.1694,1.2155,1.2691,1.2467,1.2617,1.3417,1.3051,1.3241,1.4272,1.4618,1.4889,1.512,1.5269,1.5371,1.5411,1.5622,1.5771,1.5852,1.5967,1.6042,1.6083,1.6083,1.6083,1.6083,1.6083,1.6083,1.6083,1.6083,1.6083,1.6083,1.6083,1.6151,1.6266,1.6408,1.6558,1.6707,1.6863,1.6917,1.687,1.6564,1.6422,1.6341,1.6191,1.6246,1.6368,1.6368,1.6442,1.6524,1.6524,1.6524,1.651,1.6469,1.6381,1.63,1.6259,1.6157,1.6083,1.6083,1.6083,1.6117,1.6024,1.6374,1.6742,1.6941,1.7058,1.7065,1.7092,2.6534,3.2156,2.9232,2.8951,2.5728,1.7711,1.6982,1.7051,1.7051,1.6931,1.7039,1.6969,1.6902,1.727,1.7875,1.7792,1.786,1.786,1.7998,1.7944,1.817,2.665,3.0412,1.396,1.4027,1.3912,1.244,1.2284,1.2189,1.1016,1.1179,1.1463,1.105,1.1396,1.1647,1.1233,1.0907,1.0555,1.012,1.0181,0.0,0.0,0.9347,0.9747,1.0066,1.1009,1.164,1.1667,1.1002,1.1118,1.2447,1.1728,1.2006,1.377,1.4156,1.4523,1.4964,1.5113,1.5262,1.5411,1.5418,1.5567,1.5852,1.5859,1.594,1.6083,1.6083,1.6083,1.6083,1.6083,1.6083,1.6083,1.6083,1.6083,1.6083,1.6083,1.6083,1.611,1.6259,1.6408,1.6551,1.6707,1.6754,1.6707,1.6415,1.6408,1.649,1.6347,1.6402,1.6517,1.6517,1.6517,1.6524,1.6524,1.6524,1.6483,1.6347,1.6313,1.6273,1.6123,1.6083,1.6083,1.6083,1.6083,1.6083,1.609,1.6212,1.6415,1.692,1.6968,1.6975,1.6989,2.6618,2.925,1.8724,1.7554,1.7418,1.6996,1.6904,1.6971,1.6971,1.6978,1.7039,1.6969,1.6902,1.727,1.7875,1.7792,1.786,1.786,1.786,1.786,1.7846,1.8255,1.8352,1.4197,1.436,1.4299,1.3098,1.28,1.2515,1.1416,1.1402,1.1491,1.1043,1.1423,1.1694,1.1246,1.0921,1.0609,1.0256,0.9998,0.9625,0.0,0.915,0.9347,0.9442,1.0209,1.0731,1.0731,1.1523,1.2437,1.3539,1.3263,1.3637,1.5116,1.475,1.4557,1.4808,1.5052,1.5208,1.5262,1.5357,1.5459,1.556,1.5757,1.5879,1.5934,1.6035,1.6083,1.6083,1.6083,1.6083,1.6083,1.6083,1.6083,1.6083,1.6083,1.6083,1.6103,1.6252,1.6341,1.6402,1.6544,1.6666,1.67,1.6402,1.6341,1.6354,1.6205,1.6191,1.6232,1.6232,1.6232,1.6232,1.6232,1.6232,1.6218,1.6171,1.6157,1.6144,1.609,1.6083,1.6083,1.6083,1.6083,1.6083,1.6083,1.6123,1.6259,1.6346,1.6686,1.6975,1.6996,2.032,2.1204,1.7376,1.7051,1.6917,1.6917,1.6958,1.6978,1.6978,1.6978,1.6998,1.7046,1.729,1.7669,1.794,1.7964,1.786,1.786,1.786,1.786,1.786,1.7998,1.7909,1.4482,1.4597,1.4516,1.3573,1.3227,1.2854,1.1857,1.183,1.1884,1.1436,1.1694,1.1952,1.1823,1.1294,1.0799,1.0555,1.0046,0.951,0.0,0.9022,0.9076,0.9076,0.9646,1.0308,1.0974,1.1248,1.2299,1.481,1.4283,1.4382,1.5781,1.6277,1.5911,1.4645,1.591,1.6104,1.5181,1.5282,1.5357,1.5411,1.5601,1.575,1.5859,1.5954,1.6029,1.6083,1.6083,1.6083,1.6083,1.6083,1.6083,1.6083,1.6083,1.6083,1.6096,1.6191,1.6259,1.6313,1.6354,1.6463,1.6551,1.6307,1.6232,1.6212,1.611,1.6083,1.6083,1.6083,1.6083,1.6083,1.6083,1.6083,1.6083,1.6083,1.6083,1.6083,1.6083,1.6083,1.6083,1.6083,1.6083,1.6083,1.6083,1.6123,1.6024,1.6002,1.6571,1.6913,1.6982,1.6897,1.6951,1.7078,1.6931,1.6978,1.6978,1.6978,1.6978,1.6978,1.6978,1.7026,1.6915,1.7324,1.7696,1.7806,1.7978,1.786,1.786,1.786,1.786,1.786,1.786,1.7812]}]]